[[{"header":{"parameterUnit":"m.s-1","parameterCategory":1,"la1":30.6,"la2":28.766,"lo1":-90.7593,"lo2":-88.6598,"dy":0.0162,"dx":0.0183,"nx":116,"ny":114,"refTime":"2023-06-12T12:00:00:Z","depth":0,"parameterNumber":2,"parameterNumberName":"U-component_of_WINDS"},"data":[0.0,0.0,0.0,0.0,0.0,0.0,0.0,0.0,0.0,0.0,0.0,0.0,0.0,0.0,0.0,0.0,0.0,0.0,0.0,0.0,0.0,0.0,0.0,0.0,0.0,0.0,0.0,0.0,0.0,0.0,0.0,0.0,0.0,0.0,0.0,0.0,0.0,0.0,0.0,0.0,0.0,0.0,0.0,0.0,0.0,0.0,0.0,0.0,0.0,0.0,0.0,0.0,0.0,0.0,0.0,0.0,0.0,0.0,0.0,0.0,0.0,0.0,0.0,0.0,0.0,0.0,0.0,0.0,0.0,0.0,0.0,0.0,0.0,0.0,0.0,0.0,0.0,0.0,0.0,0.0,0.0,0.0,0.0,0.0,0.0,0.0,0.0,0.0,0.0,0.0,0.0,0.0,0.0,0.0,0.0,0.0,0.0,0.0,0.0,0.0,0.0,0.0,0.0,0.0,0.0,0.0,0.0,0.0,0.0,0.0,0.0,0.0,0.0,0.0,0.0,0.0,0.0,0.0,0.0,0.0,0.0,0.0,0.0,0.0,0.0,0.0,0.0,0.0,0.0,0.0,0.0,0.0,0.0,0.0,0.0,0.0,0.0,0.0,0.0,0.0,0.0,0.0,0.0,0.0,0.0,0.0,0.0,0.0,0.0,0.0,0.0,0.0,0.0,0.0,0.0,0.0,0.0,0.0,0.0,0.0,0.0,0.0,0.0,0.0,0.0,0.0,0.0,0.0,0.0,0.0,0.0,0.0,0.0,0.0,0.0,0.0,0.0,0.0,0.0,0.0,0.0,0.0,0.0,0.0,0.0,0.0,0.0,0.0,0.0,0.0,0.0,0.0,0.0,0.0,0.0,0.0,0.0,0.0,0.0,0.0,0.0,0.0,0.0,0.0,0.0,0.0,0.0,0.0,0.0,0.0,0.0,0.0,0.0,0.0,0.0,0.0,0.0,0.0,0.0,0.0,0.0,0.0,0.0,0.0,0.0,0.0,0.0,0.0,0.0,0.0,0.0,0.0,0.0,0.0,0.0,0.0,0.0,0.0,0.0,0.0,0.0,0.0,0.0,0.0,0.0,0.0,0.0,0.0,0.0,0.0,0.0,0.0,0.0,0.0,0.0,0.0,0.0,0.0,0.0,0.0,0.0,0.0,0.0,0.0,0.0,0.0,0.0,0.0,0.0,0.0,0.0,0.0,0.0,0.0,0.0,0.0,0.0,0.0,0.0,0.0,0.0,0.0,0.0,0.0,0.0,0.0,0.0,0.0,0.0,0.0,0.0,0.0,0.0,0.0,0.0,0.0,0.0,0.0,0.0,0.0,0.0,0.0,0.0,0.0,0.0,0.0,0.0,0.0,0.0,0.0,0.0,0.0,0.0,0.0,0.0,0.0,0.0,0.0,0.0,0.0,0.0,0.0,0.0,0.0,0.0,0.0,0.0,0.0,0.0,0.0,0.0,0.0,0.0,0.0,0.0,0.0,0.0,0.0,0.0,0.0,0.0,0.0,0.0,0.0,0.0,0.0,0.0,0.0,0.0,0.0,0.0,0.0,0.0,0.0,0.0,0.0,0.0,0.0,0.0,0.0,0.0,0.0,0.0,0.0,0.0,0.0,0.0,0.0,0.0,0.0,0.0,0.0,0.0,0.0,0.0,0.0,0.0,0.0,0.0,0.0,0.0,0.0,0.0,0.0,0.0,0.0,0.0,0.0,0.0,0.0,0.0,0.0,0.0,0.0,0.0,0.0,0.0,0.0,0.0,0.0,0.0,0.0,0.0,0.0,0.0,0.0,0.0,0.0,0.0,0.0,0.0,0.0,0.0,0.0,0.0,0.0,0.0,0.0,0.0,0.0,0.0,0.0,0.0,0.0,0.0,0.0,0.0,0.0,0.0,0.0,0.0,0.0,0.0,0.0,0.0,0.0,0.0,0.0,0.0,0.0,0.0,0.0,0.0,0.0,0.0,0.0,0.0,0.0,0.0,0.0,0.0,0.0,0.0,0.0,0.0,0.0,0.0,0.0,0.0,0.0,0.0,0.0,0.0,0.0,0.0,0.0,0.0,0.0,0.0,0.0,0.0,0.0,0.0,0.0,0.0,0.0,0.0,0.0,0.0,0.0,0.0,0.0,0.0,0.0,0.0,0.0,0.0,0.0,0.0,0.0,0.0,0.0,0.0,0.0,0.0,0.0,0.0,0.0,0.0,0.0,0.0,0.0,0.0,0.0,0.0,0.0,0.0,0.0,0.0,0.0,0.0,0.0,0.0,0.0,0.0,0.0,0.0,0.0,0.0,0.0,0.0,0.0,0.0,0.0,0.0,0.0,0.0,0.0,0.0,0.0,0.0,0.0,0.0,0.0,0.0,0.0,0.0,0.0,0.0,0.0,0.0,0.0,0.0,0.0,0.0,0.0,0.0,0.0,0.0,0.0,0.0,0.0,0.0,0.0,0.0,0.0,0.0,0.0,0.0,0.0,0.0,0.0,0.0,0.0,0.0,0.0,0.0,0.0,0.0,0.0,0.0,0.0,0.0,0.0,0.0,0.0,0.0,0.0,0.0,0.0,0.0,0.0,0.0,0.0,0.0,0.0,0.0,0.0,0.0,0.0,0.0,0.0,0.0,0.0,0.0,0.0,0.0,0.0,0.0,0.0,0.0,0.0,0.0,0.0,0.0,0.0,0.0,0.0,0.0,0.0,0.0,0.0,0.0,0.0,0.0,0.0,0.0,0.0,0.0,0.0,0.0,0.0,0.0,0.0,0.0,0.0,0.0,0.0,0.0,0.0,0.0,0.0,0.0,0.0,0.0,0.0,0.0,0.0,0.0,0.0,0.0,0.0,0.0,0.0,0.0,0.0,0.0,0.0,0.0,0.0,0.0,0.0,0.0,0.0,0.0,0.0,0.0,0.0,0.0,0.0,0.0,0.0,0.0,0.0,0.0,0.0,0.0,0.0,0.0,0.0,0.0,0.0,0.0,0.0,0.0,0.0,0.0,0.0,0.0,0.0,0.0,0.0,0.0,0.0,0.0,0.0,0.0,0.0,0.0,0.0,0.0,0.0,0.0,0.0,0.0,0.0,0.0,0.0,0.0,0.0,0.0,0.0,0.0,0.0,0.0,0.0,0.0,0.0,0.0,0.0,0.0,0.0,0.0,0.0,0.0,0.0,0.0,0.0,0.0,0.0,0.0,0.0,0.0,0.0,0.0,0.0,0.0,0.0,0.0,0.0,0.0,0.0,0.0,0.0,0.0,0.0,0.0,0.0,0.0,0.0,0.0,0.0,0.0,0.0,0.0,0.0,0.0,0.0,0.0,0.0,0.0,0.0,0.0,0.0,0.0,0.0,0.0,0.0,0.0,0.0,0.0,0.0,0.0,0.0,0.0,0.0,0.0,0.0,0.0,0.0,0.0,0.0,0.0,0.0,0.0,0.0,0.0,0.0,0.0,0.0,0.0,0.0,0.0,0.0,0.0,0.0,0.0,0.0,0.0,0.0,0.0,0.0,0.0,0.0,0.0,0.0,0.0,0.0,0.0,0.0,0.0,0.0,0.0,0.0,0.0,0.0,0.0,0.0,0.0,0.0,0.0,0.0,0.0,0.0,0.0,0.0,0.0,0.0,0.0,0.0,0.0,0.0,0.0,0.0,0.0,0.0,0.0,0.0,0.0,0.0,0.0,0.0,0.0,0.0,0.0,0.0,0.0,0.0,0.0,0.0,0.0,0.0,0.0,0.0,0.0,0.0,0.0,0.0,0.0,0.0,0.0,0.0,0.0,0.0,0.0,0.0,0.0,0.0,0.0,0.0,0.0,0.0,0.0,0.0,0.0,0.0,0.0,0.0,0.0,0.0,0.0,0.0,0.0,0.0,0.0,0.0,0.0,0.0,0.0,0.0,0.0,0.0,0.0,0.0,0.0,0.0,0.0,0.0,0.0,0.0,0.0,0.0,0.0,0.0,0.0,0.0,0.0,0.0,0.0,0.0,0.0,0.0,0.0,0.0,0.0,0.0,0.0,0.0,0.0,0.0,0.0,0.0,0.0,0.0,0.0,0.0,0.0,0.0,0.0,0.0,0.0,0.0,0.0,0.0,0.0,0.0,0.0,0.0,0.0,0.0,0.0,0.0,0.0,0.0,0.0,0.0,0.0,0.0,0.0,0.0,0.0,0.0,0.0,0.0,0.0,0.0,0.0,0.0,0.0,0.0,0.0,0.0,0.0,0.0,0.0,0.0,0.0,0.0,0.0,0.0,0.0,0.0,0.0,0.0,0.0,0.0,0.0,0.0,0.0,0.0,0.0,0.0,0.0,0.0,0.0,0.0,0.0,0.0,0.0,0.0,0.0,0.0,0.0,0.0,0.0,0.0,0.0,0.0,0.0,0.0,0.0,0.0,0.0,0.0,0.0,0.0,0.0,0.0,0.0,0.0,0.0,0.0,0.0,0.0,0.0,0.0,0.0,0.0,0.0,0.0,0.0,0.0,0.0,0.0,0.0,0.0,0.0,0.0,0.0,0.0,0.0,0.0,0.0,0.0,0.0,0.0,0.0,0.0,0.0,0.0,0.0,0.0,0.0,0.0,0.0,0.0,0.0,0.0,0.0,0.0,0.0,0.0,0.0,0.0,0.0,0.0,0.0,0.0,0.0,0.0,0.0,0.0,0.0,0.0,0.0,0.0,0.0,0.0,0.0,0.0,0.0,0.0,0.0,0.0,0.0,0.0,0.0,0.0,0.0,0.0,0.0,0.0,0.0,0.0,0.0,0.0,0.0,0.0,0.0,0.0,0.0,0.0,0.0,0.0,0.0,0.0,0.0,0.0,0.0,0.0,0.0,0.0,0.0,0.0,0.0,0.0,0.0,0.0,0.0,0.0,0.0,0.0,0.0,0.0,0.0,0.0,0.0,0.0,0.0,0.0,0.0,0.0,0.0,0.0,0.0,0.0,0.0,0.0,0.0,0.0,0.0,0.0,0.0,0.0,0.0,0.0,0.0,0.0,0.0,0.0,0.0,0.0,0.0,0.0,0.0,0.0,0.0,0.0,0.0,0.0,0.0,0.0,0.0,0.0,0.0,0.0,0.0,0.0,0.0,0.0,0.0,0.0,0.0,0.0,0.0,0.0,0.0,0.0,0.0,0.0,0.0,0.0,0.0,0.0,0.0,0.0,0.0,0.0,0.0,0.0,0.0,0.0,0.0,0.0,0.0,0.0,0.0,0.0,0.0,0.0,0.0,0.0,0.0,0.0,0.0,0.0,0.0,0.0,0.0,0.0,0.0,0.0,0.0,0.0,0.0,0.0,0.0,0.0,0.0,0.0,0.0,0.0,0.0,0.0,0.0,0.0,0.0,0.0,0.0,0.0,0.0,0.0,0.0,0.0,0.0,0.0,0.0,0.0,0.0,0.0,0.0,0.0,0.0,0.0,0.0,0.0,0.0,0.0,0.0,0.0,0.0,0.0,0.0,0.0,0.0,0.0,0.0,0.0,0.0,0.0,0.0,0.0,0.0,0.0,0.0,0.0,0.0,0.0,0.0,0.0,0.0,0.0,0.0,0.0,0.0,0.0,0.0,0.0,0.0,0.0,0.0,0.0,0.0,0.0,0.0,0.0,0.0,0.0,0.0,0.0,0.0,0.0,0.0,0.0,0.0,0.0,0.0,0.0,0.0,0.0,0.0,0.0,0.0,0.0,0.0,0.0,0.0,0.0,0.0,0.0,0.0,0.0,0.0,0.0,0.0,0.0,0.0,0.0,0.0,0.0,0.0,0.0,0.0,0.0,0.0,0.0,0.0,0.0,0.0,0.0,0.0,0.0,0.0,0.0,0.0,0.0,0.0,0.0,0.0,0.0,0.0,0.0,0.0,0.0,0.0,0.0,0.0,0.0,0.0,0.0,0.0,0.0,0.0,0.0,0.0,0.0,0.0,0.0,0.0,0.0,0.0,0.0,0.0,0.0,0.0,0.0,0.0,0.0,0.0,0.0,0.0,0.0,0.0,0.0,0.0,0.0,0.0,0.0,0.0,0.0,0.0,0.0,0.0,0.0,0.0,0.0,0.0,0.0,0.0,0.0,0.0,0.0,0.0,0.0,0.0,0.0,0.0,0.0,0.0,0.0,-4.7999,0.0,0.0,0.0,0.0,0.0,0.0,0.0,0.0,0.0,0.0,0.0,0.0,0.0,0.0,0.0,0.0,0.0,0.0,0.0,0.0,0.0,0.0,0.0,0.0,0.0,0.0,0.0,0.0,0.0,0.0,0.0,0.0,0.0,0.0,0.0,0.0,0.0,0.0,0.0,0.0,0.0,0.0,0.0,0.0,0.0,0.0,0.0,0.0,0.0,0.0,0.0,0.0,0.0,0.0,0.0,0.0,0.0,0.0,0.0,0.0,0.0,0.0,0.0,0.0,0.0,0.0,0.0,0.0,0.0,0.0,0.0,0.0,0.0,0.0,0.0,0.0,0.0,0.0,0.0,0.0,0.0,0.0,0.0,0.0,0.0,0.0,0.0,0.0,0.0,0.0,0.0,0.0,0.0,0.0,0.0,0.0,0.0,0.0,0.0,0.0,0.0,0.0,0.0,0.0,0.0,0.0,0.0,0.0,0.0,0.0,0.0,0.0,0.0,0.0,0.0,0.0,-4.8568,0.0,0.0,0.0,0.0,0.0,0.0,0.0,0.0,0.0,0.0,0.0,0.0,0.0,0.0,0.0,0.0,0.0,0.0,0.0,0.0,0.0,0.0,0.0,0.0,0.0,0.0,0.0,0.0,0.0,0.0,0.0,0.0,0.0,0.0,0.0,0.0,0.0,0.0,0.0,0.0,0.0,0.0,0.0,0.0,0.0,0.0,0.0,0.0,0.0,0.0,0.0,0.0,0.0,0.0,0.0,0.0,0.0,0.0,0.0,0.0,0.0,0.0,0.0,0.0,0.0,0.0,0.0,0.0,0.0,0.0,0.0,0.0,0.0,0.0,0.0,0.0,0.0,0.0,0.0,0.0,0.0,0.0,0.0,0.0,0.0,0.0,0.0,0.0,0.0,0.0,0.0,0.0,0.0,0.0,0.0,0.0,0.0,0.0,0.0,0.0,0.0,0.0,0.0,0.0,0.0,0.0,0.0,0.0,0.0,-5.2539,-5.2802,-5.2802,-5.2088,-5.0738,-5.0282,-4.9722,-4.8909,0.0,0.0,0.0,0.0,0.0,0.0,0.0,0.0,0.0,0.0,0.0,0.0,0.0,0.0,0.0,0.0,0.0,0.0,0.0,0.0,0.0,0.0,0.0,0.0,0.0,0.0,0.0,0.0,0.0,0.0,0.0,0.0,0.0,0.0,0.0,0.0,0.0,0.0,0.0,0.0,0.0,0.0,0.0,0.0,0.0,0.0,0.0,0.0,0.0,0.0,0.0,0.0,0.0,0.0,0.0,0.0,0.0,0.0,0.0,0.0,0.0,0.0,0.0,0.0,0.0,0.0,0.0,0.0,0.0,0.0,0.0,0.0,0.0,0.0,0.0,0.0,0.0,0.0,0.0,0.0,0.0,0.0,0.0,0.0,0.0,0.0,0.0,-4.8714,-4.956,0.0,0.0,0.0,0.0,0.0,0.0,0.0,0.0,0.0,0.0,0.0,0.0,0.0,0.0,-5.3565,-5.428,-5.4189,-5.3266,-5.3151,-5.2467,-5.1295,-5.1295,-5.0782,-4.9879,-4.9818,0.0,-4.7902,-4.6583,0.0,0.0,0.0,0.0,0.0,0.0,0.0,0.0,0.0,0.0,0.0,0.0,0.0,0.0,0.0,0.0,0.0,0.0,0.0,0.0,0.0,0.0,0.0,0.0,0.0,0.0,0.0,0.0,0.0,0.0,0.0,0.0,0.0,0.0,0.0,0.0,0.0,0.0,0.0,0.0,0.0,0.0,0.0,0.0,0.0,0.0,0.0,0.0,0.0,0.0,0.0,0.0,0.0,0.0,0.0,0.0,0.0,0.0,0.0,0.0,0.0,0.0,0.0,0.0,0.0,0.0,0.0,0.0,0.0,0.0,0.0,0.0,0.0,0.0,0.0,0.0,0.0,0.0,0.0,0.0,0.0,0.0,0.0,0.0,0.0,-4.868,-5.0676,-5.186,-5.098,-5.0236,0.0,0.0,0.0,0.0,0.0,0.0,0.0,0.0,0.0,-5.3083,-5.3453,-5.3732,-5.4036,-5.4704,-5.4824,-5.4311,-5.3499,-5.2726,-5.2076,-5.1258,-5.0187,-4.9018,-4.9018,-4.8243,-4.6922,-4.6622,-4.5288,-4.3256,0.0,0.0,0.0,0.0,0.0,-4.1182,0.0,0.0,0.0,0.0,0.0,0.0,0.0,0.0,0.0,0.0,0.0,0.0,0.0,0.0,0.0,0.0,0.0,0.0,0.0,0.0,0.0,0.0,0.0,0.0,0.0,0.0,0.0,0.0,0.0,0.0,0.0,0.0,0.0,0.0,0.0,0.0,0.0,0.0,0.0,0.0,0.0,0.0,0.0,0.0,0.0,0.0,0.0,0.0,0.0,0.0,0.0,0.0,0.0,0.0,0.0,0.0,0.0,0.0,0.0,0.0,0.0,0.0,0.0,0.0,0.0,0.0,0.0,0.0,0.0,0.0,0.0,0.0,0.0,0.0,0.0,0.0,0.0,-5.0439,-5.2063,-5.3585,-5.2505,-5.1631,0.0,0.0,0.0,0.0,0.0,0.0,-5.2618,-5.3272,-5.3729,-5.3913,-5.4092,-5.4281,-5.4461,-5.494,-5.5179,-5.5179,-5.3675,-5.2804,-5.2348,-5.0823,-4.9338,-4.7919,-4.7919,-4.7324,-4.6285,-4.6475,-4.563,-4.4113,-4.254,-4.1379,-4.0651,-4.1605,-4.1902,-4.2183,0.0,0.0,0.0,0.0,0.0,0.0,0.0,0.0,0.0,0.0,0.0,0.0,0.0,0.0,0.0,0.0,0.0,0.0,0.0,0.0,0.0,0.0,0.0,0.0,0.0,0.0,0.0,0.0,0.0,0.0,0.0,0.0,0.0,0.0,0.0,0.0,0.0,0.0,0.0,0.0,0.0,0.0,0.0,0.0,0.0,0.0,0.0,0.0,0.0,0.0,0.0,0.0,0.0,0.0,0.0,0.0,0.0,0.0,0.0,0.0,0.0,0.0,0.0,0.0,0.0,0.0,0.0,0.0,0.0,0.0,0.0,0.0,0.0,0.0,0.0,0.0,0.0,0.0,0.0,-5.4363,-5.3523,0.0,0.0,0.0,0.0,-5.2093,-5.3083,-5.3709,-5.3709,-5.3412,-5.3511,-5.4171,-5.4162,-5.4521,-5.5119,-5.5179,-5.5179,-5.5179,-5.3675,-5.2213,-5.0768,-4.9281,-4.7802,-4.6421,-4.6421,-4.6361,-4.6276,-4.5792,-4.5187,-4.45,-4.389,-4.3313,-4.2886,-4.3463,-4.3664,-4.384,0.0,0.0,0.0,0.0,0.0,0.0,0.0,0.0,0.0,0.0,0.0,0.0,0.0,0.0,0.0,0.0,0.0,0.0,0.0,0.0,0.0,0.0,0.0,0.0,0.0,0.0,0.0,0.0,0.0,0.0,0.0,0.0,0.0,0.0,0.0,0.0,0.0,0.0,0.0,0.0,0.0,0.0,0.0,0.0,0.0,0.0,0.0,0.0,0.0,0.0,0.0,0.0,0.0,0.0,0.0,0.0,0.0,0.0,0.0,0.0,0.0,0.0,0.0,0.0,0.0,0.0,0.0,0.0,0.0,0.0,0.0,0.0,0.0,0.0,0.0,0.0,0.0,0.0,0.0,-5.4436,-5.4743,0.0,0.0,-5.3735,-5.3234,-5.3234,-5.3744,-5.4074,-5.4074,-5.4349,-5.4581,-5.485,-5.485,-5.497,-5.5179,-5.4252,-5.3808,-5.3756,-5.1291,-4.9791,-4.9251,-4.8132,-4.7288,-4.6853,-4.7179,-4.733,-4.733,-4.7129,-4.6301,-4.5196,-4.5347,-4.507,-4.4694,-4.5623,-4.5949,-4.587,0.0,0.0,0.0,0.0,0.0,0.0,0.0,0.0,0.0,0.0,0.0,0.0,0.0,0.0,0.0,0.0,0.0,0.0,0.0,0.0,0.0,0.0,0.0,0.0,0.0,0.0,0.0,0.0,0.0,0.0,0.0,0.0,0.0,0.0,0.0,0.0,0.0,0.0,0.0,0.0,0.0,0.0,-3.3244,0.0,0.0,0.0,0.0,0.0,0.0,0.0,0.0,0.0,0.0,0.0,0.0,0.0,0.0,0.0,0.0,0.0,0.0,0.0,0.0,0.0,0.0,0.0,0.0,0.0,0.0,0.0,0.0,0.0,0.0,0.0,0.0,0.0,0.0,0.0,-5.4569,-5.4717,-5.5301,-5.5579,-5.5241,-5.4435,-5.3926,-5.3926,-5.4334,-5.4551,-5.4551,-5.497,-5.5179,-5.5179,-5.5179,-5.5179,-5.5179,-5.3756,-5.3078,-5.3226,-5.0202,-4.8869,-4.9021,-4.7911,-4.738,-4.7405,-4.7757,-4.7908,-4.7908,-4.7908,-4.728,-4.6351,-4.6702,-4.6627,-4.6316,-4.6427,-4.6886,-4.7183,0.0,0.0,0.0,0.0,0.0,0.0,0.0,0.0,0.0,0.0,0.0,0.0,0.0,0.0,0.0,0.0,0.0,0.0,0.0,0.0,0.0,0.0,0.0,0.0,0.0,0.0,0.0,0.0,0.0,0.0,0.0,0.0,0.0,0.0,0.0,0.0,0.0,0.0,0.0,0.0,0.0,0.0,-3.3922,0.0,0.0,0.0,0.0,0.0,0.0,0.0,0.0,0.0,0.0,0.0,0.0,0.0,0.0,0.0,0.0,0.0,0.0,0.0,0.0,0.0,0.0,0.0,0.0,0.0,0.0,0.0,0.0,0.0,0.0,0.0,0.0,0.0,-5.0937,-5.3013,-5.4613,-5.5282,-5.5117,-5.4946,-5.49,-5.4486,-5.4251,-5.4251,-5.482,-5.5179,-5.5179,-5.5179,-5.5179,-5.5179,-5.5209,-5.5209,-5.5158,-5.3733,-5.3231,-5.3643,-5.0685,-4.9574,-5.0093,-4.8564,-4.7933,-4.7933,-4.7958,-4.7958,-4.7958,-4.7958,-4.7958,-4.7958,-4.7933,-4.7933,-4.7746,-4.5926,-4.6333,-4.7432,0.0,0.0,0.0,0.0,0.0,0.0,0.0,0.0,0.0,0.0,0.0,0.0,0.0,0.0,0.0,0.0,0.0,0.0,0.0,0.0,0.0,0.0,0.0,0.0,0.0,0.0,0.0,0.0,0.0,0.0,0.0,0.0,0.0,0.0,0.0,0.0,0.0,0.0,0.0,0.0,0.0,0.0,-3.5676,0.0,0.0,0.0,0.0,0.0,0.0,0.0,0.0,0.0,0.0,0.0,0.0,0.0,0.0,0.0,0.0,0.0,0.0,0.0,0.0,0.0,0.0,0.0,0.0,0.0,0.0,0.0,0.0,0.0,0.0,0.0,0.0,-5.0938,-5.2033,-5.4333,-5.5563,-5.463,-5.5653,-5.6084,-5.5175,-5.499,-5.491,-5.491,-5.5089,-5.5179,-5.5179,-5.5179,-5.5179,-5.5179,-5.5658,-5.5323,-5.4216,-5.3185,-5.2178,-5.1161,-4.9256,-4.8411,-4.8502,-4.8523,-4.8535,-4.856,-4.8962,-4.9138,-4.9138,-4.9138,-4.9138,-4.9088,-4.8686,-4.8535,-4.8371,-4.693,-4.4951,-4.3259,0.0,0.0,0.0,0.0,0.0,0.0,0.0,0.0,0.0,0.0,0.0,0.0,0.0,0.0,0.0,0.0,0.0,0.0,0.0,0.0,0.0,0.0,0.0,0.0,0.0,0.0,0.0,0.0,0.0,0.0,0.0,0.0,0.0,0.0,0.0,0.0,0.0,0.0,0.0,0.0,0.0,0.0,-3.6732,-3.6358,-3.6031,-3.5655,-3.4776,-3.4474,-3.4368,-3.3545,0.0,0.0,0.0,0.0,0.0,0.0,0.0,0.0,0.0,0.0,0.0,0.0,0.0,0.0,0.0,0.0,0.0,0.0,0.0,0.0,0.0,0.0,0.0,0.0,-5.093,-5.2407,-5.3537,-5.4992,-5.5639,-5.47,-5.5577,-5.5967,-5.528,-5.5179,-5.5179,-5.5179,-5.5179,-5.5179,-5.5179,-5.5448,-5.5598,-5.5598,-5.6226,-5.5818,-5.4233,-5.3079,-5.1836,-5.0496,-4.8982,-4.8385,-4.8636,-4.8962,-4.9113,0.0,-4.9464,-4.959,-4.959,-4.959,-4.959,0.0,0.0,0.0,0.0,0.0,-4.3335,-4.0443,0.0,0.0,0.0,0.0,0.0,0.0,0.0,0.0,0.0,0.0,0.0,0.0,0.0,0.0,0.0,0.0,0.0,0.0,0.0,0.0,0.0,0.0,-3.0934,0.0,0.0,0.0,0.0,0.0,0.0,0.0,0.0,0.0,0.0,0.0,0.0,0.0,0.0,0.0,0.0,0.0,0.0,0.0,-3.7287,-3.7362,-3.7387,-3.7312,-3.6784,-3.6584,-3.643,-3.5353,0.0,0.0,0.0,0.0,0.0,0.0,0.0,0.0,0.0,0.0,0.0,0.0,0.0,0.0,0.0,0.0,0.0,0.0,0.0,0.0,0.0,0.0,0.0,0.0,-5.2486,-5.3743,-5.4999,-5.5179,-5.5179,-5.5179,-5.5179,-5.5179,-5.5179,-5.5179,-5.5179,-5.5179,-5.5179,-5.5209,-5.5299,0.0,0.0,0.0,0.0,-5.6201,-5.4675,-5.3216,-5.1895,-5.0795,-4.9506,-4.9113,-4.959,-4.959,-4.959,-4.959,-4.9665,-4.969,-4.969,-4.9766,-4.9636,-4.9352,-4.7828,-4.696,-4.6358,-4.4869,-4.1919,0.0,0.0,0.0,0.0,0.0,0.0,0.0,0.0,0.0,0.0,0.0,0.0,0.0,0.0,0.0,0.0,0.0,0.0,0.0,0.0,0.0,-2.9955,-3.1035,-3.1712,-3.2315,0.0,0.0,0.0,0.0,0.0,0.0,0.0,0.0,0.0,0.0,0.0,0.0,0.0,0.0,0.0,0.0,0.0,0.0,-3.7889,-3.8366,-3.8592,-3.8467,-3.7889,-3.7688,-3.7588,-3.6935,-3.6709,-3.6584,-3.5977,0.0,0.0,0.0,0.0,0.0,0.0,0.0,0.0,0.0,0.0,0.0,0.0,0.0,0.0,0.0,0.0,0.0,0.0,0.0,0.0,-5.2456,-5.3473,-5.4281,-5.5089,-5.5179,-5.5179,-5.5179,-5.5179,-5.5179,-5.5179,-5.5179,-5.5179,-5.5179,-5.5179,-5.5418,-5.6008,-5.6158,0.0,-5.6885,-5.6393,-5.5278,-5.3687,-5.2626,-5.1328,-4.9862,0.0,0.0,-4.959,-4.959,-4.959,-4.9615,-5.0067,-5.0268,-5.0293,-5.077,-5.0097,-4.8763,-4.9446,-4.7801,-4.5138,-4.5287,-4.2894,-3.9704,0.0,0.0,0.0,0.0,0.0,0.0,0.0,0.0,0.0,0.0,0.0,0.0,0.0,0.0,0.0,0.0,0.0,0.0,0.0,-2.988,-3.0683,-3.1763,-3.234,-3.2792,0.0,0.0,0.0,0.0,0.0,0.0,0.0,0.0,0.0,0.0,0.0,0.0,0.0,0.0,0.0,0.0,0.0,0.0,-3.809,-3.8969,-3.927,-3.9245,-3.8944,-3.8843,-3.8768,-3.8216,-3.8015,-3.7914,-3.7362,-3.6609,-3.5956,0.0,0.0,0.0,0.0,0.0,0.0,0.0,0.0,0.0,0.0,0.0,0.0,0.0,0.0,-4.7788,0.0,0.0,-5.2157,-5.3473,-5.4251,-5.482,-5.5149,-5.5179,-5.5179,-5.5179,-5.5179,-5.5179,-5.5179,-5.5179,-5.5179,-5.5179,-5.5508,-5.5837,-5.6166,-5.6795,-5.7304,-5.7603,-5.668,-5.551,-5.3917,-5.26,-5.1205,-4.959,-4.959,-4.9741,-5.0017,-5.0017,-5.0167,-5.0444,-5.072,-5.0845,-5.087,-5.1172,-5.0779,-4.9989,-5.0913,-4.818,-4.3673,-4.3013,-4.1542,-3.9902,0.0,0.0,0.0,0.0,0.0,0.0,0.0,0.0,0.0,0.0,0.0,0.0,0.0,0.0,0.0,0.0,0.0,0.0,0.0,-3.0407,-3.126,-3.234,-3.2817,-3.3111,-3.3111,0.0,0.0,0.0,0.0,0.0,0.0,0.0,0.0,0.0,0.0,0.0,0.0,0.0,0.0,0.0,0.0,0.0,-3.8115,-3.9145,-3.9597,-3.9672,-3.9572,-3.9546,-3.9471,-3.907,-3.8919,-3.8818,-3.8442,-3.7965,-3.7513,-3.7513,-3.7186,0.0,0.0,0.0,0.0,0.0,0.0,0.0,0.0,0.0,-4.6441,-4.7788,-4.9015,-5.0242,-5.1558,-5.2665,-5.3593,-5.4281,-5.485,-5.5179,-5.5179,-5.5179,-5.5179,-5.5179,-5.5179,-5.5179,-5.5179,-5.5179,-5.5239,-5.5359,-5.5867,-5.6286,-5.6526,-5.7543,-5.8171,-5.8321,-5.6955,-5.5676,-5.4386,-5.2455,-5.0968,-4.9766,-4.9766,-5.0042,-5.0569,-5.0569,-5.0845,-5.1297,-5.1398,-5.1498,-5.1599,-5.1599,-5.1599,-5.1649,-5.1644,-4.8662,-4.3988,-4.2435,-4.1358,-4.0777,0.0,0.0,0.0,0.0,0.0,0.0,0.0,0.0,0.0,0.0,0.0,0.0,0.0,0.0,0.0,0.0,0.0,0.0,0.0,-3.0733,-3.1813,-3.2943,-3.3043,-3.3111,-3.3111,0.0,0.0,0.0,0.0,0.0,0.0,0.0,0.0,0.0,0.0,0.0,0.0,0.0,0.0,0.0,0.0,0.0,-3.8065,-3.8718,-3.927,-3.9622,-3.9145,-3.902,-3.8994,-3.8944,-3.8919,-3.8994,-3.9371,-3.912,-3.8743,-3.8743,0.0,-3.8718,-3.9346,-3.9873,-4.0512,-4.1869,-4.2722,-4.3724,0.0,0.0,-4.9239,-5.0511,-5.1379,-5.2276,-5.3623,-5.4012,-5.4311,-5.497,-5.5149,-5.5179,-5.5179,-5.5179,-5.5179,-5.5179,-5.5179,-5.5179,-5.5179,-5.5179,-5.5448,-5.6068,-5.6188,-5.6675,-5.7842,-5.8052,-5.8381,-5.8979,-5.6194,-5.4564,-5.4386,-5.1393,-5.001,-5.0318,-5.0318,-5.0619,-5.1197,-5.1197,-5.1222,-5.1297,-5.18,-5.2302,-5.2754,-5.2754,-5.2754,-5.2523,-5.0901,-4.9771,-4.9132,-4.8918,-4.6653,-4.3874,0.0,0.0,0.0,0.0,0.0,0.0,0.0,0.0,0.0,0.0,0.0,0.0,0.0,0.0,0.0,0.0,0.0,0.0,-2.9679,-3.0783,-3.1888,-3.3061,-3.3111,-3.3111,-3.3111,0.0,0.0,0.0,0.0,0.0,0.0,0.0,0.0,0.0,0.0,0.0,0.0,0.0,0.0,0.0,0.0,0.0,-3.8065,-3.8642,-3.907,-3.9195,-3.8994,-3.8442,0.0,0.0,-3.8165,-3.799,-3.8542,-3.8542,-3.8442,-3.8768,-3.9094,0.0,-4.0855,-4.1304,0.0,0.0,-4.3322,-4.3913,-4.6166,-4.7989,-4.9695,-5.1344,-5.2576,-5.3653,-5.461,-5.479,-5.488,0.0,-5.5179,-5.5179,-5.5179,-5.5179,-5.5179,-5.5179,-5.5179,-5.5179,-5.5179,-5.5538,-5.5867,-5.6188,-5.6885,-5.7543,-5.8082,-5.8501,-5.8392,-5.7719,-5.556,-5.4074,-5.3455,-5.1216,-5.0368,-5.0921,-5.0921,-5.1222,-5.1749,-5.1749,-5.1925,-5.2251,-5.2477,-5.2703,-5.2929,-5.2929,-5.2929,-5.2792,-5.205,-5.1677,-5.1373,-4.9081,-4.7175,-4.5923,0.0,0.0,0.0,0.0,0.0,0.0,0.0,0.0,0.0,0.0,0.0,0.0,0.0,0.0,0.0,0.0,0.0,0.0,0.0,-3.0482,-3.1662,-3.2792,-3.2993,0.0,-3.3111,-3.3111,0.0,0.0,0.0,0.0,0.0,0.0,0.0,0.0,0.0,0.0,0.0,0.0,0.0,0.0,0.0,0.0,-3.7839,-3.8241,-3.8366,-3.824,-3.8391,-3.7688,0.0,0.0,-3.696,-3.6634,-3.7337,-3.7563,-3.7663,-3.8241,-3.912,-4.0249,-4.181,0.0,0.0,-4.356,-4.3886,-4.4467,-4.6538,-4.8224,-4.9915,-5.1851,-5.2675,-5.3296,-5.4205,-5.4345,0.0,-5.4345,-5.4827,-5.5179,-5.5179,-5.5179,-5.5179,-5.5179,-5.5359,-5.5478,-5.5478,-5.5948,-5.6368,-5.6675,-5.7573,-5.8201,-5.8381,-5.886,-5.8386,-5.6736,-5.5379,-5.4045,-5.2833,-5.1368,-5.0946,-5.1498,-5.1498,-5.18,-5.2327,-5.2327,-5.2553,-5.2929,-5.2929,-5.2929,-5.2929,-5.2929,-5.2929,-5.2929,-5.2929,-5.2929,-5.256,-4.9677,-4.8289,-4.7927,0.0,0.0,0.0,0.0,0.0,0.0,0.0,0.0,0.0,0.0,0.0,0.0,0.0,0.0,0.0,0.0,0.0,0.0,0.0,-2.9704,-3.111,-3.219,-3.2767,-3.3111,-3.3111,-3.3111,0.0,0.0,0.0,0.0,0.0,0.0,0.0,0.0,0.0,0.0,0.0,0.0,0.0,0.0,0.0,0.0,-3.7211,-3.7236,-3.6958,-3.6556,-3.7036,0.0,0.0,0.0,-3.5207,-3.4977,-3.6103,-3.6433,0.0,-3.7086,-3.8793,0.0,0.0,0.0,-4.3017,-4.2992,-4.4458,-4.6024,-4.6742,-4.8354,-5.0291,-5.2525,-5.1381,-5.0449,-5.1932,-5.2168,-5.2168,-5.2168,-5.3861,-5.5179,-5.5179,-5.5179,-5.5179,-5.5179,-5.5748,-5.6188,0.0,-5.6218,-5.6705,-5.7962,-5.8112,-5.8411,-5.9039,-5.9099,-5.8386,-5.6736,-5.5712,-5.4393,-5.2833,-5.1776,-5.1523,-5.2076,-5.2076,-5.2377,-5.2904,-5.2904,-5.2904,-5.2929,-5.2929,-5.2929,-5.2929,-5.2929,-5.2929,-5.2929,-5.2929,-5.2929,-5.2861,-5.2792,-5.1513,-5.0198,0.0,0.0,0.0,0.0,0.0,0.0,0.0,0.0,0.0,0.0,0.0,0.0,0.0,0.0,0.0,0.0,0.0,0.0,0.0,-2.8775,-2.9941,-3.111,-3.1662,-3.1964,-3.1964,-3.1964,0.0,0.0,0.0,0.0,0.0,0.0,0.0,0.0,0.0,0.0,0.0,0.0,0.0,0.0,0.0,0.0,-3.606,-3.606,-3.5755,-3.5253,0.0,0.0,0.0,0.0,0.0,0.0,-3.45,0.0,0.0,-3.7236,-3.9044,-4.0752,0.0,0.0,-4.2986,-4.2986,-4.3756,-4.4653,-4.5272,-4.69,-4.8588,-4.9334,-4.9694,-4.9961,-5.0051,-5.0101,-5.0558,-5.1897,-5.2704,-5.362,-5.5018,-5.5179,-5.5179,-5.5179,-5.5777,0.0,0.0,0.0,0.0,-5.8082,-5.853,-5.886,-5.9099,-5.9099,-5.8036,-5.5771,-5.5372,-5.4305,-5.2338,-5.1967,-5.2101,-5.2653,-5.2653,-5.2754,-5.2929,-5.2929,-5.2929,-5.2929,-5.2929,-5.2929,-5.2929,-5.2929,-5.2929,-5.2955,-5.3306,-5.3432,-5.3482,-5.3884,-5.3632,-5.3063,0.0,0.0,0.0,0.0,0.0,0.0,0.0,0.0,0.0,0.0,0.0,0.0,0.0,0.0,0.0,0.0,0.0,0.0,0.0,0.0,-2.875,-2.9679,-3.0432,-3.0809,-3.0809,-3.0809,0.0,0.0,0.0,0.0,0.0,0.0,0.0,0.0,0.0,0.0,0.0,0.0,0.0,0.0,0.0,0.0,-3.463,-3.463,-3.4324,0.0,0.0,0.0,0.0,0.0,0.0,0.0,0.0,-3.455,-3.5655,-3.7487,-3.9195,-4.0752,-4.1911,-4.2615,-4.2986,-4.2986,-4.3539,-4.4192,-4.4543,-4.593,-4.7262,-4.76,-4.7711,-4.7701,-4.7701,-4.7535,-4.7908,-4.9386,-5.044,-5.1765,-5.3781,-5.4259,-5.473,-5.5457,-5.6107,0.0,0.0,0.0,0.0,-5.8471,-5.886,-5.8852,-5.8276,-5.8427,-5.7254,-5.4454,-5.4766,-5.4028,-5.2101,-5.2302,-5.2578,-5.2929,-5.2929,-5.2929,-5.2929,-5.2929,-5.2929,-5.2929,-5.2929,-5.2929,-5.2929,-5.313,-5.3206,-5.3256,-5.3808,-5.4009,-5.4059,-5.4436,-5.4687,-5.4787,0.0,0.0,0.0,0.0,0.0,0.0,0.0,0.0,0.0,0.0,0.0,0.0,0.0,0.0,0.0,0.0,0.0,0.0,0.0,0.0,0.0,-2.7946,-2.9026,-2.9628,-2.9628,-2.9628,0.0,0.0,0.0,0.0,0.0,0.0,0.0,0.0,0.0,0.0,0.0,0.0,0.0,0.0,0.0,0.0,-3.2943,-3.2943,0.0,0.0,0.0,0.0,0.0,0.0,0.0,0.0,0.0,0.0,-3.6707,-3.7739,-3.9245,-4.0802,-4.1911,-4.2615,-4.2986,-4.2986,-4.379,-4.4593,-4.4593,-4.5447,-4.6442,-4.7288,-4.5474,-4.399,0.0,0.0,-4.4415,-4.505,-4.7295,-4.9643,-5.1713,-5.2478,-5.3698,0.0,0.0,0.0,0.0,0.0,0.0,-5.8991,0.0,-5.8331,-5.6792,-5.7168,-5.6076,-5.2949,-5.3956,-5.3737,-5.2151,-5.2678,-5.2929,-5.2929,-5.2929,-5.2929,-5.2929,-5.2929,-5.2929,-5.2929,-5.2955,-5.298,-5.3005,-5.3532,-5.3758,-5.3808,-5.4386,-5.4612,-5.4612,-5.4637,-5.4988,-5.5365,0.0,0.0,0.0,0.0,0.0,0.0,0.0,0.0,0.0,0.0,0.0,0.0,0.0,0.0,0.0,0.0,0.0,0.0,0.0,0.0,0.0,0.0,0.0,0.0,0.0,0.0,0.0,0.0,0.0,0.0,0.0,0.0,0.0,0.0,0.0,0.0,0.0,0.0,0.0,0.0,0.0,0.0,-3.1235,0.0,0.0,0.0,0.0,0.0,0.0,0.0,0.0,0.0,0.0,-3.6257,-3.7739,-3.8442,-3.9823,-4.1279,-4.2011,-4.2615,-4.2986,-4.2986,-4.3489,-4.4016,-4.4016,-4.4543,-4.4885,-4.4275,-4.3644,-4.2871,0.0,0.0,0.0,-4.4309,-4.5849,0.0,-5.0095,-5.0926,0.0,0.0,0.0,-5.6187,-5.7945,-5.871,0.0,0.0,-5.7328,-5.7131,-5.6736,-5.6124,-5.5038,-5.3467,-5.4076,-5.3944,-5.2703,-5.2854,-5.2929,-5.2929,-5.2929,-5.2929,-5.2929,-5.2929,-5.2929,-5.2955,-5.3331,-5.3507,-5.3557,-5.411,-5.4336,-5.4411,-5.4963,-5.5189,-5.5239,-5.5641,-5.5892,-5.5993,0.0,0.0,0.0,0.0,0.0,0.0,0.0,0.0,0.0,0.0,0.0,0.0,0.0,0.0,0.0,0.0,0.0,0.0,0.0,0.0,0.0,0.0,0.0,0.0,0.0,0.0,0.0,0.0,0.0,0.0,0.0,0.0,0.0,0.0,0.0,0.0,0.0,0.0,0.0,0.0,0.0,0.0,0.0,0.0,0.0,0.0,0.0,0.0,0.0,0.0,0.0,-3.4781,-3.5906,-3.7412,-3.8919,-3.9722,0.0,-4.1806,-4.2414,-4.2791,-4.3037,-4.3288,-4.3564,-4.3865,-4.4116,-4.4217,-4.4016,-4.3162,-4.2409,0.0,0.0,0.0,0.0,0.0,0.0,0.0,-4.7839,-4.8897,-5.0629,0.0,-5.4659,0.0,-5.828,-5.8233,-5.7664,0.0,-5.6736,-5.6137,-5.4713,-5.4582,-5.393,-5.2595,-5.3355,-5.3503,-5.2929,-5.2929,-5.2929,-5.2929,-5.2929,-5.2929,-5.2929,-5.2929,-5.3055,-5.3281,0.0,-5.3858,-5.4135,-5.4687,-5.4938,-5.4988,-5.5541,-5.5742,-5.5792,-5.6093,-5.6219,-5.6219,0.0,0.0,0.0,0.0,0.0,0.0,0.0,0.0,0.0,0.0,0.0,0.0,0.0,0.0,0.0,0.0,0.0,0.0,0.0,0.0,0.0,0.0,0.0,0.0,0.0,0.0,0.0,0.0,0.0,0.0,0.0,0.0,0.0,0.0,0.0,0.0,0.0,0.0,0.0,0.0,0.0,0.0,0.0,0.0,0.0,0.0,0.0,0.0,0.0,0.0,-3.4173,-3.5809,-3.6935,-3.8492,-4.0099,-4.1,-4.1781,-4.2414,-4.2836,-4.2986,-4.3112,-4.3664,-4.374,-4.3815,-4.4292,-4.3915,-4.3288,-4.266,0.0,-4.0124,-3.9572,0.0,-3.9095,-3.9597,0.0,-4.2979,-4.5273,-4.6672,-4.9123,-5.3637,-5.4448,-5.5684,-5.8515,-5.7496,-5.6622,-5.6423,-5.6194,-5.4918,-5.2253,-5.287,-5.2737,-5.1565,-5.2427,-5.2929,-5.2929,-5.2929,-5.2929,-5.2929,-5.2929,-5.2929,-5.2929,-5.2929,-5.3206,-5.3708,0.0,0.0,-5.4712,-5.5265,-5.5491,-5.5541,-5.6018,-5.6219,-5.6219,-5.6219,-5.6219,-5.6219,0.0,0.0,0.0,0.0,0.0,0.0,0.0,0.0,0.0,0.0,-2.3514,-2.3095,0.0,0.0,0.0,0.0,0.0,0.0,0.0,0.0,0.0,0.0,0.0,0.0,0.0,0.0,0.0,0.0,0.0,0.0,0.0,0.0,0.0,0.0,0.0,0.0,0.0,0.0,0.0,0.0,0.0,0.0,0.0,0.0,0.0,0.0,0.0,0.0,0.0,0.0,-3.4098,-3.6458,-3.7513,-3.9346,-4.105,-4.1225,-4.2057,-4.2861,-4.2961,-4.2986,-4.3112,-4.3664,-4.3463,-4.3137,-4.3237,-4.2484,0.0,0.0,0.0,-3.8969,-3.8391,-3.8617,0.0,-3.9597,0.0,0.0,0.0,0.0,-4.703,0.0,0.0,0.0,0.0,0.0,0.0,0.0,0.0,0.0,-5.2675,-5.2065,-5.2009,-5.2603,-5.2829,-5.2929,-5.2929,-5.2929,-5.2929,-5.2929,-5.2929,-5.2929,-5.2929,-5.2929,-5.3206,-5.3733,0.0,0.0,-5.529,-5.5842,-5.6068,-5.6068,-5.6168,-5.6219,-5.6219,-5.6219,-5.6219,-5.6219,0.0,0.0,0.0,0.0,0.0,0.0,0.0,-2.5273,-2.4279,-2.4279,-2.3603,-2.3095,-2.3095,-2.3095,0.0,0.0,0.0,0.0,0.0,0.0,0.0,0.0,0.0,0.0,0.0,0.0,0.0,0.0,0.0,0.0,0.0,0.0,0.0,0.0,0.0,0.0,0.0,0.0,0.0,0.0,0.0,0.0,0.0,0.0,0.0,0.0,0.0,0.0,0.0,0.0,-3.3495,-3.5403,-3.7061,-3.8919,-4.0601,-4.1125,-4.1907,-4.2665,-4.2911,-4.2986,-4.3187,-4.4016,-4.3589,-4.3062,-4.3338,0.0,0.0,0.0,0.0,-3.799,-3.799,0.0,0.0,0.0,0.0,0.0,0.0,0.0,0.0,0.0,0.0,0.0,0.0,0.0,0.0,0.0,0.0,0.0,-5.1524,-5.1687,-5.2076,-5.2904,-5.2929,-5.2929,-5.2929,-5.2929,-5.2929,-5.2929,-5.2929,-5.2929,-5.2929,-5.2929,-5.3381,-5.416,-5.4436,0.0,-5.5842,-5.6093,-5.6219,-5.6219,-5.6219,-5.6219,-5.6219,-5.6219,-5.6219,-5.6219,0.0,0.0,0.0,0.0,0.0,0.0,0.0,-2.5467,-2.4538,-2.4538,-2.3695,-2.3095,-2.3095,-2.3095,-2.3095,0.0,0.0,0.0,0.0,0.0,0.0,0.0,0.0,0.0,0.0,0.0,0.0,0.0,0.0,0.0,0.0,0.0,0.0,0.0,0.0,0.0,0.0,0.0,0.0,0.0,0.0,0.0,0.0,0.0,0.0,0.0,0.0,0.0,0.0,0.0,-3.2692,-3.4022,-3.5755,-3.7688,-3.9521,-4.0526,-4.1379,-4.2162,-4.266,-4.2986,-4.3388,-4.4367,-4.389,-4.3237,-4.3564,-4.1932,0.0,0.0,-3.809,-3.7186,-3.7739,0.0,0.0,0.0,0.0,0.0,0.0,0.0,0.0,0.0,0.0,0.0,0.0,0.0,0.0,0.0,0.0,0.0,0.0,-5.1548,-5.2352,-5.2904,-5.2929,-5.2929,-5.2929,-5.2929,-5.2929,-5.2929,-5.2929,-5.2929,-5.2929,-5.2929,-5.3532,-5.4561,-5.4561,0.0,0.0,-5.6219,-5.6219,-5.6219,-5.6219,-5.6219,-5.6219,-5.6219,-5.6219,-5.6219,0.0,0.0,0.0,0.0,0.0,0.0,0.0,-2.6228,-2.53,-2.53,-2.4018,-2.3095,-2.3095,-2.3095,-2.3095,0.0,0.0,0.0,0.0,0.0,0.0,0.0,0.0,0.0,0.0,0.0,0.0,0.0,0.0,0.0,0.0,0.0,0.0,0.0,0.0,0.0,0.0,0.0,0.0,0.0,0.0,0.0,0.0,0.0,0.0,0.0,0.0,0.0,0.0,0.0,0.0,-3.3237,-3.3438,-3.5629,-3.8291,-3.8919,0.0,0.0,-4.2082,-4.2961,-4.3865,-4.4468,-4.4166,-4.3614,-4.3162,0.0,0.0,-3.8391,-3.7236,-3.6656,-3.7161,-3.7262,0.0,0.0,0.0,0.0,0.0,0.0,0.0,0.0,0.0,0.0,0.0,0.0,0.0,0.0,0.0,0.0,0.0,-5.1774,-5.2352,-5.2904,-5.2929,-5.2929,-5.2929,-5.2929,-5.2929,-5.2929,-5.2929,-5.2929,-5.2929,-5.2929,-5.3532,-5.4561,0.0,0.0,0.0,-5.6219,-5.6219,-5.6219,-5.6219,-5.6219,-5.6219,-5.6219,-5.6219,-5.6219,0.0,0.0,0.0,0.0,0.0,0.0,-2.7585,-2.6733,-2.6068,-2.6068,-2.4739,-2.3839,-2.3839,-2.3395,-2.3095,0.0,0.0,0.0,0.0,0.0,0.0,0.0,0.0,0.0,0.0,0.0,0.0,0.0,0.0,0.0,0.0,0.0,0.0,0.0,0.0,0.0,0.0,0.0,0.0,0.0,0.0,0.0,0.0,0.0,0.0,0.0,0.0,0.0,0.0,0.0,0.0,0.0,-3.2441,-3.4148,0.0,0.0,-3.9546,-4.1028,-4.1961,-4.2961,-4.394,-4.4493,-4.4217,-4.3664,-4.3112,0.0,0.0,-3.8241,-3.7136,-3.6581,-3.7086,-3.7186,-3.7362,0.0,0.0,0.0,0.0,0.0,0.0,0.0,0.0,0.0,0.0,0.0,0.0,0.0,0.0,0.0,0.0,0.0,-5.2352,-5.2904,-5.2929,-5.2929,-5.2929,-5.2929,-5.2929,-5.2929,-5.2929,-5.2929,-5.2929,-5.2929,-5.3331,-5.4059,0.0,0.0,0.0,-5.6068,-5.6219,-5.6219,-5.6219,-5.6219,-5.6219,-5.6219,-5.6219,-5.6219,0.0,0.0,0.0,0.0,0.0,-2.7585,-2.7585,-2.6967,-2.6416,-2.6203,-2.5077,-2.4192,-2.3959,-2.3454,-2.3095,-2.3095,0.0,0.0,0.0,0.0,0.0,0.0,0.0,0.0,0.0,0.0,-2.3195,-2.3371,0.0,0.0,0.0,0.0,0.0,0.0,0.0,0.0,0.0,0.0,0.0,0.0,0.0,0.0,0.0,0.0,0.0,0.0,0.0,0.0,0.0,0.0,0.0,0.0,0.0,0.0,0.0,0.0,-3.8592,-4.0224,-4.1232,-4.2459,-4.3639,-4.4041,-4.384,-4.3363,0.0,0.0,0.0,-3.799,-3.701,-3.6531,-3.686,-3.6935,-3.7111,-3.7688,0.0,-3.8994,0.0,0.0,0.0,0.0,0.0,0.0,0.0,0.0,0.0,0.0,0.0,0.0,0.0,0.0,-5.2176,-5.2904,-5.2929,-5.2929,-5.2929,-5.2929,-5.2929,-5.2929,-5.2929,-5.2929,-5.2929,-5.2929,-5.3206,-5.3733,0.0,0.0,0.0,-5.5817,-5.6068,-5.6219,-5.6219,-5.6219,-5.6219,-5.6219,-5.6219,-5.6219,0.0,0.0,0.0,0.0,0.0,0.0,-2.7585,-2.6967,-2.6229,-2.5522,-2.4766,-2.4015,-2.3185,-2.312,-2.3095,-2.3095,0.0,0.0,0.0,0.0,0.0,0.0,0.0,0.0,0.0,0.0,-2.3396,-2.3979,-2.4525,-2.5084,0.0,0.0,0.0,0.0,0.0,0.0,0.0,0.0,0.0,0.0,0.0,0.0,0.0,0.0,0.0,0.0,0.0,0.0,0.0,0.0,0.0,0.0,0.0,0.0,0.0,0.0,-3.7161,-3.907,-3.9572,-4.1329,-4.2986,-4.2986,-4.2986,-4.271,0.0,0.0,0.0,-3.7437,-3.6807,-3.6405,-3.6405,-3.6405,-3.6606,-3.7111,-3.7663,0.0,0.0,0.0,0.0,0.0,0.0,0.0,0.0,0.0,0.0,0.0,0.0,0.0,0.0,0.0,-5.18,-5.2904,-5.2929,-5.2929,-5.2929,-5.2929,-5.2929,-5.2929,-5.2929,-5.2929,-5.2929,-5.2929,0.0,0.0,0.0,0.0,0.0,-5.539,-5.5717,-5.6219,-5.6219,-5.6219,-5.6219,-5.6219,-5.6219,-5.6219,0.0,0.0,0.0,0.0,0.0,0.0,0.0,-2.768,-2.7178,-2.6916,-2.5823,-2.4964,-2.4682,-2.3725,-2.3095,-2.3095,0.0,0.0,0.0,0.0,0.0,0.0,0.0,0.0,0.0,0.0,-2.3828,-2.4004,-2.4908,-2.5435,-2.5611,-2.6223,-2.6499,0.0,0.0,0.0,0.0,0.0,0.0,0.0,0.0,0.0,0.0,0.0,0.0,0.0,0.0,0.0,0.0,0.0,0.0,0.0,0.0,0.0,0.0,0.0,0.0,0.0,-3.8868,-4.0475,-4.1856,-4.1856,-4.1856,-4.1681,-4.0953,0.0,0.0,-3.7337,-3.6782,-3.6405,-3.6405,-3.6405,-3.6581,-3.7086,-3.7638,0.0,0.0,0.0,0.0,0.0,0.0,0.0,0.0,0.0,0.0,0.0,0.0,0.0,0.0,0.0,-5.1197,-5.2327,-5.2729,-5.2929,-5.2929,-5.2929,-5.2929,-5.2929,-5.2929,-5.2929,-5.2929,-5.2929,0.0,0.0,0.0,0.0,0.0,-5.4662,-5.4938,-5.5114,-5.5491,-5.5641,-5.5691,-5.6068,-5.6219,-5.6219,0.0,0.0,0.0,0.0,0.0,0.0,0.0,-2.8633,-2.823,-2.7938,-2.6831,-2.596,-2.5673,-2.452,-2.3747,-2.3747,0.0,0.0,0.0,0.0,0.0,0.0,0.0,0.0,-2.3421,-2.3828,-2.4205,-2.4607,-2.5259,-2.5711,-2.5971,-2.6323,-2.6499,-2.6499,-2.6499,0.0,0.0,0.0,0.0,0.0,0.0,0.0,-2.9804,0.0,0.0,0.0,0.0,0.0,0.0,0.0,0.0,0.0,0.0,0.0,0.0,0.0,-3.5027,0.0,0.0,-3.8969,-4.0124,-4.035,-4.04,0.0,0.0,0.0,0.0,0.0,-3.691,-3.6782,-3.6983,-3.6857,-3.6983,-3.7737,-3.7914,0.0,0.0,0.0,0.0,0.0,0.0,0.0,0.0,0.0,0.0,0.0,0.0,0.0,0.0,0.0,-5.0745,-5.1448,-5.2226,-5.2729,-5.2929,-5.2929,-5.2929,-5.2929,-5.2929,-5.2929,-5.2929,0.0,0.0,0.0,0.0,0.0,0.0,-5.4084,-5.4361,-5.4587,-5.4938,-5.5089,-5.5114,-5.5465,-5.5591,-5.5591,0.0,0.0,0.0,0.0,0.0,0.0,0.0,0.0,-2.9317,-2.8565,-2.7766,-2.7028,-2.6333,-2.5452,-2.4872,-2.4872,0.0,0.0,0.0,0.0,0.0,0.0,0.0,0.0,-2.4054,-2.4079,-2.4607,-2.5586,-2.5636,-2.5971,-2.6499,-2.6499,-2.6499,-2.6499,-2.6499,-2.6524,0.0,0.0,0.0,0.0,0.0,0.0,0.0,0.0,0.0,0.0,0.0,0.0,0.0,0.0,0.0,0.0,0.0,0.0,0.0,0.0,0.0,0.0,0.0,0.0,0.0,0.0,0.0,0.0,0.0,0.0,0.0,0.0,0.0,0.0,0.0,-3.7563,-3.7563,-3.8743,0.0,0.0,0.0,0.0,0.0,0.0,0.0,0.0,0.0,0.0,0.0,0.0,0.0,0.0,0.0,0.0,0.0,-5.0419,-5.1448,-5.2277,-5.2854,-5.2904,-5.2929,-5.2929,-5.2929,-5.2929,-5.2929,0.0,0.0,0.0,0.0,0.0,0.0,-5.3658,-5.3959,-5.4461,-5.4486,-5.4511,-5.4511,-5.4536,-5.4561,-5.4561,0.0,0.0,0.0,0.0,0.0,0.0,0.0,0.0,0.0,0.0,-2.8622,-2.8054,-2.7882,-2.661,-2.5803,0.0,0.0,0.0,0.0,0.0,0.0,0.0,0.0,0.0,-2.4632,-2.5008,-2.5335,-2.5586,-2.6072,-2.6373,-2.6499,-2.6499,-2.6499,-2.6499,-2.6499,-2.6977,0.0,0.0,0.0,0.0,0.0,0.0,0.0,0.0,0.0,0.0,-3.0557,-3.1135,0.0,0.0,0.0,0.0,0.0,0.0,0.0,0.0,-3.3997,-3.4324,-3.5429,0.0,-3.7412,-3.7538,-3.7588,0.0,0.0,0.0,0.0,0.0,0.0,0.0,0.0,0.0,0.0,0.0,0.0,0.0,0.0,0.0,0.0,0.0,0.0,0.0,0.0,0.0,0.0,0.0,0.0,0.0,0.0,0.0,0.0,-5.0393,-5.067,-5.1297,-5.2277,-5.2703,-5.2929,-5.2929,-5.2929,-5.2929,-5.2929,0.0,0.0,0.0,0.0,0.0,-5.3105,-5.3105,-5.3181,-5.3356,-5.3758,-5.3909,-5.3959,-5.4411,-5.4561,-5.4561,0.0,0.0,0.0,0.0,0.0,0.0,0.0,0.0,0.0,0.0,0.0,0.0,0.0,0.0,0.0,0.0,0.0,0.0,0.0,0.0,0.0,0.0,0.0,-2.4933,-2.5184,-2.546,-2.5737,-2.6021,-2.6348,-2.6499,-2.6499,-2.6499,-2.6499,-2.6499,-2.6751,-2.7444,-2.8499,0.0,0.0,0.0,0.0,0.0,0.0,0.0,0.0,0.0,-3.116,-3.1712,0.0,-3.2516,-3.2817,-3.3111,0.0,0.0,0.0,0.0,-3.4248,-3.4731,-3.5332,-3.5934,-3.6483,-3.6734,-3.6857,-3.6857,0.0,0.0,0.0,0.0,0.0,0.0,0.0,0.0,0.0,0.0,0.0,0.0,0.0,0.0,0.0,0.0,0.0,0.0,0.0,0.0,0.0,0.0,0.0,0.0,0.0,0.0,0.0,0.0,-5.0293,-5.0971,-5.2101,-5.2402,-5.2678,-5.2929,-5.2929,-5.2929,-5.2929,-5.2929,0.0,0.0,0.0,0.0,-5.2929,-5.2929,-5.2929,-5.2955,-5.3231,-5.3356,-5.3381,-5.3708,-5.3808,-5.3808,0.0,0.0,0.0,0.0,0.0,0.0,0.0,0.0,0.0,0.0,0.0,0.0,0.0,0.0,0.0,0.0,0.0,0.0,0.0,0.0,0.0,0.0,-2.5084,-2.5285,-2.5711,-2.5737,-2.5996,-2.6499,-2.6499,-2.6499,-2.6499,-2.6499,-2.6524,-2.665,-2.7278,-2.8047,-2.8888,-2.8988,0.0,0.0,-2.9804,0.0,0.0,0.0,0.0,0.0,0.0,0.0,0.0,-3.2918,-3.3111,-3.3093,-3.3212,0.0,0.0,0.0,0.0,0.0,-3.5608,-3.5633,-3.578,-3.6279,-3.6405,-3.6405,0.0,0.0,0.0,0.0,0.0,0.0,0.0,0.0,0.0,0.0,0.0,0.0,0.0,0.0,0.0,0.0,0.0,0.0,0.0,0.0,0.0,0.0,0.0,0.0,0.0,0.0,0.0,0.0,-5.0042,-5.0795,-5.1825,-5.2026,-5.2352,-5.2804,-5.2879,-5.2929,-5.2929,-5.2929,0.0,0.0,0.0,0.0,-5.2929,-5.2929,-5.2929,-5.2929,-5.2929,-5.2929,-5.2929,-5.2929,-5.2929,-5.2929,0.0,0.0,0.0,0.0,0.0,0.0,0.0,0.0,0.0,0.0,0.0,0.0,0.0,0.0,0.0,0.0,0.0,0.0,0.0,0.0,0.0,-2.6248,-2.6248,-2.6273,-2.6348,-2.6373,-2.6399,-2.6499,-2.6499,-2.6499,-2.6499,-2.6499,-2.6751,-2.7228,-2.8222,-2.8737,-2.8913,-2.9453,-2.9704,-2.9804,-2.9804,0.0,0.0,0.0,0.0,0.0,0.0,0.0,0.0,-3.3043,-3.3111,-3.3169,-3.3621,0.0,0.0,0.0,0.0,0.0,-3.6107,-3.6279,-3.6304,-3.638,-3.6405,-3.6405,-3.6405,0.0,0.0,0.0,0.0,0.0,0.0,0.0,0.0,0.0,0.0,0.0,0.0,0.0,0.0,0.0,0.0,0.0,0.0,0.0,0.0,0.0,0.0,0.0,0.0,0.0,0.0,0.0,0.0,-5.0017,-5.067,-5.1624,-5.2151,-5.2226,-5.2703,-5.2929,-5.2929,-5.2929,-5.2929,0.0,0.0,-5.2929,-5.2929,-5.2929,-5.2929,-5.2929,-5.2929,-5.2929,-5.2929,-5.2929,-5.2929,-5.2929,0.0,0.0,0.0,0.0,0.0,0.0,0.0,0.0,0.0,0.0,0.0,0.0,0.0,0.0,0.0,0.0,0.0,0.0,0.0,0.0,-2.6499,-2.6499,-2.6499,-2.6499,-2.6499,-2.6499,-2.6499,-2.6499,-2.6499,-2.665,-2.6952,-2.7253,-2.7645,-2.8197,-2.8662,-2.9063,-2.9402,-2.9679,-2.9804,-2.9829,0.0,0.0,0.0,0.0,0.0,0.0,0.0,0.0,0.0,0.0,-3.3269,-3.3571,-3.3822,0.0,0.0,0.0,0.0,0.0,-3.6329,-3.6405,-3.6405,-3.6405,-3.6405,-3.6405,-3.6405,0.0,0.0,0.0,0.0,0.0,0.0,0.0,0.0,0.0,0.0,0.0,0.0,0.0,0.0,0.0,0.0,0.0,0.0,0.0,0.0,0.0,0.0,0.0,0.0,0.0,0.0,0.0,0.0,0.0,-4.9967,-5.077,-5.1348,-5.1674,-5.2226,-5.2477,-5.2503,-5.2779,-5.2929,-5.2929,0.0,-5.2929,-5.2929,-5.2929,-5.2929,-5.2929,-5.2929,-5.2929,-5.2929,-5.2929,-5.2929,-5.2929,0.0,0.0,0.0,0.0,0.0,0.0,0.0,0.0,0.0,0.0,0.0,0.0,0.0,0.0,0.0,0.0,0.0,0.0,0.0,0.0,-2.6675,-2.6675,-2.6801,-2.6751,-2.6499,-2.6625,-2.6675,-2.6675,-2.6826,-2.7102,-2.7494,-2.8047,-2.8524,-2.8888,-2.9038,-2.9377,-2.9804,-2.9804,-2.9854,-3.003,0.0,0.0,0.0,0.0,0.0,0.0,0.0,0.0,0.0,0.0,0.0,0.0,0.0,0.0,0.0,-3.5658,-3.6031,-3.6405,-3.6405,-3.6405,-3.6405,-3.6405,-3.6405,-3.643,-3.6581,0.0,0.0,0.0,0.0,0.0,0.0,0.0,0.0,0.0,0.0,0.0,0.0,0.0,0.0,0.0,0.0,0.0,0.0,0.0,0.0,0.0,0.0,0.0,0.0,0.0,0.0,0.0,0.0,0.0,-4.959,-5.0017,-5.0519,-5.1096,-5.1649,-5.1925,-5.1925,-5.2477,-5.2729,-5.2729,-5.2879,-5.2929,-5.2929,-5.2929,-5.2929,-5.2929,-5.2929,-5.2929,-5.2929,-5.2929,-5.2929,-5.2929,0.0,0.0,0.0,0.0,0.0,0.0,0.0,0.0,0.0,0.0,0.0,0.0,0.0,0.0,0.0,0.0,0.0,0.0,0.0,0.0,-2.7218,-2.7218,-2.772,-2.7494,-2.6524,-2.7002,-2.7218,-2.7218,-2.7745,-2.7996,-2.8047,-2.8562,-2.8838,-2.8913,-2.9503,-2.9754,-2.9804,-2.9804,-3.008,-3.0557,-3.0608,0.0,0.0,0.0,0.0,0.0,0.0,0.0,0.0,0.0,0.0,0.0,0.0,0.0,-3.5608,-3.6157,-3.638,-3.6405,-3.6405,-3.6405,-3.6405,-3.6405,-3.6405,0.0,-3.701,-3.7136,0.0,0.0,0.0,0.0,0.0,0.0,0.0,0.0,0.0,0.0,0.0,0.0,0.0,0.0,0.0,0.0,0.0,0.0,0.0,0.0,0.0,0.0,0.0,0.0,0.0,0.0,0.0,0.0,-4.959,-4.964,-4.9941,-5.0494,-5.1071,-5.1348,-5.1348,-5.1925,-5.2176,-5.2201,-5.2703,-5.2929,-5.2929,-5.2929,-5.2929,-5.2929,-5.2929,-5.2929,-5.2929,-5.2929,-5.2929,-5.2929,0.0,0.0,0.0,0.0,0.0,0.0,0.0,0.0,0.0,0.0,0.0,0.0,0.0,0.0,0.0,0.0,0.0,0.0,0.0,-2.8717,-2.8389,-2.7832,-2.7996,-2.7921,-2.7494,-2.7695,-2.7795,-2.7795,-2.8348,-2.8624,-2.8587,-2.9202,-2.9478,-2.9478,-2.9704,-2.998,-3.0306,-3.0306,-3.0608,-3.1135,-3.1461,-3.1863,0.0,0.0,0.0,0.0,0.0,0.0,0.0,0.0,-3.465,0.0,0.0,0.0,-3.6081,-3.6355,-3.6405,-3.6405,-3.6405,-3.6405,-3.6405,-3.6405,0.0,0.0,0.0,0.0,0.0,0.0,0.0,0.0,0.0,0.0,0.0,0.0,0.0,0.0,0.0,0.0,0.0,0.0,0.0,0.0,0.0,0.0,0.0,0.0,0.0,0.0,0.0,0.0,0.0,0.0,0.0,0.0,0.0,-4.959,-4.969,-4.9916,-5.0469,-5.0745,-5.077,-5.1322,-5.1599,-5.1599,-5.1825,-5.19,-5.1925,-5.2277,-5.2427,-5.2452,-5.2804,-5.2929,-5.2929,-5.2929,-5.2929,-5.2929,0.0,0.0,0.0,0.0,0.0,0.0,0.0,0.0,0.0,0.0,0.0,0.0,0.0,0.0,0.0,0.0,0.0,0.0,-3.0399,-3.0022,-2.9493,-2.886,-2.8709,-2.8649,-2.8649,-2.8649,-2.8549,-2.8373,-2.8925,-2.9164,-2.9164,-2.9603,-2.9804,-2.9804,-2.998,-3.0256,-3.0633,-3.0783,-3.116,-3.1687,-3.2064,-3.2315,0.0,0.0,0.0,0.0,0.0,0.0,0.0,0.0,0.0,0.0,0.0,0.0,0.0,0.0,-3.6405,-3.6405,-3.6405,-3.6531,-3.6681,0.0,0.0,0.0,0.0,0.0,0.0,0.0,0.0,0.0,0.0,0.0,0.0,0.0,0.0,0.0,0.0,0.0,0.0,0.0,0.0,0.0,0.0,0.0,0.0,0.0,0.0,0.0,0.0,0.0,0.0,0.0,0.0,0.0,0.0,-4.959,-4.959,-4.959,-4.9967,-5.0167,-5.0167,-5.0745,-5.0996,-5.1021,-5.1197,-5.1272,-5.1322,-5.1699,-5.185,-5.1875,-5.2251,-5.2402,-5.2402,-5.2402,-5.2402,-5.2402,0.0,0.0,0.0,0.0,0.0,0.0,0.0,0.0,0.0,0.0,0.0,0.0,0.0,0.0,0.0,0.0,0.0,0.0,-3.2202,-3.1096,-3.0411,-3.0411,-3.0023,-2.9804,-2.9804,-2.9804,-2.9503,-2.8888,-2.9503,-2.9804,-2.9804,-2.9804,-2.9804,-2.9829,-3.0382,-3.0633,-3.0658,-3.1185,-3.1712,-3.2215,-3.2215,-3.2566,-3.3111,0.0,0.0,0.0,0.0,0.0,0.0,0.0,0.0,0.0,0.0,0.0,0.0,0.0,-3.6405,-3.6405,-3.643,-3.6832,0.0,0.0,0.0,0.0,0.0,0.0,0.0,0.0,0.0,0.0,0.0,0.0,0.0,0.0,0.0,0.0,0.0,0.0,0.0,0.0,0.0,0.0,0.0,0.0,0.0,0.0,0.0,0.0,0.0,0.0,0.0,0.0,0.0,0.0,0.0,-4.959,-4.959,-4.959,-4.959,-4.959,-4.9615,-5.0167,-5.0419,-5.0444,-5.1021,-5.1272,-5.1272,-5.1272,-5.1272,-5.1272,-5.1272,-5.1272,-5.1272,-5.1272,-5.1272,-5.1272,0.0,0.0,0.0,0.0,0.0,0.0,0.0,0.0,0.0,0.0,0.0,0.0,0.0,0.0,0.0,0.0,0.0,0.0,-3.2526,-3.2128,-3.1631,-3.1003,-3.0228,-3.0101,-3.0771,-3.0139,-2.9704,-2.9528,-2.9704,-2.9804,-2.9804,-3.0181,-3.0357,-3.0407,-3.0909,-3.1361,-3.1763,-3.1913,-3.229,-3.2817,-3.2817,-3.2918,-3.3162,0.0,0.0,0.0,0.0,0.0,0.0,0.0,0.0,0.0,0.0,0.0,0.0,-3.6935,-3.6935,-3.7036,-3.7412,0.0,0.0,0.0,0.0,0.0,0.0,0.0,0.0,0.0,0.0,0.0,0.0,0.0,0.0,0.0,0.0,0.0,0.0,0.0,0.0,0.0,0.0,0.0,0.0,0.0,0.0,0.0,0.0,0.0,0.0,0.0,0.0,0.0,0.0,0.0,0.0,0.0,-4.959,-4.959,-4.959,-4.959,-4.9615,-4.9766,-4.9841,-4.9841,-5.0017,-5.0092,-5.0117,-5.0519,-5.0921,-5.1272,-5.1272,-5.1272,-5.1272,-5.1272,-5.1272,-5.1272,0.0,0.0,0.0,0.0,0.0,0.0,0.0,0.0,0.0,0.0,-3.2228,-3.2706,0.0,0.0,0.0,0.0,0.0,0.0,0.0,-3.3045,-3.2343,-3.1792,-3.0495,-3.0062,-3.062,-3.0291,-3.0131,-3.0131,-3.0131,-3.0131,-3.0131,-3.0683,-3.0934,-3.0959,-3.1486,-3.1913,-3.224,-3.2466,-3.2767,-3.3136,-3.3319,-3.3395,-3.347,0.0,0.0,0.0,0.0,0.0,0.0,0.0,0.0,0.0,0.0,0.0,0.0,-3.7437,-3.7513,-3.7588,-3.7914,0.0,0.0,0.0,0.0,0.0,0.0,0.0,0.0,0.0,0.0,0.0,0.0,0.0,0.0,0.0,0.0,0.0,0.0,0.0,0.0,0.0,0.0,0.0,0.0,0.0,0.0,0.0,0.0,0.0,0.0,0.0,0.0,0.0,0.0,0.0,0.0,0.0,-4.959,-4.959,-4.959,-4.959,-4.959,-4.959,-4.959,-4.959,-4.959,-4.959,-4.9615,-4.9967,-5.0293,-5.0619,-5.0619,-5.0619,-5.0619,-5.0619,-5.0619,-5.0619,0.0,0.0,0.0,0.0,0.0,0.0,0.0,0.0,0.0,0.0,-3.2617,-3.3155,0.0,0.0,0.0,0.0,0.0,0.0,0.0,0.0,-3.27,-3.2593,-3.0936,-2.9996,-2.993,-3.0432,-3.0683,-3.0683,-3.0683,-3.0683,-3.0708,-3.121,-3.1461,-3.1486,-3.2039,-3.229,-3.2315,-3.2842,-3.3119,-3.3237,-3.3696,-3.3922,-3.4022,-3.46,0.0,0.0,0.0,0.0,0.0,0.0,0.0,0.0,0.0,0.0,0.0,-3.7914,-3.809,-3.809,0.0,0.0,0.0,0.0,0.0,0.0,0.0,0.0,0.0,0.0,0.0,0.0,0.0,0.0,0.0,0.0,0.0,0.0,0.0,0.0,0.0,0.0,0.0,0.0,0.0,0.0,0.0,0.0,0.0,0.0,0.0,0.0,0.0,0.0,0.0,0.0,0.0,0.0,-4.9515,0.0,-4.9565,-4.959,-4.959,-4.959,-4.959,-4.959,-4.959,-4.959,-4.959,-4.959,-4.959,-4.959,-4.959,-4.959,-4.959,-4.959,-4.959,-4.959,0.0,0.0,0.0,0.0,0.0,0.0,0.0,0.0,0.0,0.0,0.0,0.0,0.0,0.0,0.0,0.0,0.0,0.0,0.0,0.0,-3.3394,-3.2629,-3.1915,-3.1384,-3.1075,-3.116,-3.1235,-3.1235,-3.1235,-3.1235,-3.1235,-3.1788,-3.2039,-3.2064,-3.2641,-3.2893,-3.2893,-3.3018,-3.3319,-3.3746,-3.3847,-3.4148,-3.46,-3.5107,-3.5382,0.0,0.0,0.0,0.0,0.0,0.0,0.0,0.0,-3.7487,-3.7939,-3.8517,-3.8743,0.0,0.0,0.0,0.0,0.0,0.0,0.0,0.0,0.0,0.0,0.0,0.0,0.0,0.0,0.0,0.0,0.0,0.0,0.0,0.0,0.0,0.0,0.0,0.0,0.0,0.0,0.0,0.0,0.0,0.0,0.0,0.0,0.0,0.0,0.0,0.0,0.0,-4.8083,-4.8661,-4.8962,0.0,-4.9389,-4.959,-4.959,-4.959,-4.959,-4.959,-4.959,-4.959,-4.959,-4.959,-4.959,-4.959,-4.959,-4.959,-4.959,-4.959,-4.959,-4.959,0.0,0.0,0.0,0.0,0.0,0.0,0.0,0.0,0.0,0.0,0.0,0.0,0.0,0.0,0.0,0.0,0.0,0.0,0.0,0.0,-3.396,-3.285,-3.2608,-3.211,-3.1427,-3.1637,-3.1788,-3.1788,-3.2315,-3.2315,-3.1788,-3.2365,-3.2616,-3.2641,-3.2943,-3.3219,-3.347,-3.347,-3.3796,-3.4324,-3.4575,-3.4806,-3.5132,-3.573,-3.5931,-3.5981,-3.6304,0.0,0.0,0.0,0.0,0.0,0.0,0.0,-3.8115,-3.8693,-3.9069,-3.9396,0.0,0.0,0.0,0.0,0.0,0.0,0.0,0.0,0.0,0.0,0.0,0.0,0.0,0.0,0.0,0.0,0.0,0.0,0.0,0.0,0.0,0.0,0.0,0.0,0.0,0.0,0.0,0.0,0.0,0.0,0.0,0.0,0.0,0.0,0.0,0.0,-4.7531,-4.8083,-4.836,-4.836,-4.8661,-4.8937,-4.9213,-4.9464,-4.959,-4.959,-4.959,-4.959,-4.959,-4.959,-4.959,-4.959,-4.959,-4.959,-4.959,-4.959,-4.959,-4.959,0.0,0.0,0.0,0.0,0.0,0.0,0.0,0.0,0.0,0.0,0.0,0.0,0.0,0.0,0.0,0.0,0.0,0.0,0.0,0.0,0.0,-3.3703,-3.3302,-3.2789,-3.199,-3.2198,-3.2416,-3.2516,-3.3445,-3.352,-3.2792,-3.3194,-3.3319,-3.3219,-3.3319,-3.3571,-3.3897,-3.3997,-3.4349,-3.4856,-3.5307,-3.5558,-3.5683,-3.6182,-3.6405,-3.6405,-3.6405,-3.6405,-3.6405,-3.6405,0.0,0.0,0.0,0.0,-3.799,-3.8542,-3.912,-3.9672,0.0,0.0,0.0,0.0,0.0,0.0,0.0,0.0,0.0,0.0,0.0,0.0,0.0,0.0,0.0,0.0,0.0,0.0,0.0,0.0,0.0,0.0,0.0,0.0,0.0,0.0,0.0,0.0,0.0,0.0,0.0,0.0,0.0,0.0,0.0,-4.6943,-4.6943,-4.7506,-4.7782,-4.7782,-4.7857,-4.8159,-4.8636,-4.9088,-4.9414,-4.959,-4.959,-4.959,-4.959,-4.959,-4.959,-4.959,-4.959,-4.959,-4.959,-4.959,-4.959,-4.959,0.0,0.0,0.0,0.0,0.0,0.0,0.0,0.0,0.0,0.0,-3.4951,0.0,0.0,0.0,0.0,0.0,0.0,0.0,-3.6327,0.0,0.0,-3.6285,-3.4609,-3.3845,-3.4249,-3.3403,-3.3194,-3.3671,-3.3822,-3.4299,-3.5056,-3.47,-3.4248,-3.3796,-3.4299,-3.4274,-3.3922,-3.4399,-3.4881,-3.5382,-3.5458,-3.583,-3.6304,-3.638,-3.6405,-3.6405,-3.6405,-3.6405,-3.6405,-3.6405,-3.6405,0.0,0.0,0.0,-3.7412,-3.7965,-3.8542,0.0,0.0,0.0,0.0,0.0,0.0,0.0,0.0,0.0,0.0,0.0,0.0,0.0,0.0,0.0,0.0,0.0,0.0,0.0,0.0,0.0,0.0,0.0,0.0,0.0,0.0,0.0,0.0,0.0,0.0,0.0,0.0,0.0,-4.6301,-4.6301,-4.6376,-4.6426,-4.6426,-4.6954,-4.723,-4.7193,-4.7682,-4.7958,-4.8033,-4.8109,-4.8661,-4.959,-4.959,-4.959,-4.959,-4.959,-4.959,-4.959,-4.959,-4.959,-4.959,-4.959,-4.959,-4.959,0.0,0.0,0.0,0.0,0.0,0.0,0.0,0.0,0.0,0.0,0.0,-3.5519,0.0,0.0,0.0,-3.5519,-3.5848,-3.6477,-3.7494,-3.7416,-3.7085,-3.6493,-3.5601,-3.4726,-3.3827,-3.3368,-3.3345,-3.3897,-3.4525,0.0,0.0,-3.6383,-3.5931,-3.4781,-3.4705,-3.4751,-3.4781,-3.5031,-3.5504,-3.6006,-3.6006,-3.6132,-3.6405,-3.6405,-3.6606,-3.6883,-3.6883,-3.6883,-3.6883,-3.6883,-3.6656,-3.6455,-3.6707,0.0,0.0,0.0,0.0,0.0,0.0,0.0,0.0,0.0,0.0,0.0,0.0,0.0,0.0,0.0,0.0,0.0,0.0,0.0,0.0,0.0,0.0,0.0,0.0,0.0,0.0,0.0,0.0,0.0,0.0,0.0,0.0,0.0,0.0,0.0,0.0,-4.6301,-4.6301,-4.6301,-4.6301,0.0,-4.6301,-4.6552,-4.6677,-4.6677,-4.723,-4.7481,-4.7481,-4.7782,-4.836,-4.9138,-4.9138,-4.9314,-4.959,-4.959,-4.959,-4.959,-4.959,-4.959,-4.959,-4.959,-4.959,-4.959,0.0,0.0,0.0,0.0,0.0,0.0,0.0,0.0,0.0,0.0,0.0,0.0,0.0,0.0,0.0,0.0,-3.6207,-3.7015,-3.8302,-3.8542,-3.8164,-3.707,-3.6487,-3.5453,-3.3953,-3.3343,-3.342,-3.4098,0.0,0.0,-3.6832,-3.7337,-3.7086,0.0,-3.5558,-3.5429,-3.5508,-3.5633,-3.5981,-3.6405,-3.6405,-3.6405,-3.643,-3.6556,-3.6958,-3.7387,-3.7387,-3.7487,-3.7563,-3.7287,-3.691,-3.6581,-3.6455,-3.6681,0.0,0.0,0.0,0.0,0.0,0.0,0.0,0.0,0.0,0.0,0.0,0.0,0.0,0.0,0.0,0.0,0.0,0.0,0.0,0.0,0.0,0.0,0.0,0.0,0.0,0.0,0.0,0.0,0.0,0.0,0.0,0.0,0.0,0.0,-4.6301,-4.6301,-4.6301,-4.6301,-4.6301,-4.6301,-4.6301,-4.6301,-4.6301,-4.6326,-4.6728,-4.6928,-4.6928,-4.733,-4.7807,-4.836,-4.8485,-4.8786,-4.9163,-4.9314,-4.9389,-4.9389,-4.954,-4.959,-4.959,-4.959,-4.959,-4.959,0.0,0.0,0.0,0.0,0.0,0.0,0.0,0.0,0.0,0.0,0.0,0.0,-3.5519,-3.5519,-3.5759,-3.6387,-3.6477,-3.7015,-3.8302,-3.902,-3.9307,-3.9228,-3.7291,0.0,-3.6053,-3.4095,-3.3596,-3.4675,0.0,0.0,-3.7889,-3.691,-3.696,-3.7864,-3.7312,-3.6508,-3.5533,-3.6107,-3.638,-3.6405,-3.6405,-3.6405,-3.6455,-3.6935,-3.7487,-3.7965,-3.7965,-3.8316,-3.8668,-3.7538,-3.7161,-3.7061,-3.6581,-3.643,-3.6455,0.0,0.0,0.0,0.0,0.0,0.0,0.0,0.0,0.0,0.0,0.0,0.0,0.0,0.0,0.0,0.0,0.0,0.0,0.0,0.0,0.0,0.0,0.0,0.0,0.0,0.0,0.0,0.0,0.0,0.0,0.0,0.0,0.0,-4.6301,-4.6301,-4.6301,-4.6301,-4.6301,-4.6301,-4.6301,-4.6301,-4.6301,-4.6301,-4.6351,-4.6351,-4.6351,-4.6376,-4.6702,-4.7255,-4.7732,-4.7958,-4.8033,-4.8586,-4.8812,-4.8862,-4.9389,-4.959,-4.959,-4.959,-4.959,-4.959,0.0,0.0,0.0,0.0,0.0,0.0,0.0,0.0,0.0,0.0,0.0,0.0,0.0,-3.5878,-3.6237,-3.6477,-3.7225,-3.8093,-3.899,-3.929,-3.909,-3.8397,-3.6982,-3.5894,-3.5238,-3.3827,-3.3621,0.0,0.0,-3.5959,-3.7487,-3.7437,-3.7437,-3.7462,-3.6958,-3.648,-3.6081,-3.6329,-3.6405,0.0,-3.6405,-3.6405,-3.6455,-3.7033,-3.7764,0.0,0.0,0.0,0.0,-3.8517,-3.7789,-3.7086,-3.6581,-3.6405,-3.648,-3.6784,-3.736,-3.804,0.0,0.0,0.0,0.0,0.0,0.0,0.0,0.0,0.0,0.0,0.0,0.0,0.0,0.0,0.0,0.0,0.0,0.0,0.0,0.0,0.0,0.0,0.0,0.0,0.0,0.0,0.0,0.0,0.0,0.0,-4.6301,-4.6301,-4.6301,-4.6301,-4.6301,-4.6301,-4.6301,-4.6301,-4.6301,-4.6301,-4.6301,-4.6301,-4.6301,-4.6301,-4.6426,-4.6627,-4.6803,-4.728,-4.7933,-4.8134,-4.8209,-4.8234,-4.8435,-4.8736,-4.9063,-4.9063,-4.9289,-4.959,0.0,0.0,0.0,0.0,0.0,0.0,0.0,0.0,-3.4981,-3.5459,0.0,0.0,0.0,0.0,-3.6656,-3.7075,-3.8123,-3.8931,-3.9379,-3.9053,-3.8694,-3.836,-3.6632,-3.5561,-3.5197,-3.4007,0.0,0.0,0.0,0.0,0.0,-3.7362,-3.7362,-3.7161,-3.6656,-3.6405,0.0,0.0,0.0,-3.6405,0.0,0.0,-3.648,-3.7186,0.0,0.0,0.0,0.0,0.0,0.0,0.0,-3.7613,-3.6933,-3.6556,-3.648,-3.6857,-3.7036,-3.7337,-3.809,0.0,0.0,0.0,0.0,0.0,0.0,0.0,0.0,0.0,0.0,0.0,0.0,0.0,0.0,0.0,0.0,0.0,0.0,0.0,0.0,0.0,0.0,0.0,0.0,0.0,0.0,0.0,0.0,0.0,-4.6301,-4.6301,-4.6301,-4.6301,-4.6301,-4.6301,-4.6301,-4.6301,-4.6301,-4.6301,-4.6301,-4.6301,-4.6301,-4.6301,-4.6301,-4.6301,-4.6301,-4.6702,-4.738,-4.7581,-4.7657,-4.7657,-4.7832,-4.8134,-4.8485,-4.8485,-4.8837,-4.9314,0.0,0.0,0.0,0.0,0.0,0.0,0.0,0.0,-3.5519,-3.5519,0.0,0.0,0.0,0.0,0.0,-3.8302,-3.902,-3.9373,-3.9337,-3.8435,-3.8256,-3.9265,-3.6385,-3.5183,-3.616,0.0,0.0,0.0,0.0,0.0,0.0,0.0,-3.6707,-3.7136,-3.6656,-3.6405,-3.6405,0.0,-3.6405,-3.6405,0.0,-3.6405,-3.6531,0.0,0.0,0.0,-4.03,-4.1204,0.0,-4.0275,0.0,0.0,0.0,-3.6857,-3.6405,-3.6405,-3.6782,-3.7161,0.0,0.0,0.0,0.0,0.0,0.0,0.0,0.0,0.0,0.0,0.0,0.0,0.0,0.0,0.0,0.0,0.0,0.0,0.0,0.0,0.0,0.0,0.0,0.0,0.0,0.0,0.0,0.0,0.0,-4.6301,-4.6301,-4.6301,-4.6301,-4.6301,-4.6301,-4.6301,-4.6301,-4.6301,-4.6301,-4.6301,-4.6301,-4.6301,-4.6301,-4.6301,-4.6301,-4.6301,-4.6301,-4.6301,-4.6351,-4.6878,-4.7043,-4.7093,-4.7657,-4.7883,-4.7883,-4.7883,-4.8259,-4.8736,0.0,0.0,0.0,0.0,0.0,-3.3664,-3.4174,-3.4951,-3.5519,0.0,0.0,0.0,-3.6178,-3.7195,-3.8212,-3.905,-3.932,-3.9053,-3.8294,-3.8694,-3.8405,-3.7137,-3.6653,-3.6211,-3.5716,0.0,0.0,0.0,0.0,0.0,0.0,0.0,0.0,0.0,-3.648,-3.6405,-3.6405,-3.6405,0.0,0.0,-3.6405,-3.6405,0.0,0.0,0.0,0.0,0.0,-4.0978,-4.143,0.0,-3.9923,-3.9195,0.0,-3.6857,-3.6405,-3.6405,-3.6505,-3.6631,-3.6631,0.0,0.0,0.0,0.0,0.0,0.0,0.0,0.0,0.0,0.0,0.0,0.0,0.0,0.0,0.0,0.0,0.0,0.0,0.0,0.0,0.0,0.0,0.0,0.0,0.0,0.0,0.0,0.0,-4.6301,-4.6301,-4.6301,-4.6301,-4.6301,-4.6301,-4.6301,-4.6301,-4.6301,-4.6301,-4.6301,-4.6301,-4.6301,-4.6301,-4.6301,-4.6301,-4.6301,-4.6301,-4.6301,-4.6326,-4.6476,-4.6552,-4.6552,-4.6702,-4.7004,-4.7355,-4.7355,-4.7682,-4.8159,0.0,0.0,0.0,0.0,0.0,-3.3724,-3.4414,-3.507,-3.5519,0.0,0.0,0.0,-3.6776,-3.7793,-3.8661,-3.9313,-3.898,-3.8472,-3.7843,-3.7548,-3.7201,-3.6598,-3.606,-3.5796,-3.5848,-3.5334,0.0,0.0,0.0,0.0,0.0,0.0,0.0,0.0,0.0,0.0,0.0,0.0,0.0,0.0,-3.6757,0.0,0.0,-3.7663,-3.8592,0.0,0.0,0.0,-4.2258,-4.1455,-4.0375,0.0,0.0,-3.6857,-3.6405,-3.6405,-3.6405,-3.6405,-3.6405,-3.6405,-3.6405,0.0,0.0,0.0,0.0,0.0,0.0,0.0,0.0,0.0,0.0,0.0,0.0,0.0,0.0,0.0,0.0,0.0,0.0,0.0,0.0,0.0,0.0,0.0,0.0,0.0,-4.6301,-4.6301,-4.6301,-4.6301,-4.6301,-4.6301,-4.6301,-4.6301,-4.6301,-4.6301,-4.6301,-4.6301,-4.6301,-4.6301,-4.6301,-4.6301,-4.6301,-4.6301,-4.6301,-4.6301,-4.6301,-4.6301,-4.6301,-4.6301,-4.6301,-4.6502,-4.6803,-4.6803,-4.7129,-4.7581,0.0,0.0,-3.1809,-3.2467,-3.3155,-3.3814,-3.4533,-3.513,-3.5519,0.0,-3.5639,-3.6148,-3.7285,-3.8063,-3.8751,-3.9379,-3.8435,-3.7767,-3.7625,-3.5964,-3.5505,-3.6675,-3.5167,-3.4893,-3.6166,-3.5831,-3.5583,0.0,0.0,0.0,0.0,0.0,-3.6405,-3.6405,0.0,0.0,0.0,0.0,0.0,-3.7287,-3.7337,-3.7663,0.0,0.0,-3.9622,0.0,-4.115,-4.2409,-4.3564,-4.264,-4.088,0.0,0.0,0.0,0.0,0.0,-3.6405,-3.6405,-3.6405,-3.6405,-3.6405,-3.6405,0.0,0.0,-3.7061,-3.7613,0.0,0.0,0.0,0.0,0.0,0.0,0.0,0.0,0.0,0.0,0.0,0.0,0.0,0.0,0.0,0.0,0.0,0.0,0.0,-4.6301,-4.6301,-4.6301,-4.6301,-4.6301,-4.6301,-4.6301,-4.6301,-4.6301,-4.6301,-4.6301,-4.6301,-4.6301,-4.6301,-4.6301,-4.6301,-4.6301,-4.6301,-4.6301,-4.6301,-4.6301,-4.6301,-4.6301,-4.6301,-4.6301,-4.6301,-4.6301,-4.6301,-4.6301,-4.6627,-4.6993,0.0,-3.1929,-3.2527,-3.3185,-3.3844,-3.4533,-3.519,-3.5429,-3.5519,-3.5519,-3.6387,-3.7135,-3.7375,-3.8482,-3.926,-3.9373,-3.8435,-3.7434,-3.6565,-3.6601,-3.6016,-3.4589,-3.5789,-3.6199,-3.5674,-3.6045,-3.6207,-3.6207,0.0,0.0,0.0,0.0,-3.6405,-3.6405,0.0,0.0,0.0,0.0,0.0,-3.7889,-3.8341,0.0,-3.8768,-3.932,-3.9948,-4.0651,-4.163,-4.2484,-4.3112,-4.2886,-4.1656,-3.9998,0.0,0.0,0.0,-3.6531,0.0,-3.6405,-3.6405,-3.6405,-3.6405,0.0,0.0,0.0,-3.7061,-3.7613,0.0,0.0,0.0,0.0,0.0,0.0,0.0,0.0,0.0,0.0,0.0,0.0,0.0,0.0,0.0,0.0,0.0,0.0,-4.6301,-4.6301,-4.6301,-4.6301,-4.6301,-4.6301,-4.6301,-4.6301,-4.6301,-4.6301,-4.6301,-4.6301,-4.6301,-4.6301,-4.6301,-4.6301,-4.6301,-4.6301,-4.6301,-4.6301,-4.6301,-4.6301,-4.6301,-4.6301,-4.6301,-4.6301,-4.6301,-4.6301,-4.6301,-4.6301,-4.6376,-4.6476,-3.1929,-3.2258,-3.2826,-3.3814,-3.4294,-3.4743,-3.54,-3.5519,-3.5519,-3.5519,-3.6896,-3.8033,-3.8362,-3.9589,-4.0397,-4.0397,-3.8881,-3.7714,-3.7163,-3.635,-3.5539,-3.4745,-3.5703,-3.6182,-3.5931,-3.6279,-3.6405,-3.6405,0.0,0.0,0.0,0.0,0.0,0.0,0.0,0.0,0.0,0.0,-3.7739,-3.809,-3.8944,0.0,-3.9747,-4.03,-4.1028,-4.1806,-4.2359,-4.2911,-4.3388,-4.3388,-4.2283,0.0,0.0,-3.8517,-3.7487,0.0,-3.6631,-3.6405,0.0,0.0,0.0,-3.6405,0.0,0.0,0.0,-3.7387,0.0,0.0,0.0,0.0,0.0,0.0,0.0,0.0,0.0,0.0,0.0,0.0,0.0,0.0,0.0,0.0,0.0,0.0,-4.62,-4.5924,-4.5899,-4.5899,-4.5899,-4.615,-4.6301,-4.6301,-4.6301,-4.6301,-4.6301,-4.6301,-4.6301,-4.6301,-4.6301,-4.6301,-4.6301,-4.6301,-4.6301,-4.6301,-4.6301,-4.6301,-4.6301,-4.6301,-4.6301,-4.6301,-4.6301,-4.6301,-4.6301,-4.6301,-4.6301,-4.6301,-3.2407,-3.2706,-3.3215,-3.4324,-3.4623,-3.4861,-3.5429,-3.5519,-3.5549,-3.5669,-3.7084,-3.8371,-3.9135,-4.0199,-4.091,-4.1028,-3.925,-3.8057,-3.8057,-3.6248,-3.5353,-3.5633,-3.5759,-3.6006,-3.6405,-3.6405,-3.6405,-3.6405,0.0,0.0,0.0,0.0,0.0,0.0,0.0,0.0,0.0,0.0,0.0,-3.8266,0.0,-4.0124,-4.0601,-4.1254,-4.2032,-4.2836,-4.3062,-4.3564,-4.4091,-4.3865,0.0,-4.1455,-4.035,-3.9245,0.0,0.0,0.0,0.0,0.0,0.0,0.0,0.0,0.0,-3.6531,0.0,0.0,0.0,0.0,0.0,0.0,0.0,0.0,0.0,0.0,0.0,0.0,0.0,0.0,0.0,0.0,0.0,0.0,0.0,0.0,-4.5673,-4.5347,-4.5221,-4.5271,-4.5472,-4.5899,-4.62,-4.6301,-4.6301,-4.6301,-4.6301,-4.6301,-4.6301,-4.6301,-4.6301,-4.6301,-4.6301,-4.6301,-4.6301,-4.6301,-4.6301,-4.6301,-4.6301,-4.6301,-4.6301,-4.6301,-4.6301,-4.6301,-4.6301,-4.6301,-4.6301,-4.6301,-3.2617,-3.3455,-3.4324,-3.4474,-3.4981,-3.54,-3.5489,-3.5519,-3.5699,-3.6297,-3.6658,-3.7353,-3.8496,-3.8846,-3.9184,-3.9668,-3.8684,-3.7994,-3.7994,-3.7318,-3.6709,-3.6329,-3.6734,-3.681,-3.6405,-3.6405,-3.6405,-3.6405,0.0,0.0,0.0,0.0,0.0,0.0,-3.6405,0.0,0.0,0.0,-3.8291,0.0,-3.9973,-4.045,0.0,-4.1681,-4.2187,-4.2439,-4.3363,-4.4392,-4.5146,0.0,-4.3363,-4.261,0.0,-4.04,-3.9295,-3.8216,0.0,0.0,0.0,0.0,0.0,0.0,-3.6405,0.0,0.0,0.0,0.0,0.0,0.0,0.0,0.0,0.0,0.0,0.0,0.0,0.0,0.0,0.0,0.0,0.0,0.0,0.0,0.0,0.0,0.0,-4.4694,-4.4267,-4.4443,-4.5447,-4.5547,-4.5799,-4.6301,-4.6301,-4.6301,-4.6301,-4.6301,-4.6301,-4.6301,-4.6301,-4.6301,-4.6301,-4.6301,-4.6301,-4.6301,-4.6301,-4.6301,-4.6301,-4.6301,-4.6301,-4.6301,-4.6301,-4.6301,-4.6301,-4.6301,-4.6301,-4.6301,-3.3694,-3.4083,-3.4623,-3.5011,-3.531,-3.5519,-3.5519,-3.5818,-3.6447,-3.7464,-3.869,-4.0047,-4.1685,0.0,0.0,-4.285,0.0,-4.0824,0.0,0.0,-3.8391,-3.7888,-3.8089,-3.7788,-3.6908,-3.6835,-3.6732,-3.6405,-3.6405,0.0,0.0,0.0,0.0,0.0,-3.6405,0.0,-3.7236,0.0,0.0,0.0,0.0,0.0,0.0,-4.1856,-4.2816,-4.3639,-4.4116,-4.4593,-4.4869,0.0,-4.3639,0.0,0.0,0.0,0.0,0.0,0.0,0.0,0.0,0.0,0.0,0.0,0.0,0.0,-3.6405,0.0,-3.6757,0.0,0.0,0.0,0.0,0.0,0.0,0.0,0.0,0.0,0.0,0.0,0.0,0.0,0.0,0.0,0.0,0.0,0.0,0.0,0.0,-4.3338,-4.4443,-4.5121,-4.5748,-4.6301,-4.6301,-4.6301,-4.6301,-4.6301,-4.6301,-4.6301,-4.6301,-4.6301,-4.6301,-4.6301,-4.6301,-4.6301,-4.6301,-4.6301,-4.6301,-4.6301,-4.6301,-4.6301,-4.6301,-4.6301,-4.6301,-4.6301,-4.6301,-4.6301,-3.4771,-3.4771,-3.4921,-3.5429,-3.5519,-3.5579,-3.5759,-3.6327,-3.7255,-3.8751,-4.0226,0.0,-4.4093,-4.4748,0.0,0.0,-4.3588,-4.2438,0.0,0.0,-3.9823,0.0,0.0,0.0,0.0,-3.7186,-3.6958,-3.6405,-3.6405,-3.6405,0.0,0.0,0.0,0.0,0.0,-3.6807,-3.7462,0.0,0.0,-4.0023,-4.1128,-4.1656,-4.1831,-4.2233,-4.3313,-4.4618,-4.4618,-4.4719,-4.4769,-4.4217,-4.4016,0.0,-4.3087,0.0,0.0,0.0,0.0,0.0,-3.8442,0.0,0.0,0.0,0.0,0.0,0.0,0.0,0.0,0.0,0.0,0.0,0.0,0.0,-3.6707,-3.691,0.0,0.0,0.0,0.0,0.0,0.0,0.0,0.0,0.0,0.0,0.0,0.0,-4.1609,0.0,-4.3514,-4.4493,-4.5347,-4.6075,-4.6225,-4.6301,-4.6301,-4.6301,-4.6301,-4.6301,-4.6301,-4.6301,-4.6301,-4.6301,-4.6301,-4.6301,-4.6301,-4.6301,-4.6301,-4.6301,-4.6301,-4.6301,-4.6301,-4.6301,-4.6301,-4.6301,-4.6301,-4.6301,-3.5459,-3.5459,-3.5489,0.0,0.0,0.0,0.0,-3.6985,0.0,0.0,0.0,0.0,0.0,0.0,0.0,0.0,0.0,-4.1333,-4.1279,0.0,-4.0802,0.0,0.0,-3.8894,0.0,-3.7186,-3.6958,-3.6405,-3.6405,-3.6405,0.0,0.0,0.0,0.0,0.0,-3.7008,-3.8015,-3.8617,-3.9496,-4.0576,-4.1681,-4.2514,-4.2936,0.0,-4.3639,-4.4618,-4.4618,0.0,0.0,-4.4794,-4.4593,0.0,0.0,0.0,0.0,0.0,0.0,0.0,0.0,0.0,0.0,-3.7462,0.0,0.0,0.0,0.0,-3.6556,0.0,0.0,0.0,0.0,-3.7161,-3.6985,-3.6505,-3.6835,0.0,0.0,0.0,0.0,0.0,0.0,0.0,0.0,0.0,0.0,0.0,-4.0074,0.0,-4.2886,-4.3539,-4.4367,-4.5472,-4.6024,-4.6301,-4.6301,-4.6301,-4.6301,-4.6301,-4.6301,-4.6301,-4.6301,-4.6301,-4.6301,-4.6301,-4.6301,-4.6301,-4.6301,-4.6301,-4.6301,-4.6301,-4.6301,-4.6301,-4.6301,-4.6301,-4.6301,-4.6301,0.0,-3.5789,-3.5519,0.0,0.0,0.0,0.0,-3.7764,0.0,0.0,0.0,0.0,0.0,0.0,-4.5553,0.0,0.0,-4.3396,-4.2464,-4.276,0.0,0.0,0.0,-4.0927,0.0,0.0,-3.7888,-3.6958,-3.6581,-3.6405,0.0,0.0,0.0,0.0,0.0,-3.6832,0.0,0.0,0.0,0.0,0.0,-4.2811,-4.2986,0.0,0.0,-4.4618,-4.4618,-4.4995,0.0,-4.4819,-4.4869,-4.5121,-4.4744,-4.4618,-4.4468,-4.3514,-4.2986,0.0,0.0,0.0,-4.0249,-3.912,0.0,0.0,0.0,0.0,0.0,0.0,0.0,0.0,0.0,-3.7186,-3.701,-3.6505,-3.6556,-3.6681,0.0,0.0,0.0,0.0,0.0,0.0,0.0,0.0,0.0,-3.8793,-3.9044,-3.9798,0.0,-4.2559,-4.3589,-4.4342,-4.492,-4.5372,-4.5773,-4.5773,-4.5949,-4.6301,-4.6301,-4.6301,-4.6301,-4.6301,-4.6301,-4.6301,-4.6301,-4.6301,-4.6301,-4.6301,-4.6301,-4.6301,-4.6301,-4.6301,-4.6301,-4.6301,-4.6301,-4.6301,-3.6477,0.0,0.0,0.0,0.0,0.0,0.0,0.0,0.0,0.0,-4.4899,0.0,-4.7452,0.0,-4.6279,0.0,-4.4589,-4.3984,-4.3319,-4.3614,0.0,-4.2816,-4.2886,0.0,0.0,0.0,0.0,-3.7789,-3.7084,-3.6707,0.0,0.0,0.0,0.0,0.0,0.0,0.0,0.0,-3.9396,0.0,0.0,-4.2911,0.0,0.0,-4.4016,-4.4669,0.0,-4.5472,-4.5723,-4.5347,-4.5472,-4.5723,-4.5347,-4.5347,-4.5347,-4.4618,-4.4242,-4.389,-4.2986,-4.2333,0.0,-4.0551,-3.9873,0.0,-3.8743,0.0,0.0,0.0,0.0,0.0,0.0,-3.7613,-3.7236,-3.6531,-3.6405,-3.6405,0.0,-3.6405,0.0,0.0,0.0,0.0,0.0,0.0,-3.7111,-3.7663,-3.8065,-3.8843,0.0,0.0,-4.2434,-4.3187,-4.394,-4.4518,-4.4869,-4.5296,-4.5673,-4.6024,-4.6225,-4.6301,-4.6301,-4.6301,-4.6301,-4.6301,-4.6301,-4.6301,-4.6301,-4.6301,-4.6301,-4.6301,-4.6301,-4.6301,-4.6301,-4.6301,-4.6301,-4.6301,0.0,0.0,0.0,0.0,-3.6058,0.0,0.0,0.0,-4.2432,0.0,-4.5435,-4.6177,-4.7999,-4.5837,-4.4441,-4.4913,-4.3844,0.0,-4.3815,-4.3865,0.0,0.0,-4.3363,-4.2585,-4.1426,0.0,0.0,0.0,0.0,-3.7236,0.0,0.0,0.0,0.0,-3.6405,0.0,-3.7211,-3.8316,-3.9145,-3.9873,-4.1559,-4.2811,-4.3865,-4.4418,0.0,-4.4819,-4.5924,-4.6301,-4.6301,-4.6301,-4.6301,-4.6301,-4.6301,-4.5949,-4.5522,-4.5522,-4.5146,-4.4593,-4.4041,-4.3489,-4.2836,-4.1731,0.0,0.0,0.0,0.0,-3.9998,0.0,0.0,0.0,0.0,0.0,-3.7713,-3.6631,-3.643,-3.6405,-3.6405,-3.6405,0.0,0.0,0.0,0.0,0.0,-3.6405,-3.6631,-3.7111,-3.7161,0.0,0.0,0.0,0.0,-4.2062,-4.3087,-4.3689,-4.3765,-4.4819,-4.5397,-4.5447,-4.5999,-4.6276,-4.6276,-4.6301,-4.6301,-4.6301,-4.6301,-4.6301,-4.6301,-4.6301,-4.6301,-4.6301,-4.6301,-4.6301,-4.6301,-4.6301,-4.6301,-4.6301,-3.7165,-3.6267,-3.5669,0.0,-3.6387,-3.7255,0.0,0.0,0.0,0.0,-4.8015,-4.8687,-4.8065,-4.7328,-4.633,-4.4832,-4.4421,0.0,0.0,0.0,0.0,-4.4443,-4.4694,-4.4317,-4.3187,-4.2082,0.0,-4.0099,0.0,0.0,-3.7186,0.0,0.0,0.0,0.0,0.0,-3.6656,-3.7312,-3.8668,-4.0425,-4.171,-4.2811,0.0,0.0,-4.4895,-4.5347,-4.605,-4.6301,-4.6301,-4.6301,-4.6301,-4.6301,-4.6301,-4.6225,-4.61,-4.61,-4.5999,-4.5748,-4.5196,-4.4945,-4.4568,-4.3438,-4.3062,-4.2811,0.0,0.0,0.0,0.0,0.0,0.0,0.0,0.0,0.0,-3.7211,-3.6681,-3.6405,-3.6405,0.0,0.0,-3.6405,0.0,0.0,0.0,-3.6405,-3.6455,-3.6606,-3.696,0.0,0.0,0.0,0.0,-4.03,-4.1003,-4.1957,-4.3162,-4.3489,-4.4041,-4.4844,-4.5422,-4.5698,-4.5723,-4.6125,-4.6301,-4.6301,-4.6301,-4.6301,-4.6301,-4.6301,-4.6301,-4.6301,-4.6301,-4.6301,-4.6301,-4.6301,-4.6301,-4.6301,-3.7524,0.0,0.0,-3.7554,0.0,0.0,-4.0935,0.0,0.0,-4.8207,-4.9258,0.0,-4.9324,-4.8181,-4.697,-4.569,-4.4998,0.0,0.0,0.0,0.0,-4.5372,-4.5447,-4.5196,-4.4543,-4.3438,0.0,-4.158,0.0,0.0,-3.7914,0.0,0.0,0.0,0.0,-3.6405,0.0,-3.7211,-3.8693,-4.0601,-4.1706,0.0,0.0,-4.4694,-4.5196,-4.5573,-4.6125,-4.6301,-4.6301,-4.6301,-4.6476,-4.6677,-4.6677,-4.6828,-4.7004,-4.7004,-4.7004,-4.6928,-4.6627,-4.6376,-4.605,-4.5422,-4.507,-4.4744,-4.4192,-4.4066,-4.3915,0.0,0.0,0.0,0.0,0.0,0.0,-3.814,-3.7437,-3.7086,0.0,0.0,0.0,0.0,0.0,0.0,0.0,0.0,0.0,0.0,0.0,0.0,0.0,0.0,0.0,-3.932,-4.035,-4.1204,-4.1882,-4.261,-4.3288,-4.3915,-4.4468,-4.502,-4.5497,-4.5799,-4.6075,-4.6301,-4.6301,-4.6301,-4.6301,-4.6301,-4.6301,-4.6301,-4.6301,-4.6301,-4.6301,-4.6301,-4.6301,-4.6301,0.0,0.0,0.0,0.0,0.0,0.0,0.0,-4.4627,0.0,-4.9897,0.0,-5.0002,-5.0829,-4.8733,-4.7171,-4.6885,0.0,-4.507,-4.5573,-4.5598,-4.5799,-4.6276,-4.5849,-4.5598,-4.5598,-4.4568,0.0,0.0,0.0,0.0,-3.8994,0.0,0.0,0.0,0.0,0.0,0.0,-3.7638,-3.9094,0.0,-4.1831,-4.2961,-4.4141,-4.5121,-4.5522,-4.5673,-4.6225,-4.6426,-4.6426,-4.6426,-4.6778,-4.7168,-4.7168,-4.7531,-4.7908,-4.7908,-4.7908,-4.7908,-4.7908,-4.7581,-4.7168,-4.7168,-4.6878,-4.6401,-4.5924,-4.5799,-4.5623,-4.497,-4.4091,-4.3212,0.0,0.0,0.0,-3.9245,0.0,0.0,0.0,0.0,0.0,0.0,0.0,0.0,0.0,0.0,0.0,0.0,0.0,0.0,0.0,0.0,0.0,0.0,-4.03,0.0,-4.0526,0.0,-4.2811,-4.2886,-4.3438,-4.4292,-4.5372,-4.5447,-4.5799,-4.6301,-4.6301,-4.6301,-4.6301,-4.6301,-4.6301,-4.6301,-4.6301,-4.6301,-4.6301,-4.6301,-4.6301,-4.6301,0.0,0.0,0.0,0.0,0.0,-4.3868,-4.68,-4.7549,-4.8566,-5.075,-5.1876,0.0,-5.0118,-4.9473,-4.8449,-4.6603,-4.6179,0.0,0.0,0.0,0.0,-4.6301,-4.6225,-4.6175,-4.6175,-4.5522,-4.4694,0.0,-4.2459,-4.1078,-3.9521,0.0,0.0,0.0,0.0,0.0,-3.7111,-3.8241,0.0,-4.125,-4.2384,-4.379,-4.5221,-4.5422,-4.5773,-4.6225,-4.6803,-4.6979,-4.6979,-4.6979,-4.733,-4.7782,-4.7782,-4.7832,-4.7908,-4.7908,-4.7908,-4.7908,-4.7908,-4.7832,-4.7782,-4.7782,-4.7707,-4.7606,-4.7506,-4.7481,-4.7205,-4.6225,-4.5849,-4.5271,-4.379,0.0,0.0,0.0,0.0,0.0,0.0,0.0,0.0,0.0,0.0,0.0,0.0,0.0,0.0,0.0,0.0,0.0,0.0,0.0,0.0,0.0,0.0,0.0,0.0,0.0,0.0,-4.2363,-4.2861,-4.3714,-4.4794,-4.5271,-4.5799,-4.6301,-4.6301,-4.6301,-4.6301,-4.6301,-4.6301,-4.6301,-4.6301,-4.6301,-4.6301,-4.6301,-4.6301,-4.6301,0.0,0.0,0.0,0.0,0.0,0.0,0.0,-5.0152,0.0,-5.2606,-5.3324,-5.3425,-5.2654,-5.1893,-5.0628,-4.8767,-4.786,-4.7146,-4.6361,-4.6301,-4.6301,-4.6301,-4.6301,0.0,-4.6301,-4.605,-4.5497,-4.4669,-4.3263,-4.1882,-4.0526,0.0,0.0,0.0,0.0,-3.7538,0.0,0.0,0.0,-4.1882,-4.3263,-4.4493,-4.5522,-4.5799,-4.6075,-4.6376,-4.6928,-4.7305,-4.7531,-4.7531,-4.7908,-4.836,-4.836,-4.856,-4.8786,-4.8786,-4.8786,-4.8786,-4.8786,-4.8786,-4.8786,-4.8786,-4.8786,-4.8711,-4.841,-4.836,-4.8134,-4.7305,-4.6702,-4.5874,-4.4493,-4.3338,0.0,0.0,0.0,0.0,0.0,0.0,0.0,0.0,0.0,0.0,0.0,0.0,0.0,0.0,0.0,0.0,0.0,0.0,0.0,0.0,0.0,0.0,0.0,0.0,0.0,-4.2213,-4.271,-4.3564,-4.4644,-4.5221,-4.5799,-4.6301,-4.6301,-4.6301,-4.6301,-4.6301,-4.6301,-4.6301,-4.6301,-4.6301,-4.6301,-4.6301,-4.6301,-4.6301,0.0,-4.3569,0.0,0.0,-4.704,0.0,0.0,-5.2306,-5.3593,-5.4132,-5.4341,-5.451,-5.4684,-5.3675,-5.2241,-5.038,-4.9194,-4.786,-4.6421,-4.6301,-4.6301,-4.6301,-4.6301,-4.6301,-4.6301,-4.6301,-4.605,0.0,-4.3915,-4.2585,0.0,0.0,0.0,0.0,0.0,0.0,0.0,0.0,-4.158,-4.2811,-4.4242,-4.5146,-4.5723,-4.615,-4.6301,-4.6401,-4.7054,-4.7556,-4.7933,-4.8184,-4.856,-4.8937,-4.8937,-4.9238,-4.959,-4.959,-4.959,-4.959,-4.959,-4.959,-4.959,-4.959,-4.959,-4.949,-4.9038,-4.8937,-4.8786,-4.8209,-4.723,-4.6225,-4.5321,-4.4618,0.0,0.0,0.0,0.0,0.0,0.0,0.0,0.0,0.0,0.0,0.0,0.0,0.0,0.0,0.0,-3.6405,-3.6405,-3.6885,0.0,0.0,0.0,-3.9898,-4.035,0.0,-4.1781,0.0,-4.2886,-4.374,-4.4819,-4.5271,-4.5799,-4.6301,-4.6301,-4.6301,-4.6301,-4.6301,-4.6301,-4.6301,-4.6301,-4.6301,-4.6301,-4.6301,-4.6301,-4.6301,0.0,0.0,0.0,0.0,0.0,0.0,0.0,-5.3593,-5.4132,-5.4192,-5.473,-5.4633,-5.3332,-5.3069,-5.1863,-4.8965,-4.8589,-4.786,-4.6421,-4.6301,-4.6301,-4.6301,-4.6301,-4.6301,-4.6301,-4.6301,-4.605,0.0,0.0,-4.3162,0.0,0.0,0.0,0.0,0.0,0.0,0.0,-4.1756,-4.2911,-4.4443,-4.5121,-4.5748,-4.6225,-4.6301,-4.6301,-4.6451,-4.7481,-4.7857,-4.8058,-4.9088,-4.9464,-4.9515,-4.9515,-4.9565,-4.959,-4.959,-4.959,-4.959,-4.959,-4.959,-4.959,-4.959,-4.959,-4.959,-4.954,-4.9515,-4.9364,-4.8812,-4.7807,-4.6968,-4.6928,-4.6024,-4.497,0.0,0.0,0.0,0.0,0.0,0.0,0.0,0.0,0.0,0.0,0.0,0.0,0.0,0.0,-3.6405,-3.6405,-3.6885,-3.7211,-3.7262,0.0,-3.9722,-3.9772,-4.1358,0.0,-4.2911,-4.3463,-4.4317,-4.5422,-4.5472,-4.5799,-4.6301,-4.6301,-4.6301,-4.6301,-4.6301,-4.6301,-4.6301,-4.6301,-4.6301,-4.6301,-4.6301,-4.6301,-4.6301,0.0,0.0,0.0,0.0,0.0,0.0,0.0,-5.4371,-5.479,-5.479,-5.5029,-5.4976,-5.4355,-5.4304,-5.3466,-5.1345,-5.1181,-5.0184,-4.7743,-4.7652,-4.7265,-4.6361,-4.6301,-4.6301,-4.6301,-4.6301,-4.62,0.0,0.0,0.0,0.0,0.0,0.0,0.0,0.0,-4.2082,-4.2861,-4.3413,-4.4217,-4.5196,-4.5748,-4.6125,-4.6301,-4.6301,-4.6301,-4.6451,-4.7531,-4.7908,-4.8083,-4.9213,-4.959,-4.959,-4.959,-4.959,-4.959,-4.959,-4.959,-4.959,-4.959,-4.959,-4.959,-4.959,-4.959,-4.959,-4.959,-4.959,-4.954,-4.9314,-4.8661,-4.7908,-4.7255,-4.6778,-4.61,0.0,0.0,0.0,0.0,0.0,0.0,0.0,0.0,0.0,0.0,0.0,0.0,0.0,0.0,0.0,-3.6405,-3.6606,-3.6883,-3.7186,0.0,-3.917,-4.0174,-4.1505,-4.2665,-4.3489,-4.4392,-4.5045,-4.5497,-4.5824,-4.61,-4.6301,-4.6301,-4.6301,-4.6301,-4.6301,-4.6301,-4.6301,-4.6301,-4.6301,-4.6301,-4.6301,-4.6301,-4.6301,-5.1887,0.0,-5.2007,0.0,-5.3174,-5.3713,-5.4401,-5.491,-5.5179,-5.5179,-5.5179,-5.5179,-5.5179,-5.5179,-5.4641,-5.3121,-5.3016,-5.1755,-4.8705,-4.8474,-4.7802,-4.6361,-4.6301,0.0,-4.6301,-4.6301,-4.6301,-4.6301,-4.497,0.0,0.0,0.0,0.0,0.0,-4.3137,-4.3765,-4.4317,-4.4719,-4.5196,-4.5773,-4.615,-4.6301,-4.6301,-4.6301,-4.6301,-4.6451,-4.7531,-4.7908,-4.8083,-4.9213,-4.959,-4.959,-4.959,-4.959,-4.959,-4.959,-4.959,-4.959,-4.959,-4.959,-4.959,-4.959,-4.959,-4.959,-4.959,-4.959,-4.959,-4.959,-4.9163,-4.8535,-4.7757,-4.7355,-4.6828,-4.5874,0.0,0.0,0.0,0.0,0.0,0.0,-4.1781,-4.0924,-4.0023,0.0,0.0,0.0,0.0,0.0,-3.643,-3.6405,0.0,0.0,0.0,0.0,0.0,-4.1279,-4.2559,-4.3815,-4.4945,-4.5573,-4.5748,-4.6125,-4.6301,-4.6301,-4.6301,-4.6301,-4.6301,-4.6301,-4.6301,-4.6301,-4.6301,-4.6301,-4.6301,-4.6301,-4.6301,-4.6301,-5.3144,-5.3144,-5.3384,-5.4072,-5.4192,-5.4431,-5.5089,-5.5179,-5.5179,-5.5179,-5.5179,-5.5179,-5.5179,-5.5179,-5.4641,-5.3121,-5.3016,-5.1755,-4.8705,-4.8474,-4.7802,0.0,0.0,-4.6301,-4.6301,-4.6301,-4.6301,-4.6301,0.0,0.0,-4.379,0.0,-4.2961,-4.3011,-4.4116,-4.492,-4.5472,-4.5472,-4.5799,-4.6301,-4.6301,-4.6301,-4.6301,-4.6301,-4.6301,-4.6451,-4.7531,-4.7908,-4.8083,-4.9213,-4.959,-4.959,-4.959,-4.959,-4.959,-4.959,-4.959,-4.959,-4.959,-4.959,-4.959,-4.959,-4.959,-4.959,-4.959,-4.959,-4.959,-4.959,-4.9163,-4.8761,-4.8761,-4.7857,-4.6892,-4.6401,0.0,0.0,0.0,0.0,0.0,0.0,-4.2007,-4.1075,-4.0551,0.0,0.0,0.0,0.0,0.0,0.0,0.0,0.0,-3.6405,-3.6958,0.0,-3.8919,-4.0526,-4.2183,-4.3815,-4.4945,-4.5773,-4.6301,-4.6301,-4.6301,-4.6301,-4.6301,-4.6301,-4.6301,-4.6301,-4.6301,-4.6301,-4.6301,-4.6301,-4.6301,-4.6301,-4.6301,-4.6301,-5.4551,-5.4551,-5.461,-5.485,-5.488,-5.494,-5.5149,-5.5179,-5.5179,-5.5179,-5.5179,-5.5179,-5.5179,-5.5179,-5.5027,0.0,-5.4509,-5.3675,0.0,-5.1592,-5.0407,-4.7919,-4.8793,-4.8358,-4.6361,-4.7324,-4.7324,-4.6301,0.0,0.0,0.0,-4.4593,-4.4694,-4.4719,-4.5447,-4.5874,-4.605,-4.605,-4.615,-4.6301,-4.6301,-4.6301,-4.6301,-4.6301,-4.6301,-4.6451,-4.7531,-4.7908,-4.8083,-4.9213,-4.959,-4.959,-4.959,-4.959,-4.959,-4.959,-4.959,-4.959,-4.959,-4.959,-4.959,-4.959,-4.959,-4.959,-4.959,-4.959,-4.959,-4.959,-4.9464,-4.9213,-4.8837,-4.8159,-4.7481,-4.6954,-4.6401,0.0,0.0,0.0,0.0,0.0,-4.1128,-4.0149,0.0,-3.9295,0.0,0.0,0.0,0.0,0.0,0.0,0.0,0.0,-3.804,0.0,-3.9973,-4.1254,-4.2735,-4.4367,-4.5121,-4.5773,-4.6301,-4.6301,-4.6301,-4.6301,-4.6301,-4.6301,-4.6301,-4.6301,-4.6301,-4.6301,-4.6301,-4.6301,-4.6301,-4.6301,-4.6301,-4.6301,-5.5179,-5.5179,-5.5179,-5.5179,-5.5179,-5.5179,-5.5179,-5.5179,-5.5179,-5.5179,-5.5179,-5.5179,-5.5179,-5.5179,0.0,-5.5179,-5.5179,-5.459,-5.3069,-5.3016,-5.1917,-4.9451,-5.0212,-4.9565,-4.7205,0.0,0.0,-4.6301,-4.5748,-4.5296,-4.4945,-4.5321,-4.5497,-4.5522,-4.6075,-4.6301,-4.6301,-4.6301,-4.6301,-4.6301,-4.6301,-4.6301,-4.6301,-4.6301,-4.6301,-4.6451,-4.7531,-4.7908,-4.8083,-4.9213,-4.959,-4.959,-4.959,-4.959,-4.959,-4.959,-4.959,-4.959,-4.959,-4.959,-4.959,-4.959,-4.959,-4.959,-4.959,-4.959,-4.959,-4.959,-4.959,-4.949,-4.9138,-4.8435,-4.7807,-4.7481,-4.6803,-4.6125,-4.5573,0.0,0.0,0.0,0.0,0.0,0.0,-4.0352,0.0,0.0,0.0,0.0,0.0,0.0,0.0,-3.8642,-3.8994,0.0,-4.0501,-4.1605,-4.2942,-4.4317,-4.5321,-4.5974,-4.6301,-4.6301,-4.6301,-4.6301,-4.6301,-4.6301,-4.6301,-4.6301,-4.6301,-4.6301,-4.6301,-4.6301,-4.6301,-4.6301,-4.6301,-4.6301,-5.5179,-5.5179,0.0,0.0,-5.5179,0.0,-5.5179,-5.5179,-5.5179,-5.5179,-5.5179,-5.5179,-5.5179,-5.5179,-5.5179,-5.5179,0.0,0.0,0.0,-5.3121,-5.2455,-5.0933,-5.0989,-5.0212,-4.8532,-4.8589,-4.786,-4.6301,-4.5799,-4.5547,-4.5547,-4.5547,-4.5547,-4.5573,-4.6075,-4.6301,-4.6301,-4.6301,-4.6301,-4.6301,-4.6301,-4.6301,-4.6301,-4.6301,-4.6301,-4.6451,-4.7481,-4.7883,-4.8083,-4.9163,-4.9565,-4.959,-4.959,-4.959,-4.959,-4.959,-4.959,-4.959,-4.959,-4.959,-4.959,-4.959,-4.959,-4.959,-4.959,-4.959,-4.959,-4.959,-4.959,-4.959,-4.959,-4.8661,-4.7908,-4.7908,-4.7004,-4.6125,-4.5573,0.0,0.0,0.0,0.0,0.0,0.0,-4.2313,-4.2564,0.0,0.0,0.0,0.0,0.0,-3.9998,-3.9923,-3.9923,-4.0174,-4.0727,-4.1756,-4.2866,-4.394,-4.5547,-4.6301,-4.6301,-4.6301,-4.6301,-4.6301,-4.6301,-4.6301,-4.6301,-4.6301,-4.6301,-4.6301,-4.6301,-4.6301,-4.6301,-4.6301,-4.6301,-4.6301,0.0,0.0,-5.5179,-5.5179,-5.5179,-5.5179,-5.5179,-5.5179,-5.5179,-5.5179,-5.5179,-5.5179,-5.5179,-5.5179,-5.5179,-5.5179,-5.5179,-5.5027,-5.4692,-5.4692,-5.4016,-5.2509,-5.3518,-5.2348,-4.8589,-4.9621,-4.8908,-4.6301,-4.6175,-4.6125,-4.6125,-4.6125,-4.6125,-4.6125,-4.625,-4.6301,-4.6301,-4.6301,-4.6301,-4.6301,-4.6301,-4.6301,-4.6301,-4.6301,-4.6301,-4.6401,-4.7079,-4.7581,-4.8008,-4.8736,-4.9238,-4.959,-4.959,-4.959,-4.959,-4.959,-4.959,-4.959,-4.959,-4.959,-4.959,-4.959,-4.959,-4.959,-4.959,-4.959,-4.959,-4.959,-4.959,-4.959,-4.959,-4.8661,-4.7908,-4.7908,-4.7004,-4.6125,-4.5573,-4.4618,0.0,0.0,-4.2539,-4.2363,-4.2791,-4.3162,-4.3639,0.0,0.0,0.0,0.0,-4.374,-4.3062,-4.2233,-4.2208,-4.2459,-4.3011,-4.3288,-4.3966,-4.5095,-4.5924,-4.6301,-4.6301,-4.6301,-4.6301,-4.6301,-4.6301,-4.6301,-4.6301,-4.6301,-4.6301,-4.6301,-4.6301,-4.6301,-4.6301,-4.6301,-4.6301,-4.6301,-5.5179,-5.5179,-5.5179,-5.5179,-5.5179,-5.5179,-5.5179,-5.5179,-5.5179,-5.5179,-5.5179,-5.5179,-5.5179,-5.5179,-5.5179,-5.5179,-5.5179,-5.5179,-5.5179,-5.5179,-5.4845,-5.4016,-5.4743,-5.3756,-5.0629,-5.0657,-4.9281,-4.6301,-4.6301,-4.6301,-4.6301,-4.6301,-4.6301,-4.6301,-4.6301,-4.6301,-4.6301,-4.6301,-4.6301,-4.6301,-4.6301,-4.6301,-4.6301,-4.6301,-4.6301,-4.6376,-4.6928,-4.7305,-4.7682,-4.8485,-4.8962,-4.9264,-4.9515,-4.959,-4.959,-4.959,-4.959,-4.959,-4.959,-4.959,-4.959,-4.959,-4.959,-4.959,-4.959,-4.959,-4.959,-4.959,-4.959,-4.959,-4.959,-4.8661,-4.7908,-4.7908,-4.7004,-4.6125,-4.5573,-4.497,0.0,-4.379,-4.3463,-4.3514,-4.4066,-4.4392,-4.4794,-4.5347,0.0,0.0,-4.5397,-4.5397,-4.4895,-4.3765,-4.374,-4.3865,-4.4166,-4.4443,-4.4995,-4.5874,-4.6175,-4.6301,-4.6301,-4.6301,-4.6301,-4.6301,-4.6301,-4.6301,-4.6301,-4.6301,-4.6301,-4.6301,-4.6301,-4.6301,-4.6301,-4.6301,-4.6301,-4.6301,-5.5179,-5.5179,-5.5179,-5.5179,-5.5179,-5.5179,-5.5179,-5.5179,-5.5179,-5.5179,-5.5179,-5.5179,-5.5179,-5.5179,-5.5179,-5.5179,-5.5179,-5.5179,-5.5179,-5.5179,-5.5179,-5.5179,-5.5179,-5.4509,-5.3016,-5.1263,-4.8996,-4.6301,-4.6301,-4.6301,-4.6301,-4.6301,-4.6301,-4.6301,-4.6301,-4.6301,-4.6301,-4.6301,-4.6301,-4.6301,-4.6301,-4.6301,-4.6301,-4.6301,-4.6301,-4.6376,-4.6853,-4.7054,-4.728,-4.8209,-4.8586,-4.8736,-4.9289,-4.9464,-4.949,-4.9565,-4.959,-4.959,-4.959,-4.959,-4.959,-4.959,-4.959,-4.959,-4.959,-4.959,-4.959,-4.959,-4.959,-4.959,-4.959,-4.8661,-4.7908,-4.7908,-4.7004,-4.615,-4.5673,0.0,-4.5296,-4.4819,-4.4744,-4.4945,-4.5447,-4.5573,-4.5799,-4.6276,-4.6301,-4.6301,0.0,-4.6301,-4.5874,-4.492,-4.4869,-4.4869,-4.4869,-4.5372,-4.5849,-4.6301,-4.6301,-4.6301,-4.6301,-4.6301,-4.6301,-4.6301,-4.6301,-4.6301,-4.6301,-4.6301,-4.6301,-4.6301,-4.6301,-4.6301,-4.6301,-4.6301,-4.6301,-4.6301,-5.5179,-5.5179,-5.5179,-5.5179,-5.5179,-5.5179,-5.5179,-5.5179,-5.5179,-5.5179,-5.5179,-5.5179,-5.5179,-5.5179,-5.5179,-5.5179,-5.5179,-5.5179,-5.5179,-5.5179,-5.5179,-5.5179,-5.5179,-5.4509,-5.3016,-5.024,-4.8035,-4.6301,-4.6301,-4.6301,-4.6301,-4.6301,-4.6301,-4.6301,-4.6301,-4.6301,-4.6301,-4.6301,-4.6301,-4.6301,-4.6301,-4.6301,-4.6301,-4.6301,-4.6301,-4.6326,-4.6401,-4.6753,-4.7093,-4.733,-4.7682,-4.8134,-4.8711,-4.8912,-4.8987,-4.9464,-4.959,-4.959,-4.959,-4.959,-4.959,-4.959,-4.959,-4.959,-4.959,-4.959,-4.959,-4.959,-4.959,-4.959,-4.959,-4.8661,-4.7908,-4.7908,-4.7004,-4.6276,-4.62,0.0,-4.5447,-4.5372,-4.5347,-4.5397,-4.5472,-4.5899,-4.6225,-4.6301,-4.6301,-4.6301,-4.6301,-4.6301,-4.6225,-4.605,-4.605,-4.605,-4.605,-4.6125,-4.6225,-4.6301,-4.6301,-4.6301,-4.6301,-4.6301,-4.6301,-4.6301,-4.6301,-4.6301,-4.6301,-4.6301,-4.6301,-4.6301,-4.6301,-4.6301,-4.6301,-4.6301,-4.6301,-4.6301,-5.5179,-5.5179,-5.5179,-5.5179,-5.5179,-5.5179,-5.5179,-5.5179,-5.5179,-5.5179,-5.5179,-5.5179,-5.5179,-5.5179,-5.5179,-5.5179,-5.5179,-5.5179,-5.5179,-5.5179,-5.5179,-5.5179,-5.5179,-5.4509,-5.3016,-5.1646,-5.0184,-4.8678,-4.786,-4.7475,-4.7475,-4.6636,-4.6301,-4.6301,-4.6301,-4.6301,-4.6301,-4.6301,-4.6301,-4.6301,-4.6301,-4.6301,-4.6301,-4.6301,-4.6301,-4.6301,-4.6301,-4.6476,-4.6728,-4.6968,-4.728,-4.7581,-4.8134,-4.8309,-4.841,-4.8987,-4.9364,-4.959,-4.959,-4.959,-4.959,-4.959,-4.959,-4.959,-4.959,-4.959,-4.959,-4.959,-4.959,-4.9515,-4.9213,-4.846,-4.7807,-4.7531,-4.6828,0.0,0.0,-4.61,-4.5924,-4.5924,-4.5924,-4.5924,-4.5924,-4.615,-4.6301,-4.6301,-4.6301,-4.6301,-4.6301,-4.6301,-4.6301,-4.6301,-4.6301,-4.6301,-4.6301,-4.6301,-4.6301,-4.6301,-4.6301,-4.6301,-4.6301,-4.6301,-4.6301,-4.6301,-4.6301,-4.6301,-4.6301,-4.6301,-4.6301,-4.6301,-4.6301,-4.6301,-4.6301,-4.6301,-4.6301,-4.6301,-5.5179,-5.5179,-5.5179,-5.5179,-5.5179,-5.5179,-5.5179,-5.5179,-5.5179,-5.5179,-5.5179,-5.5179,-5.5179,-5.5179,-5.5179,-5.5179,-5.5179,-5.5179,-5.5179,-5.5179,-5.5179,-5.5179,-5.5179,-5.4509,-5.3016,-5.3016,-5.2213,-5.0713,-4.9224,-4.8705,-4.8965,-4.7146,-4.6481,-4.6815,-4.6481,-4.6301,-4.6301,-4.6301,-4.6301,-4.6301,-4.6301,-4.6301,-4.6301,-4.6301,-4.6301,-4.6301,-4.6301,-4.6301,-4.6376,-4.6803,-4.6892,-4.7029,-4.7556,-4.7732,-4.7832,-4.841,-4.8962,-4.9439,-4.9565,-4.959,-4.959,-4.959,-4.959,-4.959,-4.959,-4.959,-4.959,-4.959,-4.949,-4.9264,-4.8837,-4.8209,-4.7606,-4.7143,0.0,0.0,0.0,-4.6301,-4.6301,-4.6301,-4.6301,-4.6301,-4.6301,-4.6301,-4.6301,-4.6301,-4.6301,-4.6301,-4.6301,-4.6301,-4.6301,-4.6301,-4.6301,-4.6301,-4.6301,-4.6301,-4.6301,-4.6301,-4.6301,-4.6301,-4.6301,-4.6301,-4.6301,-4.6301,-4.6301,-4.6301,-4.6301,-4.6301,-4.6301,-4.6301,-4.6301,-4.6301,-4.6301,-4.6301,-4.6301,-4.6301,-5.5179,-5.5179,-5.5179,-5.5179,-5.5179,-5.5179,-5.5179,-5.5179,-5.5179,-5.5179,-5.5179,-5.5179,-5.5179,-5.5179,-5.5179,-5.5179,-5.5179,-5.5179,-5.5179,-5.5179,-5.5179,-5.5179,-5.5179,-5.4509,-5.3016,-5.3016,-5.2213,-5.0713,-4.9224,-4.9194,-5.0491,-4.7626,-4.7027,-4.8268,-4.6934,-4.6301,-4.6301,-4.6301,-4.6301,-4.6301,-4.6301,-4.6301,-4.6301,-4.6301,-4.6301,-4.6301,-4.6301,-4.6301,-4.6326,-4.6351,-4.6376,-4.6476,-4.7029,-4.7143,-4.7305,-4.7832,-4.8385,-4.8937,-4.9464,-4.959,-4.959,-4.959,-4.959,-4.959,-4.959,-4.959,-4.959,-4.959,-4.9188,-4.8812,-4.8786,-4.7908,-4.7179,-4.7093,0.0,0.0,-4.6301,-4.6301,-4.6301,-4.6301,-4.6301,-4.6301,-4.6301,-4.6301,-4.6301,-4.6301,-4.6301,-4.6301,-4.6301,-4.6301,-4.6301,-4.6301,-4.6301,-4.6301,-4.6301,-4.6301,-4.6301,-4.6301,-4.6301,-4.6301,-4.6301,-4.6301,-4.6301,-4.6301,-4.6301,-4.6301,-4.6301,-4.6301,-4.6301,-4.6301,-4.6301,-4.6301,-4.6301,-4.6301,-4.6301,-4.6301,-5.5179,-5.5179,-5.5179,-5.5179,-5.5179,-5.5179,-5.5179,-5.5179,-5.5179,-5.5179,-5.5179,-5.5179,-5.5179,-5.5179,-5.5179,-5.5179,-5.5179,-5.5179,-5.5179,-5.5179,-5.5179,-5.5179,-5.5179,-5.4976,-5.4355,-5.4355,-5.4068,-5.3489,-5.1044,-5.0157,-5.0657,-4.7684,-4.6576,-4.7087,-4.6541,-4.6301,-4.6301,-4.6301,-4.6301,-4.6301,-4.6301,-4.6301,-4.6301,-4.6301,-4.6301,-4.6301,-4.6301,-4.6301,-4.6301,-4.6301,-4.6301,-4.6351,-4.6552,-4.6627,-4.6728,-4.728,-4.7807,-4.8284,-4.8485,-4.9063,-4.959,-4.959,-4.959,-4.959,-4.959,-4.959,-4.949,-4.9163,-4.8912,-4.856,-4.7883,-4.7405,-4.7029,-4.6677,0.0,-4.6301,-4.6301,-4.6301,-4.6301,-4.6301,-4.6301,-4.6301,-4.6301,-4.6301,-4.6301,-4.6301,-4.6301,-4.6301,-4.6301,-4.6301,-4.6301,-4.6301,-4.6301,-4.6301,-4.6301,-4.6301,-4.6301,-4.6301,-4.6301,-4.6301,-4.6301,-4.6301,-4.6301,-4.6301,-4.6301,-4.6301,-4.6301,-4.6301,-4.6301,-4.6301,-4.6301,-4.6301,-4.6301,-4.6301,-4.6301,-4.6301,-5.5179,-5.5179,-5.5179,-5.5179,-5.5179,-5.5179,-5.5179,-5.5179,-5.5179,-5.5179,-5.5179,-5.5179,-5.5179,-5.5179,-5.5179,-5.5179,-5.5179,-5.5179,-5.5179,-5.5179,-5.5179,-5.5179,-5.5179,-5.5179,-5.5179,-5.5179,-5.5179,-5.5179,-5.2669,-5.1644,-5.2051,-4.8589,-4.7265,-4.7626,-4.6695,-4.6301,-4.6301,-4.6301,-4.6301,-4.6301,-4.6301,-4.6301,-4.6301,-4.6301,-4.6301,-4.6301,-4.6301,-4.6301,-4.6301,-4.6301,-4.6301,-4.6301,-4.6301,-4.6301,-4.6376,-4.6753,-4.7255,-4.7657,-4.7657,-4.836,-4.9063,-4.9063,-4.9063,-4.9063,-4.9063,-4.9063,-4.8962,-4.8586,-4.836,-4.8033,-4.728,-4.6943,-4.6753,-4.6376,-4.6301,-4.6301,-4.6301,-4.6301,-4.6301,-4.6301,-4.6301,-4.6301,-4.6301,-4.6301,-4.6301,-4.6301,-4.6301,-4.6301,-4.6301,-4.6301,-4.6301,-4.6301,-4.6301,-4.6301,-4.6301,-4.6301,-4.6301,-4.6301,-4.6301,-4.6301,-4.6301,-4.6301,-4.6301,-4.6301,-4.6301,-4.6301,-4.6301,-4.6301,-4.6301,-4.6301,-4.6301,-4.6301,-4.6301,-4.6301,-4.6301,-4.6301,-5.5179,-5.5179,-5.5179,-5.5179,-5.5179,-5.5179,-5.5179,-5.5179,-5.5179,-5.5179,-5.5179,-5.5179,-5.5179,-5.5179,-5.5179,-5.5179,-5.5179,-5.5179,-5.5179,-5.5179,-5.5179,-5.5179,-5.5179,-5.5179,-5.5179,-5.5179,-5.5179,-5.5179,-5.3727,-5.3756,-5.5078,-5.0574,-4.9281,-5.0546,-4.7626,-4.6301,-4.6301,-4.6301,-4.6301,-4.6301,-4.6301,-4.6301,-4.6301,-4.6301,-4.6301,-4.6301,-4.6301,-4.6301,-4.6301,-4.6301,-4.6301,-4.6301,-4.6301,-4.6301,-4.6301,-4.6301,-4.6702,-4.7068,-4.7068,-4.7506,-4.7908,-4.7908,-4.7908,-4.7908,-4.7908,-4.7908,-4.7908,-4.7908,-4.7481,-4.7068,-4.7068,-4.6677,-4.6301,-4.6301,-4.6301,-4.6301,-4.6301,-4.6301,-4.6301,-4.6301,-4.6301,-4.6301,-4.6301,-4.6301,-4.6301,-4.6301,-4.6301,-4.6301,-4.6301,-4.6301,-4.6301,-4.6301,-4.6301,-4.6301,-4.6301,-4.6301,-4.6301,-4.6301,-4.6301,-4.6301,-4.6301,-4.6301,-4.6301,-4.6301,-4.6301,-4.6301,-4.6301,-4.6301,-4.6301,-4.6301,-4.6301,-4.6301,-4.6301,-4.6301,-4.6301,-4.6301,-5.5179,-5.5179,-5.5179,-5.5179,-5.5179,-5.5179,-5.5179,-5.5179,-5.5179,-5.5179,-5.5179,-5.5179,-5.5179,-5.5179,-5.5179,-5.5179,-5.5179,-5.5179,-5.5179,-5.5179,-5.5179,-5.5179,-5.5179,-5.5179,-5.5179,-5.5179,-5.5179,-5.5179,-5.3727,-5.3256,-5.3571,-5.1181,-4.9734,-4.9137,-4.8242,-4.7265,-4.6301,-4.6301,-4.6301,-4.6301,-4.6301,-4.6301,-4.6301,-4.6301,-4.6301,-4.6301,-4.6301,-4.6301,-4.6301,-4.6301,-4.6301,-4.6301,-4.6301,-4.6301,-4.6301,-4.6301,-4.6426,-4.6552,-4.6552,-4.6677,-4.6979,-4.7732,-4.7908,-4.7908,-4.7908,-4.7908,-4.7807,-4.7431,-4.7193,-4.7029,-4.6627,-4.6426,-4.6301,-4.6301,-4.6301,-4.6301,-4.6301,-4.6301,-4.6301,-4.6301,-4.6301,-4.6301,-4.6301,-4.6301,-4.6301,-4.6301,-4.6301,-4.6301,-4.6301,-4.6301,-4.6301,-4.6301,-4.6301,-4.6301,-4.6301,-4.6301,-4.6301,-4.6301,-4.6301,-4.6301,-4.6301,-4.6301,-4.6301,-4.6301,-4.6301,-4.6301,-4.6301,-4.6301,-4.6301,-4.6301,-4.6301,-4.6301,-4.6301,-4.6301,-4.6301,-4.6301,-5.5179,-5.5179,-5.5179,-5.5179,-5.5179,-5.5179,-5.5179,-5.5179,-5.5179,-5.5179,-5.5179,-5.5179,-5.5179,-5.5179,-5.5179,-5.5179,-5.5179,-5.5179,-5.5179,-5.5179,-5.5179,-5.5179,-5.5179,-5.5179,-5.5179,-5.5179,-5.5179,-5.5179,-5.4304,-5.386,-5.386,-5.2348,-5.1126,-5.024,-4.9022,-4.7977,-4.7146,-4.6541,-4.6301,-4.6301,-4.6301,-4.6301,-4.6301,-4.6301,-4.6301,-4.6301,-4.6301,-4.6301,-4.6301,-4.6301,-4.6301,-4.6301,-4.6301,-4.6301,-4.6301,-4.6301,-4.6301,-4.6301,-4.6301,-4.6301,-4.6476,-4.7129,-4.728,-4.728,-4.728,-4.728,-4.7179,-4.6878,-4.6803,-4.6702,-4.6376,-4.6301,-4.6301,-4.6301,-4.6301,-4.6301,-4.6301,-4.6301,-4.6301,-4.6301,-4.6301,-4.6301,-4.6301,-4.6301,-4.6301,-4.6301,-4.6301,-4.6301,-4.6301,-4.6301,-4.6301,-4.6301,-4.6301,-4.6301,-4.6301,-4.6301,-4.6301,-4.6301,-4.6301,-4.6301,-4.6301,-4.6301,-4.6301,-4.6301,-4.6301,-4.6301,-4.6301,-4.6301,-4.6301,-4.6301,-4.6301,-4.6301,-4.6301,-4.6301,-4.6301,-4.6301,-5.5179,-5.5179,-5.5179,-5.5179,-5.5179,-5.5179,-5.5179,-5.5179,-5.5179,-5.5179,-5.5179,-5.5179,-5.5179,-5.5179,-5.5179,-5.5179,-5.5179,-5.5179,-5.5179,-5.5179,-5.5179,-5.5179,-5.5179,-5.5179,-5.5179,-5.5179,-5.5179,-5.5179,-5.5179,-5.5179,-5.5179,-5.386,-5.3121,-5.2857,-5.0128,-4.882,-4.8589,-4.7146,-4.6481,-4.6481,-4.6361,-4.6301,-4.6301,-4.6301,-4.6301,-4.6301,-4.6301,-4.6301,-4.6301,-4.6301,-4.6301,-4.6301,-4.6301,-4.6301,-4.6301,-4.6301,-4.6301,-4.6301,-4.6301,-4.6301,-4.6301,-4.6301,-4.6301,-4.6301,-4.6301,-4.6301,-4.6301,-4.6301,-4.6301,-4.6301,-4.6301,-4.6301,-4.6301,-4.6301,-4.6301,-4.6301,-4.6301,-4.6301,-4.6301,-4.6301,-4.6301,-4.6301,-4.6301,-4.6301,-4.6301,-4.6301,-4.6301,-4.6301,-4.6301,-4.6301,-4.6301,-4.6301,-4.6301,-4.6301,-4.6301,-4.6301,-4.6301,-4.6301,-4.6301,-4.6301,-4.6301,-4.6301,-4.6301,-4.6301,-4.6301,-4.6301,-4.6301,-4.6301,-4.6301,-4.6301,-4.6301,-4.6301,-4.6301,-4.6301,-4.6301,-4.6301,-5.5179,-5.5179,-5.5179,-5.5179,-5.5179,-5.5179,-5.5179,-5.5179,-5.5179,-5.5179,-5.5179,-5.5179,-5.5179,-5.5179,-5.5179,-5.5179,-5.5179,-5.5179,-5.5179,-5.5179,-5.5179,-5.5179,-5.5179,-5.5179,-5.5179,-5.5179,-5.5179,-5.5179,-5.5179,-5.5179,-5.5179,-5.4845,-5.4119,-5.2963,-5.2295,-5.1345,-5.0101,-4.8647,-4.8035,-4.7919,-4.6755,-4.6301,-4.6301,-4.6301,-4.6301,-4.6301,-4.6301,-4.6301,-4.6301,-4.6301,-4.6301,-4.6301,-4.6301,-4.6301,-4.6301,-4.6301,-4.6301,-4.6301,-4.6301,-4.6301,-4.6301,-4.6301,-4.6301,-4.6301,-4.6301,-4.6301,-4.6301,-4.6301,-4.6301,-4.6301,-4.6301,-4.6301,-4.6301,-4.6301,-4.6301,-4.6301,-4.6301,-4.6301,-4.6301,-4.6301,-4.6301,-4.6301,-4.6301,-4.6301,-4.6301,-4.6301,-4.6301,-4.6301,-4.6301,-4.6301,-4.6301,-4.6301,-4.6301,-4.6301,-4.6301,-4.6301,-4.6301,-4.6301,-4.6301,-4.6301,-4.6301,-4.6301,-4.6301,-4.6301,-4.6301,-4.6301,-4.6301,-4.6301,-4.6301,-4.6301,-4.6301,-4.6301,-4.6301,-4.6301,-4.6301,-4.6301,-5.5179,-5.5179,-5.5179,-5.5179,-5.5179,-5.5179,-5.5179,-5.5179,-5.5179,-5.5179,-5.5179,-5.5179,-5.5179,-5.5179,-5.5179,-5.5179,-5.5179,-5.5179,-5.5179,-5.5179,-5.5179,-5.5179,-5.5179,-5.5179,-5.5179,-5.5179,-5.5179,-5.5179,-5.5179,-5.5179,-5.5179,-5.5179,-5.4794,-5.4016,-5.3308,-5.2562,-5.1727,-5.0184,-4.9137,-4.8416,-4.7652,-4.6934,-4.6301,-4.6301,-4.6301,-4.6301,-4.6301,-4.6301,-4.6301,-4.6301,-4.6301,-4.6301,-4.6301,-4.6301,-4.6301,-4.6301,-4.6301,-4.6301,-4.6301,-4.6301,-4.6301,-4.6301,-4.6301,-4.6301,-4.6301,-4.6301,-4.6301,-4.6301,-4.6301,-4.6301,-4.6301,-4.6301,-4.6301,-4.6301,-4.6301,-4.6301,-4.6301,-4.6301,-4.6301,-4.6301,-4.6301,-4.6301,-4.6301,-4.6301,-4.6301,-4.6301,-4.6301,-4.6301,-4.6301,-4.6301,-4.6301,-4.6301,-4.6301,-4.6301,-4.6301,-4.6301,-4.6301,-4.6301,-4.6301,-4.6301,-4.6301,-4.6301,-4.6301,-4.6301,-4.6301,-4.6301,-4.6301,-4.6301,-4.6301,-4.6301,-4.6301,-4.6301,-4.6301,-4.6301,-4.6301,-4.6301,-5.5229,-5.5179,-5.5179,-5.5179,-5.5179,-5.5179,-5.5179,-5.5179,-5.5179,-5.5179,-5.5179,-5.5179,-5.5179,-5.5179,-5.5179,-5.5179,-5.5179,-5.5179,-5.5179,-5.5179,-5.5179,-5.5179,-5.5179,-5.5179,-5.5179,-5.5179,-5.5179,-5.5179,-5.5179,-5.5179,-5.5179,-5.5179,-5.5179,-5.5128,-5.3912,-5.3361,-5.3308,-5.1727,-5.038,-4.9194,-4.8705,-4.7769,-4.6636,-4.6421,-4.6301,-4.6301,-4.6301,-4.6301,-4.6301,-4.6301,-4.6301,-4.6301,-4.6301,-4.6301,-4.6301,-4.6301,-4.6301,-4.6301,-4.6301,-4.6301,-4.6301,-4.6301,-4.6301,-4.6301,-4.6301,-4.6301,-4.6301,-4.6301,-4.6301,-4.6301,-4.6301,-4.6301,-4.6301,-4.6301,-4.6301,-4.6301,-4.6301,-4.6301,-4.6301,-4.6301,-4.6301,-4.6301,-4.6301,-4.6301,-4.6301,-4.6301,-4.6301,-4.6301,-4.6301,-4.6301,-4.6301,-4.6301,-4.6301,-4.6301,-4.6301,-4.6301,-4.6301,-4.6301,-4.6301,-4.6301,-4.6301,-4.6301,-4.6301,-4.6301,-4.6301,-4.6301,-4.6301,-4.6301,-4.6301,-4.6301,-4.6301,-4.6301,-4.6301,-4.6301,-4.6301,-4.6301,-5.5401,-5.5179,-5.5179,-5.5179,-5.5179,-5.5179,-5.5179,-5.5179,-5.5179,-5.5179,-5.5179,-5.5179,-5.5179,-5.5179,-5.5179,-5.5179,-5.5179,-5.5179,-5.5179,-5.5179,-5.5179,-5.5179,-5.5179,-5.5179,-5.5179,-5.5179,-5.5179,-5.5179,-5.5179,-5.5179,-5.5179,-5.5179,-5.5179,-5.5179,-5.4976,-5.4896,-5.4794,-5.3308,-5.2562,-5.2133,-4.9535,-4.8358,-4.8035,-4.6815,-4.6301,-4.6301,-4.6301,-4.6301,-4.6301,-4.6301,-4.6301,-4.6301,-4.6301,-4.6301,-4.6301,-4.6301,-4.6301,-4.6301,-4.6301,-4.6301,-4.6301,-4.6301,-4.6301,-4.6301,-4.6301,-4.6301,-4.6301,-4.6301,-4.6301,-4.6301,-4.6301,-4.6301,-4.6301,-4.6301,-4.6301,-4.6301,-4.6301,-4.6301,-4.6301,-4.6301,-4.6301,-4.6301,-4.6301,-4.6301,-4.6301,-4.6301,-4.6301,-4.6301,-4.6301,-4.6301,-4.6301,-4.6301,-4.6301,-4.6301,-4.6301,-4.6301,-4.6301,-4.6301,-4.6301,-4.6301,-4.6301,-4.6301,-4.6301,-4.6301,-4.6301,-4.6301,-4.6301,-4.6301,-4.6301,-4.6301,-4.6301,-4.6301,-4.6301,-4.6301,-4.6301,-4.6301,-5.6329,-5.5651,-5.5179,-5.5179,-5.5179,-5.5179,-5.5179,-5.5179,-5.5179,-5.5179,-5.5179,-5.5179,-5.5179,-5.5179,-5.5179,-5.5179,-5.5179,-5.5179,-5.5179,-5.5179,-5.5179,-5.5179,-5.5179,-5.5179,-5.5179,-5.5179,-5.5179,-5.5179,-5.5179,-5.5179,-5.5179,-5.5179,-5.5179,-5.5179,-5.5179,-5.5179,-5.5128,-5.4509,-5.3756,-5.2857,-5.1537,-5.0518,-4.9565,-4.8094,-4.7534,-4.7416,-4.6576,-4.6301,-4.6301,-4.6301,-4.6301,-4.6301,-4.6301,-4.6301,-4.6301,-4.6301,-4.6301,-4.6301,-4.6301,-4.6301,-4.6301,-4.6301,-4.6301,-4.6301,-4.6301,-4.6301,-4.6301,-4.6301,-4.6301,-4.6301,-4.6301,-4.6301,-4.6301,-4.6301,-4.6301,-4.6301,-4.6301,-4.6301,-4.6301,-4.6301,-4.6301,-4.6301,-4.6301,-4.6301,-4.6301,-4.6301,-4.6301,-4.6301,-4.6301,-4.6301,-4.6301,-4.6301,-4.6301,-4.6301,-4.6301,-4.6301,-4.6301,-4.6301,-4.6301,-4.6301,-4.6301,-4.6301,-4.6301,-4.6301,-4.6301,-4.6301,-4.6301,-4.6301,-4.6301,-4.6301,-4.6301,-4.6301,-4.6301,-4.6301,-4.6301,-4.6301]},{"header":{"parameterUnit":"m.s-1","parameterCategory":1,"la1":30.6,"la2":28.766,"lo1":-90.7593,"lo2":-88.6598,"dy":0.0162,"dx":0.0183,"nx":116,"ny":114,"refTime":"2023-06-12T12:00:00:Z","depth":0,"parameterNumber":3,"parameterNumberName":"V-component_of_WINDS"},"data":[0.0,0.0,0.0,0.0,0.0,0.0,0.0,0.0,0.0,0.0,0.0,0.0,0.0,0.0,0.0,0.0,0.0,0.0,0.0,0.0,0.0,0.0,0.0,0.0,0.0,0.0,0.0,0.0,0.0,0.0,0.0,0.0,0.0,0.0,0.0,0.0,0.0,0.0,0.0,0.0,0.0,0.0,0.0,0.0,0.0,0.0,0.0,0.0,0.0,0.0,0.0,0.0,0.0,0.0,0.0,0.0,0.0,0.0,0.0,0.0,0.0,0.0,0.0,0.0,0.0,0.0,0.0,0.0,0.0,0.0,0.0,0.0,0.0,0.0,0.0,0.0,0.0,0.0,0.0,0.0,0.0,0.0,0.0,0.0,0.0,0.0,0.0,0.0,0.0,0.0,0.0,0.0,0.0,0.0,0.0,0.0,0.0,0.0,0.0,0.0,0.0,0.0,0.0,0.0,0.0,0.0,0.0,0.0,0.0,0.0,0.0,0.0,0.0,0.0,0.0,0.0,0.0,0.0,0.0,0.0,0.0,0.0,0.0,0.0,0.0,0.0,0.0,0.0,0.0,0.0,0.0,0.0,0.0,0.0,0.0,0.0,0.0,0.0,0.0,0.0,0.0,0.0,0.0,0.0,0.0,0.0,0.0,0.0,0.0,0.0,0.0,0.0,0.0,0.0,0.0,0.0,0.0,0.0,0.0,0.0,0.0,0.0,0.0,0.0,0.0,0.0,0.0,0.0,0.0,0.0,0.0,0.0,0.0,0.0,0.0,0.0,0.0,0.0,0.0,0.0,0.0,0.0,0.0,0.0,0.0,0.0,0.0,0.0,0.0,0.0,0.0,0.0,0.0,0.0,0.0,0.0,0.0,0.0,0.0,0.0,0.0,0.0,0.0,0.0,0.0,0.0,0.0,0.0,0.0,0.0,0.0,0.0,0.0,0.0,0.0,0.0,0.0,0.0,0.0,0.0,0.0,0.0,0.0,0.0,0.0,0.0,0.0,0.0,0.0,0.0,0.0,0.0,0.0,0.0,0.0,0.0,0.0,0.0,0.0,0.0,0.0,0.0,0.0,0.0,0.0,0.0,0.0,0.0,0.0,0.0,0.0,0.0,0.0,0.0,0.0,0.0,0.0,0.0,0.0,0.0,0.0,0.0,0.0,0.0,0.0,0.0,0.0,0.0,0.0,0.0,0.0,0.0,0.0,0.0,0.0,0.0,0.0,0.0,0.0,0.0,0.0,0.0,0.0,0.0,0.0,0.0,0.0,0.0,0.0,0.0,0.0,0.0,0.0,0.0,0.0,0.0,0.0,0.0,0.0,0.0,0.0,0.0,0.0,0.0,0.0,0.0,0.0,0.0,0.0,0.0,0.0,0.0,0.0,0.0,0.0,0.0,0.0,0.0,0.0,0.0,0.0,0.0,0.0,0.0,0.0,0.0,0.0,0.0,0.0,0.0,0.0,0.0,0.0,0.0,0.0,0.0,0.0,0.0,0.0,0.0,0.0,0.0,0.0,0.0,0.0,0.0,0.0,0.0,0.0,0.0,0.0,0.0,0.0,0.0,0.0,0.0,0.0,0.0,0.0,0.0,0.0,0.0,0.0,0.0,0.0,0.0,0.0,0.0,0.0,0.0,0.0,0.0,0.0,0.0,0.0,0.0,0.0,0.0,0.0,0.0,0.0,0.0,0.0,0.0,0.0,0.0,0.0,0.0,0.0,0.0,0.0,0.0,0.0,0.0,0.0,0.0,0.0,0.0,0.0,0.0,0.0,0.0,0.0,0.0,0.0,0.0,0.0,0.0,0.0,0.0,0.0,0.0,0.0,0.0,0.0,0.0,0.0,0.0,0.0,0.0,0.0,0.0,0.0,0.0,0.0,0.0,0.0,0.0,0.0,0.0,0.0,0.0,0.0,0.0,0.0,0.0,0.0,0.0,0.0,0.0,0.0,0.0,0.0,0.0,0.0,0.0,0.0,0.0,0.0,0.0,0.0,0.0,0.0,0.0,0.0,0.0,0.0,0.0,0.0,0.0,0.0,0.0,0.0,0.0,0.0,0.0,0.0,0.0,0.0,0.0,0.0,0.0,0.0,0.0,0.0,0.0,0.0,0.0,0.0,0.0,0.0,0.0,0.0,0.0,0.0,0.0,0.0,0.0,0.0,0.0,0.0,0.0,0.0,0.0,0.0,0.0,0.0,0.0,0.0,0.0,0.0,0.0,0.0,0.0,0.0,0.0,0.0,0.0,0.0,0.0,0.0,0.0,0.0,0.0,0.0,0.0,0.0,0.0,0.0,0.0,0.0,0.0,0.0,0.0,0.0,0.0,0.0,0.0,0.0,0.0,0.0,0.0,0.0,0.0,0.0,0.0,0.0,0.0,0.0,0.0,0.0,0.0,0.0,0.0,0.0,0.0,0.0,0.0,0.0,0.0,0.0,0.0,0.0,0.0,0.0,0.0,0.0,0.0,0.0,0.0,0.0,0.0,0.0,0.0,0.0,0.0,0.0,0.0,0.0,0.0,0.0,0.0,0.0,0.0,0.0,0.0,0.0,0.0,0.0,0.0,0.0,0.0,0.0,0.0,0.0,0.0,0.0,0.0,0.0,0.0,0.0,0.0,0.0,0.0,0.0,0.0,0.0,0.0,0.0,0.0,0.0,0.0,0.0,0.0,0.0,0.0,0.0,0.0,0.0,0.0,0.0,0.0,0.0,0.0,0.0,0.0,0.0,0.0,0.0,0.0,0.0,0.0,0.0,0.0,0.0,0.0,0.0,0.0,0.0,0.0,0.0,0.0,0.0,0.0,0.0,0.0,0.0,0.0,0.0,0.0,0.0,0.0,0.0,0.0,0.0,0.0,0.0,0.0,0.0,0.0,0.0,0.0,0.0,0.0,0.0,0.0,0.0,0.0,0.0,0.0,0.0,0.0,0.0,0.0,0.0,0.0,0.0,0.0,0.0,0.0,0.0,0.0,0.0,0.0,0.0,0.0,0.0,0.0,0.0,0.0,0.0,0.0,0.0,0.0,0.0,0.0,0.0,0.0,0.0,0.0,0.0,0.0,0.0,0.0,0.0,0.0,0.0,0.0,0.0,0.0,0.0,0.0,0.0,0.0,0.0,0.0,0.0,0.0,0.0,0.0,0.0,0.0,0.0,0.0,0.0,0.0,0.0,0.0,0.0,0.0,0.0,0.0,0.0,0.0,0.0,0.0,0.0,0.0,0.0,0.0,0.0,0.0,0.0,0.0,0.0,0.0,0.0,0.0,0.0,0.0,0.0,0.0,0.0,0.0,0.0,0.0,0.0,0.0,0.0,0.0,0.0,0.0,0.0,0.0,0.0,0.0,0.0,0.0,0.0,0.0,0.0,0.0,0.0,0.0,0.0,0.0,0.0,0.0,0.0,0.0,0.0,0.0,0.0,0.0,0.0,0.0,0.0,0.0,0.0,0.0,0.0,0.0,0.0,0.0,0.0,0.0,0.0,0.0,0.0,0.0,0.0,0.0,0.0,0.0,0.0,0.0,0.0,0.0,0.0,0.0,0.0,0.0,0.0,0.0,0.0,0.0,0.0,0.0,0.0,0.0,0.0,0.0,0.0,0.0,0.0,0.0,0.0,0.0,0.0,0.0,0.0,0.0,0.0,0.0,0.0,0.0,0.0,0.0,0.0,0.0,0.0,0.0,0.0,0.0,0.0,0.0,0.0,0.0,0.0,0.0,0.0,0.0,0.0,0.0,0.0,0.0,0.0,0.0,0.0,0.0,0.0,0.0,0.0,0.0,0.0,0.0,0.0,0.0,0.0,0.0,0.0,0.0,0.0,0.0,0.0,0.0,0.0,0.0,0.0,0.0,0.0,0.0,0.0,0.0,0.0,0.0,0.0,0.0,0.0,0.0,0.0,0.0,0.0,0.0,0.0,0.0,0.0,0.0,0.0,0.0,0.0,0.0,0.0,0.0,0.0,0.0,0.0,0.0,0.0,0.0,0.0,0.0,0.0,0.0,0.0,0.0,0.0,0.0,0.0,0.0,0.0,0.0,0.0,0.0,0.0,0.0,0.0,0.0,0.0,0.0,0.0,0.0,0.0,0.0,0.0,0.0,0.0,0.0,0.0,0.0,0.0,0.0,0.0,0.0,0.0,0.0,0.0,0.0,0.0,0.0,0.0,0.0,0.0,0.0,0.0,0.0,0.0,0.0,0.0,0.0,0.0,0.0,0.0,0.0,0.0,0.0,0.0,0.0,0.0,0.0,0.0,0.0,0.0,0.0,0.0,0.0,0.0,0.0,0.0,0.0,0.0,0.0,0.0,0.0,0.0,0.0,0.0,0.0,0.0,0.0,0.0,0.0,0.0,0.0,0.0,0.0,0.0,0.0,0.0,0.0,0.0,0.0,0.0,0.0,0.0,0.0,0.0,0.0,0.0,0.0,0.0,0.0,0.0,0.0,0.0,0.0,0.0,0.0,0.0,0.0,0.0,0.0,0.0,0.0,0.0,0.0,0.0,0.0,0.0,0.0,0.0,0.0,0.0,0.0,0.0,0.0,0.0,0.0,0.0,0.0,0.0,0.0,0.0,0.0,0.0,0.0,0.0,0.0,0.0,0.0,0.0,0.0,0.0,0.0,0.0,0.0,0.0,0.0,0.0,0.0,0.0,0.0,0.0,0.0,0.0,0.0,0.0,0.0,0.0,0.0,0.0,0.0,0.0,0.0,0.0,0.0,0.0,0.0,0.0,0.0,0.0,0.0,0.0,0.0,0.0,0.0,0.0,0.0,0.0,0.0,0.0,0.0,0.0,0.0,0.0,0.0,0.0,0.0,0.0,0.0,0.0,0.0,0.0,0.0,0.0,0.0,0.0,0.0,0.0,0.0,0.0,0.0,0.0,0.0,0.0,0.0,0.0,0.0,0.0,0.0,0.0,0.0,0.0,0.0,0.0,0.0,0.0,0.0,0.0,0.0,0.0,0.0,0.0,0.0,0.0,0.0,0.0,0.0,0.0,0.0,0.0,0.0,0.0,0.0,0.0,0.0,0.0,0.0,0.0,0.0,0.0,0.0,0.0,0.0,0.0,0.0,0.0,0.0,0.0,0.0,0.0,0.0,0.0,0.0,0.0,0.0,0.0,0.0,0.0,0.0,0.0,0.0,0.0,0.0,0.0,0.0,0.0,0.0,0.0,0.0,0.0,0.0,0.0,0.0,0.0,0.0,0.0,0.0,0.0,0.0,0.0,0.0,0.0,0.0,0.0,0.0,0.0,0.0,0.0,0.0,0.0,0.0,0.0,0.0,0.0,0.0,0.0,0.0,0.0,0.0,0.0,0.0,0.0,0.0,0.0,0.0,0.0,0.0,0.0,0.0,0.0,0.0,0.0,0.0,0.0,0.0,0.0,0.0,0.0,0.0,0.0,0.0,0.0,0.0,0.0,0.0,0.0,0.0,0.0,0.0,0.0,0.0,0.0,0.0,0.0,0.0,0.0,0.0,0.0,0.0,0.0,0.0,0.0,0.0,0.0,0.0,0.0,0.0,0.0,0.0,0.0,0.0,0.0,0.0,0.0,0.0,0.0,0.0,0.0,0.0,0.0,0.0,0.0,0.0,0.0,0.0,0.0,0.0,0.0,0.0,0.0,0.0,0.0,0.0,0.0,0.0,0.0,0.0,0.0,0.0,0.0,0.0,0.0,0.0,0.0,0.0,0.0,0.0,0.0,0.0,0.0,0.0,0.0,0.0,0.0,0.0,0.0,0.0,0.0,0.0,0.0,0.0,0.0,0.0,0.0,0.0,0.0,0.0,0.0,0.0,0.0,0.0,0.0,0.0,0.0,0.0,0.0,0.0,0.0,0.0,0.0,0.0,0.0,0.0,0.0,0.0,0.0,0.0,0.0,0.0,0.0,0.0,0.0,0.0,0.0,0.0,0.0,0.0,0.0,0.0,0.0,0.0,0.0,0.0,0.0,0.0,0.0,0.0,0.0,0.0,0.0,0.0,0.0,0.0,0.0,0.0,0.0,0.0,0.0,0.0,0.0,0.0,0.0,0.0,0.0,0.0,0.0,0.0,0.0,0.0,0.0,0.0,0.0,0.0,0.0,0.0,0.0,0.0,0.0,0.0,-3.767,0.0,0.0,0.0,0.0,0.0,0.0,0.0,0.0,0.0,0.0,0.0,0.0,0.0,0.0,0.0,0.0,0.0,0.0,0.0,0.0,0.0,0.0,0.0,0.0,0.0,0.0,0.0,0.0,0.0,0.0,0.0,0.0,0.0,0.0,0.0,0.0,0.0,0.0,0.0,0.0,0.0,0.0,0.0,0.0,0.0,0.0,0.0,0.0,0.0,0.0,0.0,0.0,0.0,0.0,0.0,0.0,0.0,0.0,0.0,0.0,0.0,0.0,0.0,0.0,0.0,0.0,0.0,0.0,0.0,0.0,0.0,0.0,0.0,0.0,0.0,0.0,0.0,0.0,0.0,0.0,0.0,0.0,0.0,0.0,0.0,0.0,0.0,0.0,0.0,0.0,0.0,0.0,0.0,0.0,0.0,0.0,0.0,0.0,0.0,0.0,0.0,0.0,0.0,0.0,0.0,0.0,0.0,0.0,0.0,0.0,0.0,0.0,0.0,0.0,0.0,0.0,-3.977,0.0,0.0,0.0,0.0,0.0,0.0,0.0,0.0,0.0,0.0,0.0,0.0,0.0,0.0,0.0,0.0,0.0,0.0,0.0,0.0,0.0,0.0,0.0,0.0,0.0,0.0,0.0,0.0,0.0,0.0,0.0,0.0,0.0,0.0,0.0,0.0,0.0,0.0,0.0,0.0,0.0,0.0,0.0,0.0,0.0,0.0,0.0,0.0,0.0,0.0,0.0,0.0,0.0,0.0,0.0,0.0,0.0,0.0,0.0,0.0,0.0,0.0,0.0,0.0,0.0,0.0,0.0,0.0,0.0,0.0,0.0,0.0,0.0,0.0,0.0,0.0,0.0,0.0,0.0,0.0,0.0,0.0,0.0,0.0,0.0,0.0,0.0,0.0,0.0,0.0,0.0,0.0,0.0,0.0,0.0,0.0,0.0,0.0,0.0,0.0,0.0,0.0,0.0,0.0,0.0,0.0,0.0,0.0,0.0,-4.4281,-4.4998,-4.4998,-4.5882,-4.7314,-4.4681,-4.3128,-4.2516,0.0,0.0,0.0,0.0,0.0,0.0,0.0,0.0,0.0,0.0,0.0,0.0,0.0,0.0,0.0,0.0,0.0,0.0,0.0,0.0,0.0,0.0,0.0,0.0,0.0,0.0,0.0,0.0,0.0,0.0,0.0,0.0,0.0,0.0,0.0,0.0,0.0,0.0,0.0,0.0,0.0,0.0,0.0,0.0,0.0,0.0,0.0,0.0,0.0,0.0,0.0,0.0,0.0,0.0,0.0,0.0,0.0,0.0,0.0,0.0,0.0,0.0,0.0,0.0,0.0,0.0,0.0,0.0,0.0,0.0,0.0,0.0,0.0,0.0,0.0,0.0,0.0,0.0,0.0,0.0,0.0,0.0,0.0,0.0,0.0,0.0,0.0,-2.8125,-2.8613,0.0,0.0,0.0,0.0,0.0,0.0,0.0,0.0,0.0,0.0,0.0,0.0,0.0,0.0,-4.1009,-4.1745,-4.2815,-4.4203,-4.4402,-4.5209,-4.6593,-4.6593,-4.7666,-4.9446,-4.9063,0.0,-4.7279,-4.6279,0.0,0.0,0.0,0.0,0.0,0.0,0.0,0.0,0.0,0.0,0.0,0.0,0.0,0.0,0.0,0.0,0.0,0.0,0.0,0.0,0.0,0.0,0.0,0.0,0.0,0.0,0.0,0.0,0.0,0.0,0.0,0.0,0.0,0.0,0.0,0.0,0.0,0.0,0.0,0.0,0.0,0.0,0.0,0.0,0.0,0.0,0.0,0.0,0.0,0.0,0.0,0.0,0.0,0.0,0.0,0.0,0.0,0.0,0.0,0.0,0.0,0.0,0.0,0.0,0.0,0.0,0.0,0.0,0.0,0.0,0.0,0.0,0.0,0.0,0.0,0.0,0.0,0.0,0.0,0.0,0.0,0.0,0.0,0.0,0.0,-2.8105,-2.9258,-2.9941,-2.9434,-2.9004,0.0,0.0,0.0,0.0,0.0,0.0,0.0,0.0,0.0,-3.9639,-4.2045,-4.3512,-4.3757,-4.4298,-4.4893,-4.5573,-4.6404,-4.7163,-4.7823,-4.8642,-4.9968,-5.1654,-5.1654,-5.1847,-5.1998,-4.9887,-4.8353,-4.7413,0.0,0.0,0.0,0.0,0.0,-4.7583,0.0,0.0,0.0,0.0,0.0,0.0,0.0,0.0,0.0,0.0,0.0,0.0,0.0,0.0,0.0,0.0,0.0,0.0,0.0,0.0,0.0,0.0,0.0,0.0,0.0,0.0,0.0,0.0,0.0,0.0,0.0,0.0,0.0,0.0,0.0,0.0,0.0,0.0,0.0,0.0,0.0,0.0,0.0,0.0,0.0,0.0,0.0,0.0,0.0,0.0,0.0,0.0,0.0,0.0,0.0,0.0,0.0,0.0,0.0,0.0,0.0,0.0,0.0,0.0,0.0,0.0,0.0,0.0,0.0,0.0,0.0,0.0,0.0,0.0,0.0,0.0,0.0,-2.9121,-3.0059,-3.0937,-3.0851,-3.0717,0.0,0.0,0.0,0.0,0.0,0.0,-3.8229,-4.0877,-4.2452,-4.2597,-4.4491,-4.5547,-4.5698,-4.61,-4.6301,-4.6301,-4.7802,-4.8705,-4.9137,-5.0602,-5.2105,-5.3571,-5.3571,-5.42,-5.5039,-5.2762,-5.09,-4.9533,-4.9918,-4.9314,-4.8446,-4.9583,-5.0048,-5.0272,0.0,0.0,0.0,0.0,0.0,0.0,0.0,0.0,0.0,0.0,0.0,0.0,0.0,0.0,0.0,0.0,0.0,0.0,0.0,0.0,0.0,0.0,0.0,0.0,0.0,0.0,0.0,0.0,0.0,0.0,0.0,0.0,0.0,0.0,0.0,0.0,0.0,0.0,0.0,0.0,0.0,0.0,0.0,0.0,0.0,0.0,0.0,0.0,0.0,0.0,0.0,0.0,0.0,0.0,0.0,0.0,0.0,0.0,0.0,0.0,0.0,0.0,0.0,0.0,0.0,0.0,0.0,0.0,0.0,0.0,0.0,0.0,0.0,0.0,0.0,0.0,0.0,0.0,0.0,-3.1387,-3.2799,0.0,0.0,0.0,0.0,-3.6815,-3.9639,-4.1399,-4.1399,-4.3349,-4.4703,-4.5254,-4.5447,-4.5748,-4.625,-4.6301,-4.6301,-4.6301,-4.7802,-4.9224,-5.0657,-5.2159,-5.3675,-5.5078,-5.5078,-5.5128,-5.5149,-5.4331,-5.3614,-5.2916,-5.2306,-5.1618,-5.1109,-5.1798,-5.2037,-5.2247,0.0,0.0,0.0,0.0,0.0,0.0,0.0,0.0,0.0,0.0,0.0,0.0,0.0,0.0,0.0,0.0,0.0,0.0,0.0,0.0,0.0,0.0,0.0,0.0,0.0,0.0,0.0,0.0,0.0,0.0,0.0,0.0,0.0,0.0,0.0,0.0,0.0,0.0,0.0,0.0,0.0,0.0,0.0,0.0,0.0,0.0,0.0,0.0,0.0,0.0,0.0,0.0,0.0,0.0,0.0,0.0,0.0,0.0,0.0,0.0,0.0,0.0,0.0,0.0,0.0,0.0,0.0,0.0,0.0,0.0,0.0,0.0,0.0,0.0,0.0,0.0,0.0,0.0,0.0,-3.552,-3.555,0.0,0.0,-3.8951,-4.0024,-4.0024,-4.2559,-4.4082,-4.4082,-4.5101,-4.5799,-4.6024,-4.6024,-4.6125,-4.6301,-4.7265,-4.771,-4.7769,-5.0184,-5.1672,-5.2241,-5.4165,-5.5367,-5.5837,-5.6226,-5.6406,-5.6406,-5.6166,-5.5179,-5.3862,-5.4042,-5.3713,-5.3264,-5.4371,-5.476,-5.503,0.0,0.0,0.0,0.0,0.0,0.0,0.0,0.0,0.0,0.0,0.0,0.0,0.0,0.0,0.0,0.0,0.0,0.0,0.0,0.0,0.0,0.0,0.0,0.0,0.0,0.0,0.0,0.0,0.0,0.0,0.0,0.0,0.0,0.0,0.0,0.0,0.0,0.0,0.0,0.0,0.0,0.0,-3.9619,0.0,0.0,0.0,0.0,0.0,0.0,0.0,0.0,0.0,0.0,0.0,0.0,0.0,0.0,0.0,0.0,0.0,0.0,0.0,0.0,0.0,0.0,0.0,0.0,0.0,0.0,0.0,0.0,0.0,0.0,0.0,0.0,0.0,0.0,0.0,-3.51,-3.8313,-3.8363,-3.8647,-4.0135,-4.1864,-4.2895,-4.2895,-4.469,-4.5773,-4.5773,-4.6125,-4.6301,-4.6301,-4.6301,-4.6301,-4.6301,-4.7769,-4.8637,-4.888,-5.1872,-5.3448,-5.3732,-5.5604,-5.6466,-5.6496,-5.6915,-5.7094,-5.7094,-5.7094,-5.6346,-5.5239,-5.5658,-5.5568,-5.5319,-5.6698,-5.6877,-5.6732,0.0,0.0,0.0,0.0,0.0,0.0,0.0,0.0,0.0,0.0,0.0,0.0,0.0,0.0,0.0,0.0,0.0,0.0,0.0,0.0,0.0,0.0,0.0,0.0,0.0,0.0,0.0,0.0,0.0,0.0,0.0,0.0,0.0,0.0,0.0,0.0,0.0,0.0,0.0,0.0,0.0,0.0,-4.0427,0.0,0.0,0.0,0.0,0.0,0.0,0.0,0.0,0.0,0.0,0.0,0.0,0.0,0.0,0.0,0.0,0.0,0.0,0.0,0.0,0.0,0.0,0.0,0.0,0.0,0.0,0.0,0.0,0.0,0.0,0.0,0.0,0.0,-3.6754,-3.7814,-3.8866,-3.9341,-4.1158,-4.2353,-4.2413,-4.4319,-4.5522,-4.5522,-4.5999,-4.6301,-4.6301,-4.6301,-4.6301,-4.6301,-4.6326,-4.6326,-4.6386,-4.7854,-4.8991,-4.9696,-5.2601,-5.4338,-5.5028,-5.6486,-5.7124,-5.7124,-5.7154,-5.7154,-5.7154,-5.7154,-5.7154,-5.7154,-5.7124,-5.7124,-5.7281,-5.865,-5.8379,-5.754,0.0,0.0,0.0,0.0,0.0,0.0,0.0,0.0,0.0,0.0,0.0,0.0,0.0,0.0,0.0,0.0,0.0,0.0,0.0,0.0,0.0,0.0,0.0,0.0,0.0,0.0,0.0,0.0,0.0,0.0,0.0,0.0,0.0,0.0,0.0,0.0,0.0,0.0,0.0,0.0,0.0,0.0,-4.2423,0.0,0.0,0.0,0.0,0.0,0.0,0.0,0.0,0.0,0.0,0.0,0.0,0.0,0.0,0.0,0.0,0.0,0.0,0.0,0.0,0.0,0.0,0.0,0.0,0.0,0.0,0.0,0.0,0.0,0.0,0.0,0.0,-4.1065,-3.9926,-3.9656,-4.0554,-4.3454,-4.3481,-4.3818,-4.508,-4.5735,-4.6075,-4.6075,-4.6225,-4.6301,-4.6301,-4.6301,-4.6301,-4.6301,-4.6702,-4.7459,-4.8603,-5.047,-5.2064,-5.3444,-5.5309,-5.6308,-5.6538,-5.7444,-5.7842,-5.7872,-5.8351,-5.856,-5.856,-5.856,-5.856,-5.8501,-5.8022,-5.7842,-5.8031,-5.9799,-6.1446,-6.2649,0.0,0.0,0.0,0.0,0.0,0.0,0.0,0.0,0.0,0.0,0.0,0.0,0.0,0.0,0.0,0.0,0.0,0.0,0.0,0.0,0.0,0.0,0.0,0.0,0.0,0.0,0.0,0.0,0.0,0.0,0.0,0.0,0.0,0.0,0.0,0.0,0.0,0.0,0.0,0.0,0.0,0.0,-4.3678,-4.3329,-4.294,-4.2491,-4.1444,-4.1085,-4.0868,-3.9978,0.0,0.0,0.0,0.0,0.0,0.0,0.0,0.0,0.0,0.0,0.0,0.0,0.0,0.0,0.0,0.0,0.0,0.0,0.0,0.0,0.0,0.0,0.0,0.0,-4.2735,-4.3587,-4.3256,-4.2868,-4.3372,-4.5595,-4.5206,-4.522,-4.618,-4.6301,-4.6301,-4.6301,-4.6301,-4.6301,-4.6301,-4.6527,-4.6652,-4.6652,-4.7179,-4.8202,-4.9805,-5.1595,-5.3444,-5.5348,-5.6847,-5.7663,-5.7962,-5.8351,-5.853,0.0,-5.8949,-5.9099,-5.9099,-5.9099,-5.9099,0.0,0.0,0.0,0.0,0.0,-6.3497,-6.5514,0.0,0.0,0.0,0.0,0.0,0.0,0.0,0.0,0.0,0.0,0.0,0.0,0.0,0.0,0.0,0.0,0.0,0.0,0.0,0.0,0.0,0.0,-3.6866,0.0,0.0,0.0,0.0,0.0,0.0,0.0,0.0,0.0,0.0,0.0,0.0,0.0,0.0,0.0,0.0,0.0,0.0,0.0,-4.4436,-4.4526,-4.4556,-4.4466,-4.3838,-4.3599,-4.3319,-4.2132,0.0,0.0,0.0,0.0,0.0,0.0,0.0,0.0,0.0,0.0,0.0,0.0,0.0,0.0,0.0,0.0,0.0,0.0,0.0,0.0,0.0,0.0,0.0,0.0,-4.4041,-4.5095,-4.615,-4.6301,-4.6301,-4.6301,-4.6301,-4.6301,-4.6301,-4.6301,-4.6301,-4.6301,-4.6301,-4.6326,-4.6401,0.0,0.0,0.0,0.0,-4.9071,-5.0651,-5.2182,-5.4092,-5.629,-5.7581,-5.853,-5.9099,-5.9099,-5.9099,-5.9099,-5.9189,-5.9219,-5.9219,-5.9308,-5.9417,-5.9603,-6.0534,-6.1062,-6.152,-6.2759,-6.4859,0.0,0.0,0.0,0.0,0.0,0.0,0.0,0.0,0.0,0.0,0.0,0.0,0.0,0.0,0.0,0.0,0.0,0.0,0.0,0.0,0.0,-3.5699,-3.6985,-3.7793,-3.8512,0.0,0.0,0.0,0.0,0.0,0.0,0.0,0.0,0.0,0.0,0.0,0.0,0.0,0.0,0.0,0.0,0.0,0.0,-4.5155,-4.5723,-4.5891,-4.5843,-4.5155,-4.4915,-4.4796,-4.4018,-4.3748,-4.3599,-4.2781,0.0,0.0,0.0,0.0,0.0,0.0,0.0,0.0,0.0,0.0,0.0,0.0,0.0,0.0,0.0,0.0,0.0,0.0,0.0,0.0,-4.4016,-4.4869,-4.5547,-4.6225,-4.6301,-4.6301,-4.6301,-4.6301,-4.6301,-4.6301,-4.6301,-4.6301,-4.6301,-4.6301,-4.6502,-4.6892,-4.7018,0.0,-4.7732,-4.9564,-5.1322,-5.2873,-5.4853,-5.6756,-5.851,0.0,0.0,-5.9099,-5.9099,-5.9099,-5.9129,-5.9668,-5.9907,-5.9937,-6.0505,-6.1316,-6.2134,-6.0789,-6.1597,-6.3574,-6.4377,-6.6368,-6.8596,0.0,0.0,0.0,0.0,0.0,0.0,0.0,0.0,0.0,0.0,0.0,0.0,0.0,0.0,0.0,0.0,0.0,0.0,0.0,-3.5609,-3.6567,-3.7853,-3.8542,-3.908,0.0,0.0,0.0,0.0,0.0,0.0,0.0,0.0,0.0,0.0,0.0,0.0,0.0,0.0,0.0,0.0,0.0,0.0,-4.5394,-4.6441,-4.68,-4.677,-4.6411,-4.6292,-4.6202,-4.5544,-4.5304,-4.5185,-4.4526,-4.3629,-4.2851,0.0,0.0,0.0,0.0,0.0,0.0,0.0,0.0,0.0,0.0,0.0,0.0,0.0,0.0,-4.0099,0.0,0.0,-4.3765,-4.4869,-4.5522,-4.5999,-4.6276,-4.6301,-4.6301,-4.6301,-4.6301,-4.6301,-4.6301,-4.6301,-4.6301,-4.6301,-4.6577,-4.6853,-4.7129,-4.7657,-4.8083,-4.8335,-5.0477,-5.2332,-5.3917,-5.5794,-5.7496,-5.9099,-5.9099,-5.9279,-5.9608,-5.9608,-5.9787,-6.0116,-6.0446,-6.0595,-6.0625,-6.0984,-6.1463,-6.2008,-6.1353,-6.2932,-6.5671,-6.671,-6.7957,-6.9113,0.0,0.0,0.0,0.0,0.0,0.0,0.0,0.0,0.0,0.0,0.0,0.0,0.0,0.0,0.0,0.0,0.0,0.0,0.0,-3.6237,-3.7255,-3.8542,-3.911,-3.9373,-3.9373,0.0,0.0,0.0,0.0,0.0,0.0,0.0,0.0,0.0,0.0,0.0,0.0,0.0,0.0,0.0,0.0,0.0,-4.5424,-4.6651,-4.7189,-4.7279,-4.716,-4.713,-4.704,-4.6459,-4.6279,-4.6262,-4.5813,-4.5244,-4.4706,-4.4706,-4.4317,0.0,0.0,0.0,0.0,0.0,0.0,0.0,0.0,0.0,-3.8969,-4.0099,-4.1128,-4.2158,-4.3263,-4.4192,-4.497,-4.5547,-4.6024,-4.6301,-4.6301,-4.6301,-4.6301,-4.6301,-4.6301,-4.6301,-4.6301,-4.6301,-4.6351,-4.6451,-4.6878,-4.723,-4.7431,-4.8284,-4.8812,-4.8937,-5.1282,-5.3066,-5.4386,-5.6251,-5.7863,-5.9308,-5.9308,-5.9638,-6.0266,-6.0266,-6.0595,-6.1134,-6.1253,-6.1373,-6.1493,-6.1493,-6.1493,-6.1553,-6.2371,-6.4284,-6.6774,-6.791,-6.8662,-6.9054,0.0,0.0,0.0,0.0,0.0,0.0,0.0,0.0,0.0,0.0,0.0,0.0,0.0,0.0,0.0,0.0,0.0,0.0,0.0,-3.6626,-3.7913,-3.926,-3.9379,-3.9373,-3.9373,0.0,0.0,0.0,0.0,0.0,0.0,0.0,0.0,0.0,0.0,0.0,0.0,0.0,0.0,0.0,0.0,0.0,-4.5364,-4.6142,-4.68,-4.7219,-4.6651,-4.6399,-4.6369,-4.6309,-4.6279,-4.6369,-4.692,-4.6621,-4.607,-4.607,0.0,-4.6142,-4.689,-4.7519,-4.7643,-4.6297,-4.4434,-4.2781,0.0,0.0,-4.1225,-4.2384,-4.3112,-4.3865,-4.4995,-4.5321,-4.5573,-4.6125,-4.6276,-4.6301,-4.6301,-4.6301,-4.6301,-4.6301,-4.6301,-4.6301,-4.6301,-4.6301,-4.6527,-4.6943,-4.7043,-4.7556,-4.8535,-4.8711,-4.8987,-4.949,-5.2516,-5.4208,-5.4386,-5.7328,-5.9205,-5.9967,-5.9967,-6.0326,-6.1014,-6.1014,-6.1044,-6.1134,-6.1732,-6.2331,-6.2869,-6.2869,-6.2869,-6.3012,-6.4279,-6.501,-6.5348,-6.5509,-6.7093,-6.9035,0.0,0.0,0.0,0.0,0.0,0.0,0.0,0.0,0.0,0.0,0.0,0.0,0.0,0.0,0.0,0.0,0.0,0.0,-3.537,-3.6686,-3.8003,-3.9313,-3.9373,-3.9373,-3.9373,0.0,0.0,0.0,0.0,0.0,0.0,0.0,0.0,0.0,0.0,0.0,0.0,0.0,0.0,0.0,0.0,0.0,-4.5364,-4.6052,-4.6459,-4.6711,-4.6369,-4.5813,0.0,0.0,-4.5484,-4.5274,-4.5933,-4.5933,-4.5813,-4.6202,-4.6591,0.0,-4.8581,-4.9224,0.0,0.0,-4.6661,-4.5673,-4.5367,-4.4361,-4.387,-4.5426,-4.5202,-4.502,-4.5824,-4.5974,-4.605,0.0,-4.6301,-4.6301,-4.6301,-4.6301,-4.6301,-4.6301,-4.6301,-4.6301,-4.6301,-4.6602,-4.6878,-4.7043,-4.7732,-4.8284,-4.8736,-4.9088,-4.9761,-5.0954,-5.3187,-5.5026,-5.633,-5.8529,-6.0027,-6.0685,-6.0685,-6.1044,-6.1672,-6.1672,-6.1882,-6.2271,-6.254,-6.281,-6.3079,-6.3079,-6.3079,-6.3194,-6.3706,-6.3958,-6.4153,-6.5728,-6.7061,-6.7924,0.0,0.0,0.0,0.0,0.0,0.0,0.0,0.0,0.0,0.0,0.0,0.0,0.0,0.0,0.0,0.0,0.0,0.0,0.0,-3.6327,-3.7734,-3.908,-3.932,0.0,-3.9373,-3.9373,0.0,0.0,0.0,0.0,0.0,0.0,0.0,0.0,0.0,0.0,0.0,0.0,0.0,0.0,0.0,0.0,-4.5095,-4.5574,-4.5622,-4.5472,-4.5651,-4.4915,0.0,0.0,-4.4047,-4.3658,-4.4496,-4.4766,-4.4885,-4.5574,-4.6621,-4.7967,-4.9717,0.0,0.0,-4.9344,-4.8634,-4.821,-4.8297,-4.7286,-4.6649,-4.7721,-4.7221,-4.6637,-4.6603,-4.662,0.0,-4.662,-4.6415,-4.6301,-4.6301,-4.6301,-4.6301,-4.6301,-4.6451,-4.6552,-4.6552,-4.6842,-4.7193,-4.7556,-4.8309,-4.8837,-4.8987,-4.9389,-5.0308,-5.1989,-5.3713,-5.56,-5.7657,-5.9484,-6.0715,-6.1373,-6.1373,-6.1732,-6.2361,-6.2361,-6.263,-6.3079,-6.3079,-6.3079,-6.3079,-6.3079,-6.3079,-6.3079,-6.3079,-6.3079,-6.3337,-6.5328,-6.6312,-6.6574,0.0,0.0,0.0,0.0,0.0,0.0,0.0,0.0,0.0,0.0,0.0,0.0,0.0,0.0,0.0,0.0,0.0,0.0,0.0,-3.54,-3.7075,-3.8362,-3.905,-3.9373,-3.9373,-3.9373,0.0,0.0,0.0,0.0,0.0,0.0,0.0,0.0,0.0,0.0,0.0,0.0,0.0,0.0,0.0,0.0,-4.4347,-4.4377,-4.3947,-4.3469,-4.4137,0.0,0.0,0.0,-4.2051,-4.1683,-4.2931,-4.3419,0.0,-4.4197,-4.6232,0.0,0.0,0.0,-5.1152,-5.1122,-5.0583,-5.0227,-5.0787,-5.0291,-4.9529,-4.866,-4.9079,-4.9145,-4.7691,-4.749,-4.749,-4.749,-4.6821,-4.6301,-4.6301,-4.6301,-4.6301,-4.6301,-4.6778,-4.7043,0.0,-4.7068,-4.7581,-4.8636,-4.8761,-4.9012,-4.954,-4.959,-5.0308,-5.1989,-5.4154,-5.608,-5.7657,-5.9957,-6.1403,-6.2061,-6.2061,-6.2421,-6.3049,-6.3049,-6.3049,-6.3079,-6.3079,-6.3079,-6.3079,-6.3079,-6.3079,-6.3079,-6.3079,-6.3079,-6.3137,-6.3194,-6.404,-6.4978,0.0,0.0,0.0,0.0,0.0,0.0,0.0,0.0,0.0,0.0,0.0,0.0,0.0,0.0,0.0,0.0,0.0,0.0,0.0,-3.4292,-3.5761,-3.7075,-3.7734,-3.8093,-3.8093,-3.8093,0.0,0.0,0.0,0.0,0.0,0.0,0.0,0.0,0.0,0.0,0.0,0.0,0.0,0.0,0.0,0.0,-4.3069,-4.3069,-4.2611,-4.2013,0.0,0.0,0.0,0.0,0.0,0.0,-4.1115,0.0,0.0,-4.4377,-4.6531,-4.8566,0.0,0.0,-5.1229,-5.1229,-5.1345,-5.1708,-5.2309,-5.186,-5.1201,-5.0864,-5.0239,-4.9419,-4.8545,-4.8382,-4.8188,-4.7555,-4.7247,-4.692,-4.6371,-4.6301,-4.6301,-4.6301,-4.6803,0.0,0.0,0.0,0.0,-4.8736,-4.9113,-4.9389,-4.959,-4.959,-5.1008,-5.4093,-5.4891,-5.6976,-6.0607,-6.1386,-6.2091,-6.275,-6.275,-6.2869,-6.3079,-6.3079,-6.3079,-6.3079,-6.3079,-6.3079,-6.3079,-6.3079,-6.3079,-6.3109,-6.3528,-6.3677,-6.3737,-6.4216,-6.4629,-6.4946,0.0,0.0,0.0,0.0,0.0,0.0,0.0,0.0,0.0,0.0,0.0,0.0,0.0,0.0,0.0,0.0,0.0,0.0,0.0,0.0,-3.4262,-3.537,-3.6267,-3.6716,-3.6716,-3.6716,0.0,0.0,0.0,0.0,0.0,0.0,0.0,0.0,0.0,0.0,0.0,0.0,0.0,0.0,0.0,0.0,-4.1362,-4.1362,-4.0905,0.0,0.0,0.0,0.0,0.0,0.0,0.0,0.0,-4.1175,-4.2491,-4.4676,-4.6711,-4.8566,-4.9837,-5.0674,-5.1229,-5.1229,-5.1887,-5.2665,-5.3084,-5.3187,-5.2952,-5.2174,-5.1275,-5.0266,-4.9074,-4.869,-4.8434,-4.8109,-4.7971,-4.7642,-4.6854,-4.6959,-4.6951,-4.6637,-4.7079,0.0,0.0,0.0,0.0,-4.9063,-4.9389,-4.9822,-5.0436,-5.0678,-5.2464,-5.602,-5.6588,-5.8575,-6.2091,-6.2331,-6.266,-6.3079,-6.3079,-6.3079,-6.3079,-6.3079,-6.3079,-6.3079,-6.3079,-6.3079,-6.3079,-6.3318,-6.3408,-6.3468,-6.4126,-6.4366,-6.4425,-6.4874,-6.5173,-6.5293,0.0,0.0,0.0,0.0,0.0,0.0,0.0,0.0,0.0,0.0,0.0,0.0,0.0,0.0,0.0,0.0,0.0,0.0,0.0,0.0,0.0,-3.3305,-3.4592,-3.531,-3.531,-3.531,0.0,0.0,0.0,0.0,0.0,0.0,0.0,0.0,0.0,0.0,0.0,0.0,0.0,0.0,0.0,0.0,-3.926,-3.926,0.0,0.0,0.0,0.0,0.0,0.0,0.0,0.0,0.0,0.0,-4.3648,-4.4975,-4.677,-4.8626,-4.9837,-5.0674,-5.1229,-5.1229,-5.2187,-5.3144,-5.3144,-5.4162,-5.4497,-5.2404,-5.2082,-5.1506,0.0,0.0,-4.8258,-4.8841,-4.8869,-4.8572,-4.7698,-4.8193,-4.8244,0.0,0.0,0.0,0.0,0.0,0.0,-4.9719,0.0,-5.0372,-5.1927,-5.273,-5.4508,-5.7657,-5.9012,-6.0472,-6.2151,-6.278,-6.3079,-6.3079,-6.3079,-6.3079,-6.3079,-6.3079,-6.3079,-6.3079,-6.3109,-6.3139,-6.3169,-6.3797,-6.4066,-6.4126,-6.4814,-6.5084,-6.5084,-6.5114,-6.5533,-6.5981,0.0,0.0,0.0,0.0,0.0,0.0,0.0,0.0,0.0,0.0,0.0,0.0,0.0,0.0,0.0,0.0,0.0,0.0,0.0,0.0,0.0,0.0,0.0,0.0,0.0,0.0,0.0,0.0,0.0,0.0,0.0,0.0,0.0,0.0,0.0,0.0,0.0,0.0,0.0,0.0,0.0,0.0,-3.7225,0.0,0.0,0.0,0.0,0.0,0.0,0.0,0.0,0.0,0.0,-4.321,-4.4975,-4.5813,-4.7459,-4.9194,-4.9956,-5.0674,-5.1229,-5.1229,-5.1828,-5.2456,-5.2456,-5.3084,-5.3256,-5.1725,-5.1441,-5.0866,0.0,0.0,0.0,-4.8355,-4.9059,0.0,-4.9228,-4.9719,0.0,0.0,0.0,-4.9383,-4.8838,-4.9264,0.0,0.0,-5.1393,-5.1554,-5.1989,-5.3727,-5.5885,-5.8348,-5.9273,-6.0706,-6.281,-6.2989,-6.3079,-6.3079,-6.3079,-6.3079,-6.3079,-6.3079,-6.3079,-6.3109,-6.3558,-6.3767,-6.3827,-6.4485,-6.4755,-6.4844,-6.5503,-6.5772,-6.5832,-6.6311,-6.661,-6.6729,0.0,0.0,0.0,0.0,0.0,0.0,0.0,0.0,0.0,0.0,0.0,0.0,0.0,0.0,0.0,0.0,0.0,0.0,0.0,0.0,0.0,0.0,0.0,0.0,0.0,0.0,0.0,0.0,0.0,0.0,0.0,0.0,0.0,0.0,0.0,0.0,0.0,0.0,0.0,0.0,0.0,0.0,0.0,0.0,0.0,0.0,0.0,0.0,0.0,0.0,0.0,-4.1542,-4.2791,-4.4586,-4.6381,-4.7339,0.0,-4.9823,-5.0435,-5.0883,-5.1289,-5.1588,-5.1917,-5.2276,-5.2576,-5.2695,-5.2456,-5.1439,-5.0541,0.0,0.0,0.0,0.0,0.0,0.0,0.0,-4.9864,-5.0635,-5.0851,0.0,-4.9976,0.0,-4.9229,-5.0066,-5.1016,0.0,-5.1989,-5.2578,-5.4002,-5.5786,-5.7707,-5.9709,-6.0706,-6.182,-6.3079,-6.3079,-6.3079,-6.3079,-6.3079,-6.3079,-6.3079,-6.3079,-6.3228,-6.3498,0.0,-6.4186,-6.4515,-6.5173,-6.5473,-6.5533,-6.6191,-6.643,-6.649,-6.6849,-6.6999,-6.6999,0.0,0.0,0.0,0.0,0.0,0.0,0.0,0.0,0.0,0.0,0.0,0.0,0.0,0.0,0.0,0.0,0.0,0.0,0.0,0.0,0.0,0.0,0.0,0.0,0.0,0.0,0.0,0.0,0.0,0.0,0.0,0.0,0.0,0.0,0.0,0.0,0.0,0.0,0.0,0.0,0.0,0.0,0.0,0.0,0.0,0.0,0.0,0.0,0.0,0.0,-4.0726,-4.277,-4.4018,-4.5873,-4.7788,-4.897,-4.9793,-5.0435,-5.105,-5.1229,-5.1379,-5.2037,-5.2127,-5.2217,-5.2785,-5.2336,-5.1588,-5.084,0.0,-4.7818,-4.716,0.0,-4.6488,-4.7189,0.0,-5.0211,-5.0171,-5.1381,-5.1878,-5.0788,-5.0552,-5.0359,-4.9977,-5.1205,-5.2112,-5.2271,-5.2516,-5.385,-5.6651,-5.8205,-5.974,-6.1317,-6.248,-6.3079,-6.3079,-6.3079,-6.3079,-6.3079,-6.3079,-6.3079,-6.3079,-6.3079,-6.3408,-6.4006,0.0,0.0,-6.5203,-6.5862,-6.6131,-6.6191,-6.6759,-6.6999,-6.6999,-6.6999,-6.6999,-6.6999,0.0,0.0,0.0,0.0,0.0,0.0,0.0,0.0,0.0,0.0,-2.7229,-2.7585,0.0,0.0,0.0,0.0,0.0,0.0,0.0,0.0,0.0,0.0,0.0,0.0,0.0,0.0,0.0,0.0,0.0,0.0,0.0,0.0,0.0,0.0,0.0,0.0,0.0,0.0,0.0,0.0,0.0,0.0,0.0,0.0,0.0,0.0,0.0,0.0,0.0,0.0,-4.0636,-4.3449,-4.4706,-4.689,-4.903,-4.9239,-5.0122,-5.1079,-5.1199,-5.1229,-5.1379,-5.2037,-5.1798,-5.1409,-5.1528,-5.0631,0.0,0.0,0.0,-4.6441,-4.5753,-4.6022,0.0,-4.7189,0.0,0.0,0.0,0.0,-5.3627,0.0,0.0,0.0,0.0,0.0,0.0,0.0,0.0,0.0,-5.7484,-5.9499,-6.13,-6.269,-6.2959,-6.3079,-6.3079,-6.3079,-6.3079,-6.3079,-6.3079,-6.3079,-6.3079,-6.3079,-6.3408,-6.4036,0.0,0.0,-6.5892,-6.655,-6.6819,-6.6819,-6.6939,-6.6999,-6.6999,-6.6999,-6.6999,-6.6999,0.0,0.0,0.0,0.0,0.0,0.0,0.0,-2.555,-2.6496,-2.6496,-2.7152,-2.7585,-2.7585,-2.7585,0.0,0.0,0.0,0.0,0.0,0.0,0.0,0.0,0.0,0.0,0.0,0.0,0.0,0.0,0.0,0.0,0.0,0.0,0.0,0.0,0.0,0.0,0.0,0.0,0.0,0.0,0.0,0.0,0.0,0.0,0.0,0.0,0.0,0.0,0.0,0.0,-3.9918,-4.2192,-4.4167,-4.6381,-4.8386,-4.912,-4.9942,-5.0734,-5.1139,-5.1229,-5.1468,-5.2456,-5.1947,-5.1319,-5.1648,0.0,0.0,0.0,0.0,-4.5274,-4.5274,0.0,0.0,0.0,0.0,0.0,0.0,0.0,0.0,0.0,0.0,0.0,0.0,0.0,0.0,0.0,0.0,0.0,-5.8882,-6.0651,-6.2061,-6.3049,-6.3079,-6.3079,-6.3079,-6.3079,-6.3079,-6.3079,-6.3079,-6.3079,-6.3079,-6.3079,-6.3617,-6.4545,-6.4874,0.0,-6.655,-6.6849,-6.6999,-6.6999,-6.6999,-6.6999,-6.6999,-6.6999,-6.6999,-6.6999,0.0,0.0,0.0,0.0,0.0,0.0,0.0,-2.5301,-2.6256,-2.6256,-2.7019,-2.7585,-2.7585,-2.7585,-2.7585,0.0,0.0,0.0,0.0,0.0,0.0,0.0,0.0,0.0,0.0,0.0,0.0,0.0,0.0,0.0,0.0,0.0,0.0,0.0,0.0,0.0,0.0,0.0,0.0,0.0,0.0,0.0,0.0,0.0,0.0,0.0,0.0,0.0,0.0,0.0,-3.896,-4.0546,-4.2611,-4.4915,-4.71,-4.8297,-4.9314,-5.0136,-5.084,-5.1229,-5.1708,-5.2875,-5.2306,-5.1528,-5.1917,-4.9972,0.0,0.0,-4.5394,-4.4317,-4.4975,0.0,0.0,0.0,0.0,0.0,0.0,0.0,0.0,0.0,0.0,0.0,0.0,0.0,0.0,0.0,0.0,0.0,0.0,-6.1433,-6.2391,-6.3049,-6.3079,-6.3079,-6.3079,-6.3079,-6.3079,-6.3079,-6.3079,-6.3079,-6.3079,-6.3079,-6.3797,-6.5024,-6.5024,0.0,0.0,-6.6999,-6.6999,-6.6999,-6.6999,-6.6999,-6.6999,-6.6999,-6.6999,-6.6999,0.0,0.0,0.0,0.0,0.0,0.0,0.0,-2.4511,-2.5522,-2.5522,-2.6733,-2.7585,-2.7585,-2.7585,-2.7585,0.0,0.0,0.0,0.0,0.0,0.0,0.0,0.0,0.0,0.0,0.0,0.0,0.0,0.0,0.0,0.0,0.0,0.0,0.0,0.0,0.0,0.0,0.0,0.0,0.0,0.0,0.0,0.0,0.0,0.0,0.0,0.0,0.0,0.0,0.0,0.0,-3.9523,-3.9762,-4.2462,-4.5633,-4.6381,0.0,0.0,-5.0152,-5.1199,-5.2276,-5.2995,-5.2636,-5.1977,-5.1439,0.0,0.0,-4.5753,-4.4377,-4.3589,-4.4287,-4.4407,0.0,0.0,0.0,0.0,0.0,0.0,0.0,0.0,0.0,0.0,0.0,0.0,0.0,0.0,0.0,0.0,0.0,-6.1702,-6.2391,-6.3049,-6.3079,-6.3079,-6.3079,-6.3079,-6.3079,-6.3079,-6.3079,-6.3079,-6.3079,-6.3079,-6.3797,-6.5024,0.0,0.0,0.0,-6.6999,-6.6999,-6.6999,-6.6999,-6.6999,-6.6999,-6.6999,-6.6999,-6.6999,0.0,0.0,0.0,0.0,0.0,0.0,-2.3095,-2.4018,-2.4738,-2.4738,-2.6013,-2.6945,-2.6945,-2.7331,-2.7585,0.0,0.0,0.0,0.0,0.0,0.0,0.0,0.0,0.0,0.0,0.0,0.0,0.0,0.0,0.0,0.0,0.0,0.0,0.0,0.0,0.0,0.0,0.0,0.0,0.0,0.0,0.0,0.0,0.0,0.0,0.0,0.0,0.0,0.0,0.0,0.0,0.0,-3.8661,-4.0696,0.0,0.0,-4.713,-4.8895,-4.9897,-5.1199,-5.2366,-5.3025,-5.2695,-5.2037,-5.1379,0.0,0.0,-4.5574,-4.4257,-4.3499,-4.4197,-4.4317,-4.4526,0.0,0.0,0.0,0.0,0.0,0.0,0.0,0.0,0.0,0.0,0.0,0.0,0.0,0.0,0.0,0.0,0.0,-6.2391,-6.3049,-6.3079,-6.3079,-6.3079,-6.3079,-6.3079,-6.3079,-6.3079,-6.3079,-6.3079,-6.3079,-6.3558,-6.4425,0.0,0.0,0.0,-6.6819,-6.6999,-6.6999,-6.6999,-6.6999,-6.6999,-6.6999,-6.6999,-6.6999,0.0,0.0,0.0,0.0,0.0,-2.3095,-2.3095,-2.3754,-2.4366,-2.4595,-2.5742,-2.6575,-2.6785,-2.728,-2.7585,-2.7585,0.0,0.0,0.0,0.0,0.0,0.0,0.0,0.0,0.0,0.0,-2.7705,-2.7914,0.0,0.0,0.0,0.0,0.0,0.0,0.0,0.0,0.0,0.0,0.0,0.0,0.0,0.0,0.0,0.0,0.0,0.0,0.0,0.0,0.0,0.0,0.0,0.0,0.0,0.0,0.0,0.0,-4.5992,-4.7938,-4.903,-5.0601,-5.2007,-5.2486,-5.2247,-5.1678,0.0,0.0,0.0,-4.5274,-4.4107,-4.3439,-4.3928,-4.4018,-4.4227,-4.4915,0.0,-4.6471,0.0,0.0,0.0,0.0,0.0,0.0,0.0,0.0,0.0,0.0,0.0,0.0,0.0,0.0,-6.2181,-6.3049,-6.3079,-6.3079,-6.3079,-6.3079,-6.3079,-6.3079,-6.3079,-6.3079,-6.3079,-6.3079,-6.3408,-6.4036,0.0,0.0,0.0,-6.652,-6.6819,-6.6999,-6.6999,-6.6999,-6.6999,-6.6999,-6.6999,-6.6999,0.0,0.0,0.0,0.0,0.0,0.0,-2.3095,-2.3754,-2.4567,-2.53,-2.6041,-2.6788,-2.7509,-2.7615,-2.7585,-2.7585,0.0,0.0,0.0,0.0,0.0,0.0,0.0,0.0,0.0,0.0,-2.7944,-2.8577,-2.9292,-2.9894,0.0,0.0,0.0,0.0,0.0,0.0,0.0,0.0,0.0,0.0,0.0,0.0,0.0,0.0,0.0,0.0,0.0,0.0,0.0,0.0,0.0,0.0,0.0,0.0,0.0,0.0,-4.4287,-4.6459,-4.716,-4.9254,-5.1229,-5.1229,-5.1229,-5.09,0.0,0.0,0.0,-4.4616,-4.3768,-4.329,-4.329,-4.329,-4.3529,-4.4227,-4.4885,0.0,0.0,0.0,0.0,0.0,0.0,0.0,0.0,0.0,0.0,0.0,0.0,0.0,0.0,0.0,-6.1732,-6.3049,-6.3079,-6.3079,-6.3079,-6.3079,-6.3079,-6.3079,-6.3079,-6.3079,-6.3079,-6.3079,0.0,0.0,0.0,0.0,0.0,-6.6011,-6.64,-6.6999,-6.6999,-6.6999,-6.6999,-6.6999,-6.6999,-6.6999,0.0,0.0,0.0,0.0,0.0,0.0,0.0,-2.3588,-2.3573,-2.3813,-2.4937,-2.5851,-2.6067,-2.6993,-2.7585,-2.7585,0.0,0.0,0.0,0.0,0.0,0.0,0.0,0.0,0.0,0.0,-2.8397,-2.8607,-2.9684,-3.0313,-3.0522,-3.1182,-3.1511,0.0,0.0,0.0,0.0,0.0,0.0,0.0,0.0,0.0,0.0,0.0,0.0,0.0,0.0,0.0,0.0,0.0,0.0,0.0,0.0,0.0,0.0,0.0,0.0,0.0,-4.6322,-4.8237,-4.9883,-4.9883,-4.9883,-4.9673,-4.8805,0.0,0.0,-4.4496,-4.3738,-4.329,-4.329,-4.329,-4.3499,-4.4197,-4.4855,0.0,0.0,0.0,0.0,0.0,0.0,0.0,0.0,0.0,0.0,0.0,0.0,0.0,0.0,0.0,-6.1014,-6.2361,-6.2839,-6.3079,-6.3079,-6.3079,-6.3079,-6.3079,-6.3079,-6.3079,-6.3079,-6.3079,0.0,0.0,0.0,0.0,0.0,-6.5144,-6.5473,-6.5682,-6.6131,-6.6311,-6.637,-6.6819,-6.6999,-6.6999,0.0,0.0,0.0,0.0,0.0,0.0,0.0,-2.3973,-2.3845,-2.4126,-2.5295,-2.6188,-2.647,-2.7594,-2.8364,-2.8364,0.0,0.0,0.0,0.0,0.0,0.0,0.0,0.0,-2.7974,-2.8397,-2.8846,-2.9325,-3.0103,-3.0642,-3.0883,-3.1301,-3.1511,-3.1511,-3.1511,0.0,0.0,0.0,0.0,0.0,0.0,0.0,-3.5519,0.0,0.0,0.0,0.0,0.0,0.0,0.0,0.0,0.0,0.0,0.0,0.0,0.0,-4.1743,0.0,0.0,-4.6441,-4.7818,-4.8087,-4.8147,0.0,0.0,0.0,0.0,0.0,-4.3988,-4.3738,-4.3977,-4.3828,-4.3977,-4.4874,-4.5185,0.0,0.0,0.0,0.0,0.0,0.0,0.0,0.0,0.0,0.0,0.0,0.0,0.0,0.0,0.0,-6.0475,-6.1313,-6.2241,-6.2839,-6.3079,-6.3079,-6.3079,-6.3079,-6.3079,-6.3079,-6.3079,0.0,0.0,0.0,0.0,0.0,0.0,-6.4455,-6.4784,-6.5054,-6.5473,-6.5652,-6.5682,-6.6101,-6.6251,-6.6251,0.0,0.0,0.0,0.0,0.0,0.0,0.0,0.0,-2.5039,-2.572,-2.658,-2.7384,-2.8054,-2.8959,-2.951,-2.951,0.0,0.0,0.0,0.0,0.0,0.0,0.0,0.0,-2.8667,-2.8697,-2.9325,-3.0492,-3.0552,-3.0883,-3.1511,-3.1511,-3.1511,-3.1511,-3.1511,-3.154,0.0,0.0,0.0,0.0,0.0,0.0,0.0,0.0,0.0,0.0,0.0,0.0,0.0,0.0,0.0,0.0,0.0,0.0,0.0,0.0,0.0,0.0,0.0,0.0,0.0,0.0,0.0,0.0,0.0,0.0,0.0,0.0,0.0,0.0,0.0,-4.4766,-4.4766,-4.607,0.0,0.0,0.0,0.0,0.0,0.0,0.0,0.0,0.0,0.0,0.0,0.0,0.0,0.0,0.0,0.0,0.0,-6.0086,-6.1313,-6.2301,-6.2989,-6.3049,-6.3079,-6.3079,-6.3079,-6.3079,-6.3079,0.0,0.0,0.0,0.0,0.0,0.0,-6.3947,-6.4306,-6.4904,-6.4934,-6.4964,-6.4964,-6.4994,-6.5024,-6.5024,0.0,0.0,0.0,0.0,0.0,0.0,0.0,0.0,0.0,0.0,-2.5715,-2.6276,-2.6459,-2.7737,-2.8594,0.0,0.0,0.0,0.0,0.0,0.0,0.0,0.0,0.0,-2.9355,-2.9804,-3.0193,-3.0492,-3.1002,-3.1361,-3.1511,-3.1511,-3.1511,-3.1511,-3.1511,-3.2079,0.0,0.0,0.0,0.0,0.0,0.0,0.0,0.0,0.0,0.0,-3.6417,-3.7105,0.0,0.0,0.0,0.0,0.0,0.0,0.0,0.0,-4.0516,-4.0905,-4.2222,0.0,-4.4586,-4.4736,-4.4796,0.0,0.0,0.0,0.0,0.0,0.0,0.0,0.0,0.0,0.0,0.0,0.0,0.0,0.0,0.0,0.0,0.0,0.0,0.0,0.0,0.0,0.0,0.0,0.0,0.0,0.0,0.0,0.0,-6.0057,-6.0386,-6.1134,-6.2301,-6.281,-6.3079,-6.3079,-6.3079,-6.3079,-6.3079,0.0,0.0,0.0,0.0,0.0,-6.3288,-6.3288,-6.3378,-6.3588,-6.4066,-6.4246,-6.4306,-6.4844,-6.5024,-6.5024,0.0,0.0,0.0,0.0,0.0,0.0,0.0,0.0,0.0,0.0,0.0,0.0,0.0,0.0,0.0,0.0,0.0,0.0,0.0,0.0,0.0,0.0,0.0,-2.9714,-3.0013,-3.0342,-3.0672,-3.0943,-3.1331,-3.1511,-3.1511,-3.1511,-3.1511,-3.1511,-3.1809,-3.2706,-3.3963,0.0,0.0,0.0,0.0,0.0,0.0,0.0,0.0,0.0,-3.7135,-3.7793,0.0,-3.8751,-3.911,-3.9373,0.0,0.0,0.0,0.0,-4.0816,-4.1482,-4.2201,-4.292,-4.3479,-4.3778,-4.3828,-4.3828,0.0,0.0,0.0,0.0,0.0,0.0,0.0,0.0,0.0,0.0,0.0,0.0,0.0,0.0,0.0,0.0,0.0,0.0,0.0,0.0,0.0,0.0,0.0,0.0,0.0,0.0,0.0,0.0,-5.9937,-6.0745,-6.2091,-6.245,-6.278,-6.3079,-6.3079,-6.3079,-6.3079,-6.3079,0.0,0.0,0.0,0.0,-6.3079,-6.3079,-6.3079,-6.3109,-6.3438,-6.3588,-6.3617,-6.4006,-6.4126,-6.4126,0.0,0.0,0.0,0.0,0.0,0.0,0.0,0.0,0.0,0.0,0.0,0.0,0.0,0.0,0.0,0.0,0.0,0.0,0.0,0.0,0.0,0.0,-2.9894,-3.0133,-3.0642,-3.0672,-3.0913,-3.1511,-3.1511,-3.1511,-3.1511,-3.1511,-3.154,-3.169,-3.2437,-3.3425,-3.4503,-3.4623,0.0,0.0,-3.5519,0.0,0.0,0.0,0.0,0.0,0.0,0.0,0.0,-3.923,-3.9373,-3.9439,-3.9493,0.0,0.0,0.0,0.0,0.0,-4.253,-4.256,-4.2641,-4.314,-4.329,-4.329,0.0,0.0,0.0,0.0,0.0,0.0,0.0,0.0,0.0,0.0,0.0,0.0,0.0,0.0,0.0,0.0,0.0,0.0,0.0,0.0,0.0,0.0,0.0,0.0,0.0,0.0,0.0,0.0,-5.9638,-6.0535,-6.1762,-6.2002,-6.2391,-6.2929,-6.3019,-6.3079,-6.3079,-6.3079,0.0,0.0,0.0,0.0,-6.3079,-6.3079,-6.3079,-6.3079,-6.3079,-6.3079,-6.3079,-6.3079,-6.3079,-6.3079,0.0,0.0,0.0,0.0,0.0,0.0,0.0,0.0,0.0,0.0,0.0,0.0,0.0,0.0,0.0,0.0,0.0,0.0,0.0,0.0,0.0,-3.1212,-3.1212,-3.1241,-3.1331,-3.1361,-3.1391,-3.1511,-3.1511,-3.1511,-3.1511,-3.1511,-3.1809,-3.2378,-3.3634,-3.4324,-3.4533,-3.51,-3.54,-3.5519,-3.5519,0.0,0.0,0.0,0.0,0.0,0.0,0.0,0.0,-3.9379,-3.9373,-3.9529,-4.0068,0.0,0.0,0.0,0.0,0.0,-4.303,-4.314,-4.317,-4.326,-4.329,-4.329,-4.329,0.0,0.0,0.0,0.0,0.0,0.0,0.0,0.0,0.0,0.0,0.0,0.0,0.0,0.0,0.0,0.0,0.0,0.0,0.0,0.0,0.0,0.0,0.0,0.0,0.0,0.0,0.0,0.0,-5.9608,-6.0386,-6.1523,-6.2151,-6.2241,-6.281,-6.3079,-6.3079,-6.3079,-6.3079,0.0,0.0,-6.3079,-6.3079,-6.3079,-6.3079,-6.3079,-6.3079,-6.3079,-6.3079,-6.3079,-6.3079,-6.3079,0.0,0.0,0.0,0.0,0.0,0.0,0.0,0.0,0.0,0.0,0.0,0.0,0.0,0.0,0.0,0.0,0.0,0.0,0.0,0.0,-3.1511,-3.1511,-3.1511,-3.1511,-3.1511,-3.1511,-3.1511,-3.1511,-3.1511,-3.169,-3.2049,-3.2407,-3.2946,-3.3604,-3.4234,-3.4713,-3.504,-3.537,-3.5519,-3.5549,0.0,0.0,0.0,0.0,0.0,0.0,0.0,0.0,0.0,0.0,-3.9649,-4.0008,-4.0307,0.0,0.0,0.0,0.0,0.0,-4.32,-4.329,-4.329,-4.329,-4.329,-4.329,-4.329,0.0,0.0,0.0,0.0,0.0,0.0,0.0,0.0,0.0,0.0,0.0,0.0,0.0,0.0,0.0,0.0,0.0,0.0,0.0,0.0,0.0,0.0,0.0,0.0,0.0,0.0,0.0,0.0,0.0,-5.9548,-6.0505,-6.1194,-6.1583,-6.2241,-6.254,-6.257,-6.2899,-6.3079,-6.3079,0.0,-6.3079,-6.3079,-6.3079,-6.3079,-6.3079,-6.3079,-6.3079,-6.3079,-6.3079,-6.3079,-6.3079,0.0,0.0,0.0,0.0,0.0,0.0,0.0,0.0,0.0,0.0,0.0,0.0,0.0,0.0,0.0,0.0,0.0,0.0,0.0,0.0,-3.172,-3.172,-3.1869,-3.1809,-3.1511,-3.166,-3.172,-3.172,-3.1899,-3.2228,-3.2766,-3.3425,-3.3993,-3.4503,-3.4683,-3.5011,-3.5519,-3.5519,-3.5579,-3.5789,0.0,0.0,0.0,0.0,0.0,0.0,0.0,0.0,0.0,0.0,0.0,0.0,0.0,0.0,0.0,-4.259,-4.294,-4.329,-4.329,-4.329,-4.329,-4.329,-4.329,-4.3319,-4.3499,0.0,0.0,0.0,0.0,0.0,0.0,0.0,0.0,0.0,0.0,0.0,0.0,0.0,0.0,0.0,0.0,0.0,0.0,0.0,0.0,0.0,0.0,0.0,0.0,0.0,0.0,0.0,0.0,0.0,-5.9099,-5.9608,-6.0206,-6.0894,-6.1553,-6.1882,-6.1882,-6.254,-6.2839,-6.2839,-6.3019,-6.3079,-6.3079,-6.3079,-6.3079,-6.3079,-6.3079,-6.3079,-6.3079,-6.3079,-6.3079,-6.3079,0.0,0.0,0.0,0.0,0.0,0.0,0.0,0.0,0.0,0.0,0.0,0.0,0.0,0.0,0.0,0.0,0.0,0.0,0.0,0.0,-3.2437,-3.2437,-3.3036,-3.2766,-3.154,-3.2108,-3.2437,-3.2437,-3.3066,-3.3365,-3.3425,-3.4114,-3.4444,-3.4533,-3.516,-3.5459,-3.5519,-3.5519,-3.5848,-3.6417,-3.6477,0.0,0.0,0.0,0.0,0.0,0.0,0.0,0.0,0.0,0.0,0.0,0.0,0.0,-4.253,-4.309,-4.326,-4.329,-4.329,-4.329,-4.329,-4.329,-4.329,0.0,-4.4107,-4.4257,0.0,0.0,0.0,0.0,0.0,0.0,0.0,0.0,0.0,0.0,0.0,0.0,0.0,0.0,0.0,0.0,0.0,0.0,0.0,0.0,0.0,0.0,0.0,0.0,0.0,0.0,0.0,0.0,-5.9099,-5.9159,-5.9518,-6.0176,-6.0864,-6.1194,-6.1194,-6.1882,-6.2181,-6.2211,-6.281,-6.3079,-6.3079,-6.3079,-6.3079,-6.3079,-6.3079,-6.3079,-6.3079,-6.3079,-6.3079,-6.3079,0.0,0.0,0.0,0.0,0.0,0.0,0.0,0.0,0.0,0.0,0.0,0.0,0.0,0.0,0.0,0.0,0.0,0.0,0.0,-3.1963,-3.2514,-3.3095,-3.3365,-3.3275,-3.2766,-3.3006,-3.3125,-3.3125,-3.3784,-3.4113,-3.4144,-3.4801,-3.513,-3.513,-3.54,-3.5729,-3.6118,-3.6118,-3.6477,-3.7105,-3.7494,-3.7973,0.0,0.0,0.0,0.0,0.0,0.0,0.0,0.0,-4.1294,0.0,0.0,0.0,-4.3,-4.323,-4.329,-4.329,-4.329,-4.329,-4.329,-4.329,0.0,0.0,0.0,0.0,0.0,0.0,0.0,0.0,0.0,0.0,0.0,0.0,0.0,0.0,0.0,0.0,0.0,0.0,0.0,0.0,0.0,0.0,0.0,0.0,0.0,0.0,0.0,0.0,0.0,0.0,0.0,0.0,0.0,-5.9099,-5.9219,-5.9488,-6.0146,-6.0475,-6.0505,-6.1164,-6.1493,-6.1493,-6.1762,-6.1852,-6.1882,-6.2301,-6.248,-6.251,-6.2929,-6.3079,-6.3079,-6.3079,-6.3079,-6.3079,0.0,0.0,0.0,0.0,0.0,0.0,0.0,0.0,0.0,0.0,0.0,0.0,0.0,0.0,0.0,0.0,0.0,0.0,-3.1137,-3.1984,-3.2684,-3.3347,-3.3837,-3.4143,-3.4143,-3.4143,-3.4023,-3.3814,-3.4472,-3.4833,-3.4833,-3.528,-3.5519,-3.5519,-3.5729,-3.6058,-3.6507,-3.6686,-3.7135,-3.7764,-3.8212,-3.8512,0.0,0.0,0.0,0.0,0.0,0.0,0.0,0.0,0.0,0.0,0.0,0.0,0.0,0.0,-4.329,-4.329,-4.329,-4.3439,-4.3618,0.0,0.0,0.0,0.0,0.0,0.0,0.0,0.0,0.0,0.0,0.0,0.0,0.0,0.0,0.0,0.0,0.0,0.0,0.0,0.0,0.0,0.0,0.0,0.0,0.0,0.0,0.0,0.0,0.0,0.0,0.0,0.0,0.0,0.0,-5.9099,-5.9099,-5.9099,-5.9548,-5.9787,-5.9787,-6.0475,-6.0775,-6.0805,-6.1014,-6.1104,-6.1164,-6.1613,-6.1792,-6.1822,-6.2271,-6.245,-6.245,-6.245,-6.245,-6.245,0.0,0.0,0.0,0.0,0.0,0.0,0.0,0.0,0.0,0.0,0.0,0.0,0.0,0.0,0.0,0.0,0.0,0.0,-2.9443,-3.1712,-3.3115,-3.3115,-3.4614,-3.5519,-3.5519,-3.5519,-3.516,-3.4503,-3.516,-3.5519,-3.5519,-3.5519,-3.5519,-3.5549,-3.6207,-3.6507,-3.6537,-3.7165,-3.7793,-3.8392,-3.8392,-3.8811,-3.9373,0.0,0.0,0.0,0.0,0.0,0.0,0.0,0.0,0.0,0.0,0.0,0.0,0.0,-4.329,-4.329,-4.3319,-4.3798,0.0,0.0,0.0,0.0,0.0,0.0,0.0,0.0,0.0,0.0,0.0,0.0,0.0,0.0,0.0,0.0,0.0,0.0,0.0,0.0,0.0,0.0,0.0,0.0,0.0,0.0,0.0,0.0,0.0,0.0,0.0,0.0,0.0,0.0,0.0,-5.9099,-5.9099,-5.9099,-5.9099,-5.9099,-5.9129,-5.9787,-6.0086,-6.0116,-6.0805,-6.1104,-6.1104,-6.1104,-6.1104,-6.1104,-6.1104,-6.1104,-6.1104,-6.1104,-6.1104,-6.1104,0.0,0.0,0.0,0.0,0.0,0.0,0.0,0.0,0.0,0.0,0.0,0.0,0.0,0.0,0.0,0.0,0.0,0.0,-3.1548,-3.2339,-3.3042,-3.3686,-3.485,-3.5166,-3.4476,-3.5133,-3.54,-3.519,-3.54,-3.5519,-3.5519,-3.5968,-3.6178,-3.6237,-3.6836,-3.7375,-3.7853,-3.8033,-3.8482,-3.911,-3.911,-3.923,-3.9433,0.0,0.0,0.0,0.0,0.0,0.0,0.0,0.0,0.0,0.0,0.0,0.0,-4.4018,-4.4018,-4.4137,-4.4586,0.0,0.0,0.0,0.0,0.0,0.0,0.0,0.0,0.0,0.0,0.0,0.0,0.0,0.0,0.0,0.0,0.0,0.0,0.0,0.0,0.0,0.0,0.0,0.0,0.0,0.0,0.0,0.0,0.0,0.0,0.0,0.0,0.0,0.0,0.0,0.0,0.0,-5.9099,-5.9099,-5.9099,-5.9099,-5.9129,-5.9308,-5.9398,-5.9398,-5.9608,-5.9697,-5.9727,-6.0206,-6.0685,-6.1104,-6.1104,-6.1104,-6.1104,-6.1104,-6.1104,-6.1104,0.0,0.0,0.0,0.0,0.0,0.0,0.0,0.0,0.0,0.0,-2.7102,-2.7444,0.0,0.0,0.0,0.0,0.0,0.0,0.0,-3.2191,-3.2841,-3.3429,-3.4773,-3.5198,-3.461,-3.5466,-3.5908,-3.5908,-3.5908,-3.5908,-3.5908,-3.6567,-3.6866,-3.6896,-3.7524,-3.8033,-3.8422,-3.8691,-3.905,-3.9403,-3.9709,-3.9798,-3.9888,0.0,0.0,0.0,0.0,0.0,0.0,0.0,0.0,0.0,0.0,0.0,0.0,-4.4616,-4.4706,-4.4796,-4.5185,0.0,0.0,0.0,0.0,0.0,0.0,0.0,0.0,0.0,0.0,0.0,0.0,0.0,0.0,0.0,0.0,0.0,0.0,0.0,0.0,0.0,0.0,0.0,0.0,0.0,0.0,0.0,0.0,0.0,0.0,0.0,0.0,0.0,0.0,0.0,0.0,0.0,-5.9099,-5.9099,-5.9099,-5.9099,-5.9099,-5.9099,-5.9099,-5.9099,-5.9099,-5.9099,-5.9129,-5.9548,-5.9937,-6.0326,-6.0326,-6.0326,-6.0326,-6.0326,-6.0326,-6.0326,0.0,0.0,0.0,0.0,0.0,0.0,0.0,0.0,0.0,0.0,-2.7369,-2.7821,0.0,0.0,0.0,0.0,0.0,0.0,0.0,0.0,-3.2486,-3.2593,-3.4433,-3.5511,-3.5669,-3.6267,-3.6567,-3.6567,-3.6567,-3.6567,-3.6596,-3.7195,-3.7494,-3.7524,-3.8182,-3.8482,-3.8512,-3.914,-3.9469,-3.9523,-4.0157,-4.0427,-4.0546,-4.1235,0.0,0.0,0.0,0.0,0.0,0.0,0.0,0.0,0.0,0.0,0.0,-4.5185,-4.5394,-4.5394,0.0,0.0,0.0,0.0,0.0,0.0,0.0,0.0,0.0,0.0,0.0,0.0,0.0,0.0,0.0,0.0,0.0,0.0,0.0,0.0,0.0,0.0,0.0,0.0,0.0,0.0,0.0,0.0,0.0,0.0,0.0,0.0,0.0,0.0,0.0,0.0,0.0,0.0,-5.9009,0.0,-5.9069,-5.9099,-5.9099,-5.9099,-5.9099,-5.9099,-5.9099,-5.9099,-5.9099,-5.9099,-5.9099,-5.9099,-5.9099,-5.9099,-5.9099,-5.9099,-5.9099,-5.9099,0.0,0.0,0.0,0.0,0.0,0.0,0.0,0.0,0.0,0.0,0.0,0.0,0.0,0.0,0.0,0.0,0.0,0.0,0.0,0.0,-3.1829,-3.2558,-3.4225,-3.5707,-3.6952,-3.7135,-3.7225,-3.7225,-3.7225,-3.7225,-3.7225,-3.7883,-3.8182,-3.8212,-3.8901,-3.92,-3.92,-3.9349,-3.9709,-4.0217,-4.0337,-4.0696,-4.1235,-4.1931,-4.2261,0.0,0.0,0.0,0.0,0.0,0.0,0.0,0.0,-4.4676,-4.5214,-4.5903,-4.607,0.0,0.0,0.0,0.0,0.0,0.0,0.0,0.0,0.0,0.0,0.0,0.0,0.0,0.0,0.0,0.0,0.0,0.0,0.0,0.0,0.0,0.0,0.0,0.0,0.0,0.0,0.0,0.0,0.0,0.0,0.0,0.0,0.0,0.0,0.0,0.0,0.0,-5.7304,-5.7992,-5.8351,0.0,-5.886,-5.9099,-5.9099,-5.9099,-5.9099,-5.9099,-5.9099,-5.9099,-5.9099,-5.9099,-5.9099,-5.9099,-5.9099,-5.9099,-5.9099,-5.9099,-5.9099,-5.9099,0.0,0.0,0.0,0.0,0.0,0.0,0.0,0.0,0.0,0.0,0.0,0.0,0.0,0.0,0.0,0.0,0.0,0.0,0.0,0.0,-3.2368,-3.4092,-3.4968,-3.6056,-3.737,-3.7704,-3.7883,-3.7883,-3.8512,-3.8512,-3.7883,-3.8571,-3.8871,-3.8901,-3.926,-3.9589,-3.9888,-3.9888,-4.0277,-4.0905,-4.1205,-4.1572,-4.1961,-4.2581,-4.2821,-4.288,-4.317,0.0,0.0,0.0,0.0,0.0,0.0,0.0,-4.5424,-4.6112,-4.6561,-4.695,0.0,0.0,0.0,0.0,0.0,0.0,0.0,0.0,0.0,0.0,0.0,0.0,0.0,0.0,0.0,0.0,0.0,0.0,0.0,0.0,0.0,0.0,0.0,0.0,0.0,0.0,0.0,0.0,0.0,0.0,0.0,0.0,0.0,0.0,0.0,0.0,-5.6645,-5.7304,-5.7633,-5.7633,-5.7992,-5.8321,-5.865,-5.8949,-5.9099,-5.9099,-5.9099,-5.9099,-5.9099,-5.9099,-5.9099,-5.9099,-5.9099,-5.9099,-5.9099,-5.9099,-5.9099,-5.9099,0.0,0.0,0.0,0.0,0.0,0.0,0.0,0.0,0.0,0.0,0.0,0.0,0.0,0.0,0.0,0.0,0.0,0.0,0.0,0.0,0.0,-3.5439,-3.5869,-3.6496,-3.7456,-3.8202,-3.8631,-3.8751,-3.9858,-3.9948,-3.908,-3.9559,-3.9709,-3.9589,-3.9709,-4.0008,-4.0397,-4.0516,-4.0935,-4.1632,-4.2171,-4.247,-4.262,-4.312,-4.329,-4.329,-4.329,-4.329,-4.329,-4.329,0.0,0.0,0.0,0.0,-4.5274,-4.5933,-4.6621,-4.7279,0.0,0.0,0.0,0.0,0.0,0.0,0.0,0.0,0.0,0.0,0.0,0.0,0.0,0.0,0.0,0.0,0.0,0.0,0.0,0.0,0.0,0.0,0.0,0.0,0.0,0.0,0.0,0.0,0.0,0.0,0.0,0.0,0.0,0.0,0.0,-5.6068,-5.6068,-5.6615,-5.6944,-5.6944,-5.7034,-5.7393,-5.7962,-5.8501,-5.889,-5.9099,-5.9099,-5.9099,-5.9099,-5.9099,-5.9099,-5.9099,-5.9099,-5.9099,-5.9099,-5.9099,-5.9099,-5.9099,0.0,0.0,0.0,0.0,0.0,0.0,0.0,0.0,0.0,0.0,-2.9327,0.0,0.0,0.0,0.0,0.0,0.0,0.0,-3.0482,0.0,0.0,-3.4059,-3.5761,-3.7016,-3.7705,-3.8766,-3.9559,-4.0127,-4.0307,-4.0876,-4.1871,-4.1354,-4.0816,-4.0277,-4.0876,-4.0846,-4.0427,-4.0995,-4.1662,-4.2261,-4.2351,-4.2701,-4.317,-4.326,-4.329,-4.329,-4.329,-4.329,-4.329,-4.329,-4.329,0.0,0.0,0.0,-4.4586,-4.5244,-4.5933,0.0,0.0,0.0,0.0,0.0,0.0,0.0,0.0,0.0,0.0,0.0,0.0,0.0,0.0,0.0,0.0,0.0,0.0,0.0,0.0,0.0,0.0,0.0,0.0,0.0,0.0,0.0,0.0,0.0,0.0,0.0,0.0,0.0,-5.5179,-5.5179,-5.5269,-5.5329,-5.5329,-5.5957,-5.6286,-5.6368,-5.6825,-5.7154,-5.7244,-5.7334,-5.7992,-5.9099,-5.9099,-5.9099,-5.9099,-5.9099,-5.9099,-5.9099,-5.9099,-5.9099,-5.9099,-5.9099,-5.9099,-5.9099,0.0,0.0,0.0,0.0,0.0,0.0,0.0,0.0,0.0,0.0,0.0,-2.9804,0.0,0.0,0.0,-2.9804,-3.008,-3.0608,-3.1461,-3.2097,-3.3245,-3.5087,-3.5992,-3.7158,-3.8657,-3.9156,-3.9738,-4.0397,-4.1145,0.0,0.0,-4.3359,-4.2821,-4.1542,-4.1452,-4.1414,-4.1542,-4.1841,-4.2312,-4.291,-4.291,-4.306,-4.329,-4.329,-4.3529,-4.3858,-4.3858,-4.3858,-4.3858,-4.3858,-4.3589,-4.3349,-4.3648,0.0,0.0,0.0,0.0,0.0,0.0,0.0,0.0,0.0,0.0,0.0,0.0,0.0,0.0,0.0,0.0,0.0,0.0,0.0,0.0,0.0,0.0,0.0,0.0,0.0,0.0,0.0,0.0,0.0,0.0,0.0,0.0,0.0,0.0,0.0,0.0,-5.5179,-5.5179,-5.5179,-5.5179,0.0,-5.5179,-5.5478,-5.5628,-5.5628,-5.6286,-5.6585,-5.6585,-5.6944,-5.7633,-5.856,-5.856,-5.877,-5.9099,-5.9099,-5.9099,-5.9099,-5.9099,-5.9099,-5.9099,-5.9099,-5.9099,-5.9099,0.0,0.0,0.0,0.0,0.0,0.0,0.0,0.0,0.0,0.0,0.0,0.0,0.0,0.0,0.0,0.0,-3.0382,-3.106,-3.2139,-3.234,-3.3322,-3.5332,-3.5934,-3.6954,-3.8546,-3.9126,-3.9828,-4.0636,0.0,0.0,-4.3798,-4.4496,-4.4197,0.0,-4.247,-4.2222,-4.241,-4.256,-4.288,-4.329,-4.329,-4.329,-4.3319,-4.3469,-4.3947,-4.4556,-4.4556,-4.4676,-4.4766,-4.4436,-4.3988,-4.3499,-4.3349,-4.3618,0.0,0.0,0.0,0.0,0.0,0.0,0.0,0.0,0.0,0.0,0.0,0.0,0.0,0.0,0.0,0.0,0.0,0.0,0.0,0.0,0.0,0.0,0.0,0.0,0.0,0.0,0.0,0.0,0.0,0.0,0.0,0.0,0.0,0.0,-5.5179,-5.5179,-5.5179,-5.5179,-5.5179,-5.5179,-5.5179,-5.5179,-5.5179,-5.5209,-5.5688,-5.5927,-5.5927,-5.6406,-5.6974,-5.7633,-5.7782,-5.8141,-5.859,-5.877,-5.886,-5.886,-5.9039,-5.9099,-5.9099,-5.9099,-5.9099,-5.9099,0.0,0.0,0.0,0.0,0.0,0.0,0.0,0.0,0.0,0.0,0.0,0.0,-2.9804,-2.9804,-3.0005,-3.0532,-3.0608,-3.106,-3.2139,-3.2742,-3.3129,-3.3283,-3.5156,0.0,-3.6369,-3.8368,-4.0038,-4.1324,0.0,0.0,-4.5155,-4.3988,-4.4047,-4.5125,-4.4466,-4.3509,-4.244,-4.303,-4.326,-4.329,-4.329,-4.329,-4.3349,-4.4018,-4.4676,-4.5244,-4.5244,-4.5663,-4.598,-4.4736,-4.4287,-4.4167,-4.3499,-4.3319,-4.3349,0.0,0.0,0.0,0.0,0.0,0.0,0.0,0.0,0.0,0.0,0.0,0.0,0.0,0.0,0.0,0.0,0.0,0.0,0.0,0.0,0.0,0.0,0.0,0.0,0.0,0.0,0.0,0.0,0.0,0.0,0.0,0.0,0.0,-5.5179,-5.5179,-5.5179,-5.5179,-5.5179,-5.5179,-5.5179,-5.5179,-5.5179,-5.5179,-5.5239,-5.5239,-5.5239,-5.5269,-5.5658,-5.6316,-5.6885,-5.7154,-5.7244,-5.7902,-5.8171,-5.8231,-5.886,-5.9099,-5.9099,-5.9099,-5.9099,-5.9099,0.0,0.0,0.0,0.0,0.0,0.0,0.0,0.0,0.0,0.0,0.0,0.0,0.0,-3.0105,-3.0407,-3.0608,-3.1235,-3.1964,-3.2717,-3.2968,-3.3386,-3.4121,-3.548,-3.6526,-3.7214,-3.8657,-4.0068,0.0,0.0,-4.295,-4.4676,-4.4616,-4.4616,-4.4646,-4.3947,-4.3379,-4.3,-4.32,-4.329,0.0,-4.329,-4.329,-4.3349,-4.4037,-4.5005,0.0,0.0,0.0,0.0,-4.5903,-4.5035,-4.4197,-4.3499,-4.329,-4.3379,-4.3838,-4.4426,-4.5334,0.0,0.0,0.0,0.0,0.0,0.0,0.0,0.0,0.0,0.0,0.0,0.0,0.0,0.0,0.0,0.0,0.0,0.0,0.0,0.0,0.0,0.0,0.0,0.0,0.0,0.0,0.0,0.0,0.0,0.0,-5.5179,-5.5179,-5.5179,-5.5179,-5.5179,-5.5179,-5.5179,-5.5179,-5.5179,-5.5179,-5.5179,-5.5179,-5.5179,-5.5179,-5.5329,-5.5568,-5.5777,-5.6346,-5.7124,-5.7363,-5.7453,-5.7483,-5.7723,-5.8082,-5.8471,-5.8471,-5.874,-5.9099,0.0,0.0,0.0,0.0,0.0,0.0,0.0,0.0,-2.9352,-2.9754,0.0,0.0,0.0,0.0,-3.0758,-3.111,-3.1989,-3.2667,-3.3043,-3.3428,-3.3784,-3.4163,-3.5842,-3.6905,-3.7252,-3.8863,0.0,0.0,0.0,0.0,0.0,-4.4526,-4.4526,-4.4287,-4.3589,-4.329,0.0,0.0,0.0,-4.329,0.0,0.0,-4.3379,-4.4317,0.0,0.0,0.0,0.0,0.0,0.0,0.0,-4.4825,-4.3917,-4.3469,-4.3379,-4.3828,-4.4137,-4.4496,-4.5394,0.0,0.0,0.0,0.0,0.0,0.0,0.0,0.0,0.0,0.0,0.0,0.0,0.0,0.0,0.0,0.0,0.0,0.0,0.0,0.0,0.0,0.0,0.0,0.0,0.0,0.0,0.0,0.0,0.0,-5.5179,-5.5179,-5.5179,-5.5179,-5.5179,-5.5179,-5.5179,-5.5179,-5.5179,-5.5179,-5.5179,-5.5179,-5.5179,-5.5179,-5.5179,-5.5179,-5.5179,-5.5658,-5.6466,-5.6705,-5.6795,-5.6795,-5.7004,-5.7363,-5.7782,-5.7782,-5.8201,-5.877,0.0,0.0,0.0,0.0,0.0,0.0,0.0,0.0,-2.9804,-2.9804,0.0,0.0,0.0,0.0,0.0,-3.2139,-3.2742,-3.3111,-3.3154,-3.4079,-3.422,-3.324,-3.6148,-3.7319,-3.6318,0.0,0.0,0.0,0.0,0.0,0.0,0.0,-4.3648,-4.4257,-4.3589,-4.329,-4.329,0.0,-4.329,-4.329,0.0,-4.329,-4.3439,0.0,0.0,0.0,-4.8027,-4.9105,0.0,-4.7997,0.0,0.0,0.0,-4.3828,-4.329,-4.329,-4.3738,-4.4287,0.0,0.0,0.0,0.0,0.0,0.0,0.0,0.0,0.0,0.0,0.0,0.0,0.0,0.0,0.0,0.0,0.0,0.0,0.0,0.0,0.0,0.0,0.0,0.0,0.0,0.0,0.0,0.0,0.0,-5.5179,-5.5179,-5.5179,-5.5179,-5.5179,-5.5179,-5.5179,-5.5179,-5.5179,-5.5179,-5.5179,-5.5179,-5.5179,-5.5179,-5.5179,-5.5179,-5.5179,-5.5179,-5.5179,-5.5239,-5.5867,-5.6188,-5.6248,-5.6795,-5.7064,-5.7064,-5.7064,-5.7513,-5.8082,0.0,0.0,0.0,0.0,0.0,-2.8247,-2.8612,-2.9327,-2.9804,0.0,0.0,0.0,-3.0357,-3.121,-3.2064,-3.2767,-3.2993,-3.3428,-3.4178,-3.3784,-3.4053,-3.5319,-3.6653,-3.758,-3.8051,0.0,0.0,0.0,0.0,0.0,0.0,0.0,0.0,0.0,-4.3379,-4.329,-4.329,-4.329,0.0,0.0,-4.329,-4.329,0.0,0.0,0.0,0.0,0.0,-4.8835,-4.9374,0.0,-4.7578,-4.6711,0.0,-4.3828,-4.329,-4.329,-4.3409,-4.3559,-4.3559,0.0,0.0,0.0,0.0,0.0,0.0,0.0,0.0,0.0,0.0,0.0,0.0,0.0,0.0,0.0,0.0,0.0,0.0,0.0,0.0,0.0,0.0,0.0,0.0,0.0,0.0,0.0,0.0,-5.5179,-5.5179,-5.5179,-5.5179,-5.5179,-5.5179,-5.5179,-5.5179,-5.5179,-5.5179,-5.5179,-5.5179,-5.5179,-5.5179,-5.5179,-5.5179,-5.5179,-5.5179,-5.5179,-5.5209,-5.5388,-5.5478,-5.5478,-5.5658,-5.6017,-5.6436,-5.6436,-5.6825,-5.7393,0.0,0.0,0.0,0.0,0.0,-2.8298,-2.8813,-2.9428,-2.9804,0.0,0.0,0.0,-3.0859,-3.1712,-3.2441,-3.3061,-3.3513,-3.4037,-3.4677,-3.4938,-3.5534,-3.6598,-3.7833,-3.8724,-3.9207,-4.0917,0.0,0.0,0.0,0.0,0.0,0.0,0.0,0.0,0.0,0.0,0.0,0.0,0.0,0.0,-4.3708,0.0,0.0,-4.4885,-4.5992,0.0,0.0,0.0,-5.0361,-4.9404,-4.8117,0.0,0.0,-4.3828,-4.329,-4.329,-4.329,-4.329,-4.329,-4.329,-4.329,0.0,0.0,0.0,0.0,0.0,0.0,0.0,0.0,0.0,0.0,0.0,0.0,0.0,0.0,0.0,0.0,0.0,0.0,0.0,0.0,0.0,0.0,0.0,0.0,0.0,-5.5179,-5.5179,-5.5179,-5.5179,-5.5179,-5.5179,-5.5179,-5.5179,-5.5179,-5.5179,-5.5179,-5.5179,-5.5179,-5.5179,-5.5179,-5.5179,-5.5179,-5.5179,-5.5179,-5.5179,-5.5179,-5.5179,-5.5179,-5.5179,-5.5179,-5.5418,-5.5777,-5.5777,-5.6166,-5.6705,0.0,0.0,-2.6751,-2.7304,-2.7821,-2.8373,-2.8913,-2.9478,-2.9804,0.0,-2.9905,-3.0331,-3.1286,-3.1938,-3.2516,-3.3043,-3.4079,-3.4759,-3.4856,-3.6677,-3.766,-3.7566,-3.9401,-4.0317,-4.0079,-4.1675,-4.25,0.0,0.0,0.0,0.0,0.0,-4.329,-4.329,0.0,0.0,0.0,0.0,0.0,-4.4436,-4.4496,-4.4885,0.0,0.0,-4.7219,0.0,-4.9149,-5.0541,-5.1917,-5.0704,-4.8611,0.0,0.0,0.0,0.0,0.0,-4.329,-4.329,-4.329,-4.329,-4.329,-4.329,0.0,0.0,-4.4167,-4.4825,0.0,0.0,0.0,0.0,0.0,0.0,0.0,0.0,0.0,0.0,0.0,0.0,0.0,0.0,0.0,0.0,0.0,0.0,0.0,-5.5179,-5.5179,-5.5179,-5.5179,-5.5179,-5.5179,-5.5179,-5.5179,-5.5179,-5.5179,-5.5179,-5.5179,-5.5179,-5.5179,-5.5179,-5.5179,-5.5179,-5.5179,-5.5179,-5.5179,-5.5179,-5.5179,-5.5179,-5.5179,-5.5179,-5.5179,-5.5179,-5.5179,-5.5179,-5.5568,-5.6128,0.0,-2.6851,-2.7293,-2.7846,-2.8398,-2.8913,-2.9528,-2.9729,-2.9804,-2.9804,-3.0532,-3.116,-3.1361,-3.229,-3.2943,-3.3111,-3.4079,-3.5061,-3.5854,-3.6761,-3.8036,-3.9702,-4.0364,-4.1096,-4.1861,-4.2673,-4.315,-4.315,0.0,0.0,0.0,0.0,-4.329,-4.329,0.0,0.0,0.0,0.0,0.0,-4.5155,-4.5693,0.0,-4.6202,-4.686,-4.7608,-4.8446,-4.9613,-5.0631,-5.1379,-5.1109,-4.9643,-4.7668,0.0,0.0,0.0,-4.3439,0.0,-4.329,-4.329,-4.329,-4.329,0.0,0.0,0.0,-4.4167,-4.4825,0.0,0.0,0.0,0.0,0.0,0.0,0.0,0.0,0.0,0.0,0.0,0.0,0.0,0.0,0.0,0.0,0.0,0.0,-5.5179,-5.5179,-5.5179,-5.5179,-5.5179,-5.5179,-5.5179,-5.5179,-5.5179,-5.5179,-5.5179,-5.5179,-5.5179,-5.5179,-5.5179,-5.5179,-5.5179,-5.5179,-5.5179,-5.5179,-5.5179,-5.5179,-5.5179,-5.5179,-5.5179,-5.5179,-5.5179,-5.5179,-5.5179,-5.5179,-5.5269,-5.5388,-2.6851,-2.7128,-2.7544,-2.8373,-2.8712,-2.9088,-2.9704,-2.9804,-2.9804,-2.9804,-3.0959,-3.1913,-3.219,-3.3219,-3.3897,-3.3897,-3.5394,-3.6579,-3.7083,-3.8473,-3.9906,-4.1316,-4.1527,-4.1991,-4.2821,-4.314,-4.329,-4.329,0.0,0.0,0.0,0.0,0.0,0.0,0.0,0.0,0.0,0.0,-4.4975,-4.5394,-4.6411,0.0,-4.7369,-4.8027,-4.8895,-4.9823,-5.0481,-5.1139,-5.1708,-5.1708,-5.0391,0.0,0.0,-4.5903,-4.4676,0.0,-4.3559,-4.329,0.0,0.0,0.0,-4.329,0.0,0.0,0.0,-4.4556,0.0,0.0,0.0,0.0,0.0,0.0,0.0,0.0,0.0,0.0,0.0,0.0,0.0,0.0,0.0,0.0,0.0,0.0,-5.5059,-5.473,-5.47,-5.47,-5.47,-5.4999,-5.5179,-5.5179,-5.5179,-5.5179,-5.5179,-5.5179,-5.5179,-5.5179,-5.5179,-5.5179,-5.5179,-5.5179,-5.5179,-5.5179,-5.5179,-5.5179,-5.5179,-5.5179,-5.5179,-5.5179,-5.5179,-5.5179,-5.5179,-5.5179,-5.5179,-5.5179,-2.7253,-2.7444,-2.7871,-2.8737,-2.8988,-2.9252,-2.9729,-2.9804,-2.9829,-2.993,-3.1463,-3.2844,-3.3573,-3.4791,-3.5641,-3.5744,-3.7574,-3.8727,-3.8727,-4.0792,-4.2132,-4.256,-4.271,-4.291,-4.329,-4.329,-4.329,-4.329,0.0,0.0,0.0,0.0,0.0,0.0,0.0,0.0,0.0,0.0,0.0,-4.5603,0.0,-4.7818,-4.8386,-4.9164,-5.0092,-5.105,-5.1319,-5.1917,-5.2546,-5.2276,0.0,-4.9404,-4.8087,-4.677,0.0,0.0,0.0,0.0,0.0,0.0,0.0,0.0,0.0,-4.3439,0.0,0.0,0.0,0.0,0.0,0.0,0.0,0.0,0.0,0.0,0.0,0.0,0.0,0.0,0.0,0.0,0.0,0.0,0.0,0.0,-5.4431,-5.4042,-5.3892,-5.3952,-5.4192,-5.47,-5.5059,-5.5179,-5.5179,-5.5179,-5.5179,-5.5179,-5.5179,-5.5179,-5.5179,-5.5179,-5.5179,-5.5179,-5.5179,-5.5179,-5.5179,-5.5179,-5.5179,-5.5179,-5.5179,-5.5179,-5.5179,-5.5179,-5.5179,-5.5179,-5.5179,-5.5179,-2.7369,-2.8072,-2.8737,-2.8863,-2.9352,-2.9704,-2.9779,-2.9804,-2.9955,-3.0457,-3.2432,-3.4228,-3.5352,-3.7431,-3.8928,-3.9495,-4.0675,-4.1373,-4.1373,-4.3024,-4.3748,-4.32,-4.3778,-4.3868,-4.329,-4.329,-4.329,-4.329,0.0,0.0,0.0,0.0,0.0,0.0,-4.329,0.0,0.0,0.0,-4.5633,0.0,-4.7638,-4.8207,0.0,-4.9673,-5.0166,-5.0465,-5.1678,-5.2905,-5.3803,0.0,-5.1678,-5.078,0.0,-4.8147,-4.683,-4.5544,0.0,0.0,0.0,0.0,0.0,0.0,-4.329,0.0,0.0,0.0,0.0,0.0,0.0,0.0,0.0,0.0,0.0,0.0,0.0,0.0,0.0,0.0,0.0,0.0,0.0,0.0,0.0,0.0,0.0,-5.3264,-5.2755,-5.2965,-5.4162,-5.4281,-5.4581,-5.5179,-5.5179,-5.5179,-5.5179,-5.5179,-5.5179,-5.5179,-5.5179,-5.5179,-5.5179,-5.5179,-5.5179,-5.5179,-5.5179,-5.5179,-5.5179,-5.5179,-5.5179,-5.5179,-5.5179,-5.5179,-5.5179,-5.5179,-5.5179,-5.5179,-2.8273,-2.8599,-2.8988,-2.9377,-2.9628,-2.9804,-2.9804,-3.0055,-3.0583,-3.1436,-3.3191,-3.4966,-3.6476,0.0,0.0,-4.0931,0.0,-4.3114,0.0,0.0,-4.5753,-4.5053,-4.5293,-4.4934,-4.3888,-4.3898,-4.3678,-4.329,-4.329,0.0,0.0,0.0,0.0,0.0,-4.329,0.0,-4.4377,0.0,0.0,0.0,0.0,0.0,0.0,-4.9883,-5.0913,-5.2007,-5.2576,-5.3144,-5.3473,0.0,-5.2007,0.0,0.0,0.0,0.0,0.0,0.0,0.0,0.0,0.0,0.0,0.0,0.0,0.0,-4.329,0.0,-4.3708,0.0,0.0,0.0,0.0,0.0,0.0,0.0,0.0,0.0,0.0,0.0,0.0,0.0,0.0,0.0,0.0,0.0,0.0,0.0,0.0,-5.1648,-5.2965,-5.3773,-5.4521,-5.5179,-5.5179,-5.5179,-5.5179,-5.5179,-5.5179,-5.5179,-5.5179,-5.5179,-5.5179,-5.5179,-5.5179,-5.5179,-5.5179,-5.5179,-5.5179,-5.5179,-5.5179,-5.5179,-5.5179,-5.5179,-5.5179,-5.5179,-5.5179,-5.5179,-2.9176,-2.9176,-2.9302,-2.9729,-2.9804,-2.9854,-3.0005,-3.0482,-3.126,-3.2516,-3.428,0.0,-3.7993,-3.9677,0.0,0.0,-4.4355,-4.551,0.0,0.0,-4.7459,0.0,0.0,0.0,0.0,-4.4317,-4.3947,-4.329,-4.329,-4.329,0.0,0.0,0.0,0.0,0.0,-4.3768,-4.4646,0.0,0.0,-4.7698,-4.9015,-4.9643,-4.9853,-5.0331,-5.1618,-5.3174,-5.3174,-5.3294,-5.3354,-5.2695,-5.2456,0.0,-5.1349,0.0,0.0,0.0,0.0,0.0,-4.5813,0.0,0.0,0.0,0.0,0.0,0.0,0.0,0.0,0.0,0.0,0.0,0.0,0.0,-4.3648,-4.3988,0.0,0.0,0.0,0.0,0.0,0.0,0.0,0.0,0.0,0.0,0.0,0.0,-4.9478,0.0,-5.1858,-5.3025,-5.4042,-5.491,-5.5089,-5.5179,-5.5179,-5.5179,-5.5179,-5.5179,-5.5179,-5.5179,-5.5179,-5.5179,-5.5179,-5.5179,-5.5179,-5.5179,-5.5179,-5.5179,-5.5179,-5.5179,-5.5179,-5.5179,-5.5179,-5.5179,-5.5179,-5.5179,-2.9754,-2.9754,-2.9779,0.0,0.0,0.0,0.0,-3.1035,0.0,0.0,0.0,0.0,0.0,0.0,0.0,0.0,0.0,-4.9149,-4.9194,0.0,-4.8626,0.0,0.0,-4.6352,0.0,-4.4317,-4.3947,-4.329,-4.329,-4.329,0.0,0.0,0.0,0.0,0.0,-4.4007,-4.5304,-4.6022,-4.707,-4.8356,-4.9673,-5.0554,-5.1169,0.0,-5.2007,-5.3174,-5.3174,0.0,0.0,-5.3384,-5.3144,0.0,0.0,0.0,0.0,0.0,0.0,0.0,0.0,0.0,0.0,-4.4646,0.0,0.0,0.0,0.0,-4.3469,0.0,0.0,0.0,0.0,-4.4287,-4.4077,-4.3409,-4.3898,0.0,0.0,0.0,0.0,0.0,0.0,0.0,0.0,0.0,0.0,0.0,-4.7758,0.0,-5.1109,-5.1887,-5.2875,-5.4192,-5.485,-5.5179,-5.5179,-5.5179,-5.5179,-5.5179,-5.5179,-5.5179,-5.5179,-5.5179,-5.5179,-5.5179,-5.5179,-5.5179,-5.5179,-5.5179,-5.5179,-5.5179,-5.5179,-5.5179,-5.5179,-5.5179,-5.5179,-5.5179,0.0,-3.003,-2.9804,0.0,0.0,0.0,0.0,-3.1687,0.0,0.0,0.0,0.0,0.0,0.0,-4.5652,0.0,0.0,-4.9592,-5.0495,-5.096,0.0,0.0,0.0,-4.8775,0.0,0.0,-4.5053,-4.3947,-4.3499,-4.329,0.0,0.0,0.0,0.0,0.0,-4.3798,0.0,0.0,0.0,0.0,0.0,-5.102,-5.1229,0.0,0.0,-5.3174,-5.3174,-5.3623,0.0,-5.3414,-5.3473,-5.3773,-5.3324,-5.3174,-5.2995,-5.1858,-5.1229,0.0,0.0,0.0,-4.7967,-4.6621,0.0,0.0,0.0,0.0,0.0,0.0,0.0,0.0,0.0,-4.4317,-4.4107,-4.3409,-4.3469,-4.3618,0.0,0.0,0.0,0.0,0.0,0.0,0.0,0.0,0.0,-4.6232,-4.6531,-4.7429,0.0,-5.072,-5.1947,-5.2845,-5.3533,-5.4072,-5.4551,-5.4551,-5.476,-5.5179,-5.5179,-5.5179,-5.5179,-5.5179,-5.5179,-5.5179,-5.5179,-5.5179,-5.5179,-5.5179,-5.5179,-5.5179,-5.5179,-5.5179,-5.5179,-5.5179,-5.5179,-5.5179,-3.0608,0.0,0.0,0.0,0.0,0.0,0.0,0.0,0.0,0.0,-3.8432,0.0,-4.3387,0.0,-4.6583,0.0,-4.963,-5.0375,-5.1511,-5.1977,0.0,-5.0913,-5.1109,0.0,0.0,0.0,0.0,-4.5035,-4.4097,-4.3648,0.0,0.0,0.0,0.0,0.0,0.0,0.0,0.0,-4.695,0.0,0.0,-5.1139,0.0,0.0,-5.2456,-5.3234,0.0,-5.4192,-5.4491,-5.4042,-5.4192,-5.4491,-5.4042,-5.4042,-5.4042,-5.3174,-5.2725,-5.2306,-5.1229,-5.0451,0.0,-4.8327,-4.7519,0.0,-4.6172,0.0,0.0,0.0,0.0,0.0,0.0,-4.4825,-4.4377,-4.3439,-4.329,-4.329,0.0,-4.329,0.0,0.0,0.0,0.0,0.0,0.0,-4.4227,-4.4885,-4.5364,-4.6292,0.0,0.0,-5.0571,-5.1468,-5.2366,-5.3054,-5.3473,-5.3982,-5.4431,-5.485,-5.5089,-5.5179,-5.5179,-5.5179,-5.5179,-5.5179,-5.5179,-5.5179,-5.5179,-5.5179,-5.5179,-5.5179,-5.5179,-5.5179,-5.5179,-5.5179,-5.5179,-5.5179,0.0,0.0,0.0,0.0,-3.0256,0.0,0.0,0.0,-3.5604,0.0,-4.0197,-4.2407,-4.4176,-4.6746,-4.8605,-4.9337,-5.0548,0.0,-5.2217,-5.2276,0.0,0.0,-5.1678,-5.075,-4.9479,0.0,0.0,0.0,0.0,-4.4377,0.0,0.0,0.0,0.0,-4.329,0.0,-4.4347,-4.5663,-4.6651,-4.7519,-4.9418,-5.102,-5.2276,-5.2935,0.0,-5.3414,-5.473,-5.5179,-5.5179,-5.5179,-5.5179,-5.5179,-5.5179,-5.476,-5.4251,-5.4251,-5.3803,-5.3144,-5.2486,-5.1828,-5.105,-4.9733,0.0,0.0,0.0,0.0,-4.7668,0.0,0.0,0.0,0.0,0.0,-4.4945,-4.3559,-4.3319,-4.329,-4.329,-4.329,0.0,0.0,0.0,0.0,0.0,-4.329,-4.3559,-4.4227,-4.4287,0.0,0.0,0.0,0.0,-5.0016,-5.1349,-5.2067,-5.2157,-5.3414,-5.4102,-5.4162,-5.482,-5.5149,-5.5149,-5.5179,-5.5179,-5.5179,-5.5179,-5.5179,-5.5179,-5.5179,-5.5179,-5.5179,-5.5179,-5.5179,-5.5179,-5.5179,-5.5179,-5.5179,-3.1185,-3.0432,-2.993,0.0,-3.0532,-3.126,0.0,0.0,0.0,0.0,-4.0919,-4.3359,-4.6721,-4.7743,-4.925,-5.1915,-5.2472,0.0,0.0,0.0,0.0,-5.2965,-5.3264,-5.2815,-5.1468,-5.0152,0.0,-4.7788,0.0,0.0,-4.4317,0.0,0.0,0.0,0.0,0.0,-4.3589,-4.4466,-4.6082,-4.8177,-4.9598,-5.102,0.0,0.0,-5.3503,-5.4042,-5.488,-5.5179,-5.5179,-5.5179,-5.5179,-5.5179,-5.5179,-5.5089,-5.494,-5.494,-5.482,-5.4521,-5.3862,-5.3563,-5.3114,-5.1768,-5.1319,-5.102,0.0,0.0,0.0,0.0,0.0,0.0,0.0,0.0,0.0,-4.4347,-4.3618,-4.329,-4.329,0.0,0.0,-4.329,0.0,0.0,0.0,-4.329,-4.3349,-4.3529,-4.4047,0.0,0.0,0.0,0.0,-4.8027,-4.8865,-5.0002,-5.1439,-5.1828,-5.2486,-5.3443,-5.4132,-5.4461,-5.4491,-5.497,-5.5179,-5.5179,-5.5179,-5.5179,-5.5179,-5.5179,-5.5179,-5.5179,-5.5179,-5.5179,-5.5179,-5.5179,-5.5179,-5.5179,-3.1486,0.0,0.0,-3.1512,0.0,0.0,-3.4349,0.0,0.0,-4.045,-4.235,0.0,-4.7217,-4.8603,-5.015,-5.21,-5.2802,0.0,0.0,0.0,0.0,-5.4072,-5.4162,-5.3862,-5.3084,-5.1768,0.0,-4.9553,0.0,0.0,-4.5185,0.0,0.0,0.0,0.0,-4.329,0.0,-4.4347,-4.6112,-4.8386,-4.9703,0.0,0.0,-5.3264,-5.3862,-5.4311,-5.497,-5.5179,-5.5179,-5.5179,-5.5388,-5.5628,-5.5628,-5.5807,-5.6017,-5.6017,-5.6017,-5.5927,-5.5568,-5.5269,-5.488,-5.4132,-5.3713,-5.3324,-5.2665,-5.2516,-5.2336,0.0,0.0,0.0,0.0,0.0,0.0,-4.5454,-4.4616,-4.4197,0.0,0.0,0.0,0.0,0.0,0.0,0.0,0.0,0.0,0.0,0.0,0.0,0.0,0.0,0.0,-4.686,-4.8087,-4.9105,-4.9912,-5.078,-5.1588,-5.2336,-5.2995,-5.3653,-5.4221,-5.4581,-5.491,-5.5179,-5.5179,-5.5179,-5.5179,-5.5179,-5.5179,-5.5179,-5.5179,-5.5179,-5.5179,-5.5179,-5.5179,-5.5179,0.0,0.0,0.0,0.0,0.0,0.0,0.0,-3.7364,0.0,-4.1961,0.0,-4.5518,-4.6986,-4.9375,-5.103,-5.1504,0.0,-5.3713,-5.4311,-5.4341,-5.4581,-5.5149,-5.464,-5.4341,-5.4341,-5.3114,0.0,0.0,0.0,0.0,-4.6369,0.0,0.0,0.0,0.0,0.0,0.0,-4.4855,-4.6591,0.0,-4.9853,-5.1199,-5.2606,-5.3773,-5.4251,-5.4431,-5.5089,-5.5329,-5.5329,-5.5329,-5.5748,-5.6338,-5.6338,-5.6645,-5.7094,-5.7094,-5.7094,-5.7094,-5.7094,-5.6705,-5.6338,-5.6338,-5.5867,-5.5299,-5.473,-5.4581,-5.4371,-5.3593,-5.2546,-5.1498,0.0,0.0,0.0,-4.677,0.0,0.0,0.0,0.0,0.0,0.0,0.0,0.0,0.0,0.0,0.0,0.0,0.0,0.0,0.0,0.0,0.0,0.0,-4.8027,0.0,-4.8297,0.0,-5.102,-5.1109,-5.1768,-5.2785,-5.4072,-5.4162,-5.4581,-5.5179,-5.5179,-5.5179,-5.5179,-5.5179,-5.5179,-5.5179,-5.5179,-5.5179,-5.5179,-5.5179,-5.5179,-5.5179,0.0,0.0,0.0,0.0,0.0,-3.681,-3.927,-3.9898,-4.0752,-4.2585,-4.3916,0.0,-4.9036,-4.9798,-5.1279,-5.4205,-5.4669,0.0,0.0,0.0,0.0,-5.5179,-5.5089,-5.5029,-5.5029,-5.4251,-5.3264,0.0,-5.0601,-4.8955,-4.71,0.0,0.0,0.0,0.0,0.0,-4.4227,-4.5574,0.0,-4.9269,-5.0511,-5.2187,-5.3892,-5.4132,-5.4551,-5.5089,-5.5777,-5.5987,-5.5987,-5.5987,-5.6406,-5.6944,-5.6944,-5.7004,-5.7094,-5.7094,-5.7094,-5.7094,-5.7094,-5.7004,-5.6944,-5.6944,-5.6855,-5.6735,-5.6615,-5.6585,-5.6256,-5.5089,-5.464,-5.3952,-5.2187,0.0,0.0,0.0,0.0,0.0,0.0,0.0,0.0,0.0,0.0,0.0,0.0,0.0,0.0,0.0,0.0,0.0,0.0,0.0,0.0,0.0,0.0,0.0,0.0,0.0,0.0,-5.0375,-5.1079,-5.2097,-5.3384,-5.3952,-5.4581,-5.5179,-5.5179,-5.5179,-5.5179,-5.5179,-5.5179,-5.5179,-5.5179,-5.5179,-5.5179,-5.5179,-5.5179,-5.5179,0.0,0.0,0.0,0.0,0.0,0.0,0.0,-4.2082,0.0,-4.4141,-4.4744,-4.5832,-4.7827,-4.8709,-5.0188,-5.264,-5.3623,-5.4355,-5.5128,-5.5179,-5.5179,-5.5179,-5.5179,0.0,-5.5179,-5.488,-5.4221,-5.3234,-5.1558,-4.9912,-4.8297,0.0,0.0,0.0,0.0,-4.4736,0.0,0.0,0.0,-4.9912,-5.1558,-5.3025,-5.4251,-5.4581,-5.491,-5.5269,-5.5927,-5.6376,-5.6645,-5.6645,-5.7094,-5.7633,-5.7633,-5.7872,-5.8141,-5.8141,-5.8141,-5.8141,-5.8141,-5.8141,-5.8141,-5.8141,-5.8141,-5.8052,-5.7693,-5.7633,-5.7363,-5.6376,-5.5658,-5.467,-5.3025,-5.1648,0.0,0.0,0.0,0.0,0.0,0.0,0.0,0.0,0.0,0.0,0.0,0.0,0.0,0.0,0.0,0.0,0.0,0.0,0.0,0.0,0.0,0.0,0.0,0.0,0.0,-5.0196,-5.09,-5.1917,-5.3204,-5.3892,-5.4581,-5.5179,-5.5179,-5.5179,-5.5179,-5.5179,-5.5179,-5.5179,-5.5179,-5.5179,-5.5179,-5.5179,-5.5179,-5.5179,0.0,-3.6558,0.0,0.0,-3.9471,0.0,0.0,-4.389,-4.497,-4.5422,-4.5598,-4.5943,-4.6704,-4.7802,-4.9251,-5.1044,-5.2295,-5.3623,-5.5078,-5.5179,-5.5179,-5.5179,-5.5179,-5.5179,-5.5179,-5.5179,-5.488,0.0,-5.2336,-5.075,0.0,0.0,0.0,0.0,0.0,0.0,0.0,0.0,-4.9553,-5.102,-5.2725,-5.3803,-5.4491,-5.4999,-5.5179,-5.5299,-5.6077,-5.6675,-5.7124,-5.7423,-5.7872,-5.8321,-5.8321,-5.868,-5.9099,-5.9099,-5.9099,-5.9099,-5.9099,-5.9099,-5.9099,-5.9099,-5.9099,-5.8979,-5.8441,-5.8321,-5.8141,-5.7453,-5.6286,-5.5089,-5.4012,-5.3174,0.0,0.0,0.0,0.0,0.0,0.0,0.0,0.0,0.0,0.0,0.0,0.0,0.0,0.0,0.0,-4.329,-4.329,-4.3958,0.0,0.0,0.0,-4.7549,-4.8087,0.0,-4.9793,0.0,-5.1109,-5.2127,-5.3414,-5.3952,-5.4581,-5.5179,-5.5179,-5.5179,-5.5179,-5.5179,-5.5179,-5.5179,-5.5179,-5.5179,-5.5179,-5.5179,-5.5179,-5.5179,0.0,0.0,0.0,0.0,0.0,0.0,0.0,-4.497,-4.5422,-4.5472,-4.5924,-4.6764,-4.8126,-4.8416,-4.9648,-5.2509,-5.291,-5.3623,-5.5078,-5.5179,-5.5179,-5.5179,-5.5179,-5.5179,-5.5179,-5.5179,-5.488,0.0,0.0,-5.1439,0.0,0.0,0.0,0.0,0.0,0.0,0.0,-4.9763,-5.1139,-5.2965,-5.3773,-5.4521,-5.5089,-5.5179,-5.5179,-5.5359,-5.6585,-5.7034,-5.7274,-5.8501,-5.8949,-5.9009,-5.9009,-5.9069,-5.9099,-5.9099,-5.9099,-5.9099,-5.9099,-5.9099,-5.9099,-5.9099,-5.9099,-5.9099,-5.9039,-5.9009,-5.883,-5.8171,-5.6974,-5.6098,-5.5927,-5.485,-5.3593,0.0,0.0,0.0,0.0,0.0,0.0,0.0,0.0,0.0,0.0,0.0,0.0,0.0,0.0,-4.329,-4.329,-4.3958,-4.4347,-4.4407,0.0,-4.7339,-4.7399,-4.9179,0.0,-5.1139,-5.1798,-5.2815,-5.4132,-5.4192,-5.4581,-5.5179,-5.5179,-5.5179,-5.5179,-5.5179,-5.5179,-5.5179,-5.5179,-5.5179,-5.5179,-5.5179,-5.5179,-5.5179,0.0,0.0,0.0,0.0,0.0,0.0,0.0,-4.5623,-4.5974,-4.5974,-4.6175,-4.6541,-4.7146,-4.7205,-4.8035,-5.0128,-5.0296,-5.1291,-5.3727,-5.386,-5.4252,-5.5128,-5.5179,-5.5179,-5.5179,-5.5179,-5.5059,0.0,0.0,0.0,0.0,0.0,0.0,0.0,0.0,-5.0152,-5.1079,-5.1738,-5.2695,-5.3862,-5.4521,-5.497,-5.5179,-5.5179,-5.5179,-5.5359,-5.6645,-5.7094,-5.7304,-5.865,-5.9099,-5.9099,-5.9099,-5.9099,-5.9099,-5.9099,-5.9099,-5.9099,-5.9099,-5.9099,-5.9099,-5.9099,-5.9099,-5.9099,-5.9099,-5.9099,-5.9039,-5.877,-5.7992,-5.7094,-5.6316,-5.5748,-5.494,0.0,0.0,0.0,0.0,0.0,0.0,0.0,0.0,0.0,0.0,0.0,0.0,0.0,0.0,0.0,-4.329,-4.3529,-4.3858,-4.4317,0.0,-4.6681,-4.7878,-4.9464,-5.0734,-5.1828,-5.2905,-5.3683,-5.4221,-5.461,-5.494,-5.5179,-5.5179,-5.5179,-5.5179,-5.5179,-5.5179,-5.5179,-5.5179,-5.5179,-5.5179,-5.5179,-5.5179,-5.5179,-4.3539,0.0,-4.3639,0.0,-4.4618,-4.507,-4.5648,-4.6075,-4.6301,-4.6301,-4.6301,-4.6301,-4.6301,-4.6301,-4.6874,-4.8358,-4.8474,-4.9761,-5.2804,-5.3016,-5.3675,-5.5128,-5.5179,0.0,-5.5179,-5.5179,-5.5179,-5.5179,-5.3593,0.0,0.0,0.0,0.0,0.0,-5.1409,-5.2157,-5.2815,-5.3294,-5.3862,-5.4551,-5.4999,-5.5179,-5.5179,-5.5179,-5.5179,-5.5359,-5.6645,-5.7094,-5.7304,-5.865,-5.9099,-5.9099,-5.9099,-5.9099,-5.9099,-5.9099,-5.9099,-5.9099,-5.9099,-5.9099,-5.9099,-5.9099,-5.9099,-5.9099,-5.9099,-5.9099,-5.9099,-5.9099,-5.859,-5.7842,-5.6915,-5.6436,-5.5807,-5.467,0.0,0.0,0.0,0.0,0.0,0.0,-4.9793,-4.888,-4.7698,0.0,0.0,0.0,0.0,0.0,-4.3319,-4.329,0.0,0.0,0.0,0.0,0.0,-4.9194,-5.072,-5.2217,-5.3563,-5.4311,-5.4521,-5.497,-5.5179,-5.5179,-5.5179,-5.5179,-5.5179,-5.5179,-5.5179,-5.5179,-5.5179,-5.5179,-5.5179,-5.5179,-5.5179,-5.5179,-4.4593,-4.4593,-4.4794,-4.5372,-4.5472,-4.5673,-4.6225,-4.6301,-4.6301,-4.6301,-4.6301,-4.6301,-4.6301,-4.6301,-4.6874,-4.8358,-4.8474,-4.9761,-5.2804,-5.3016,-5.3675,0.0,0.0,-5.5179,-5.5179,-5.5179,-5.5179,-5.5179,0.0,0.0,-5.2187,0.0,-5.1199,-5.1259,-5.2576,-5.3533,-5.4192,-5.4192,-5.4581,-5.5179,-5.5179,-5.5179,-5.5179,-5.5179,-5.5179,-5.5359,-5.6645,-5.7094,-5.7304,-5.865,-5.9099,-5.9099,-5.9099,-5.9099,-5.9099,-5.9099,-5.9099,-5.9099,-5.9099,-5.9099,-5.9099,-5.9099,-5.9099,-5.9099,-5.9099,-5.9099,-5.9099,-5.9099,-5.859,-5.8112,-5.8112,-5.7034,-5.6008,-5.5299,0.0,0.0,0.0,0.0,0.0,0.0,-5.0062,-4.906,-4.8327,0.0,0.0,0.0,0.0,0.0,0.0,0.0,0.0,-4.329,-4.3947,0.0,-4.6279,-4.8297,-5.0272,-5.2217,-5.3563,-5.4551,-5.5179,-5.5179,-5.5179,-5.5179,-5.5179,-5.5179,-5.5179,-5.5179,-5.5179,-5.5179,-5.5179,-5.5179,-5.5179,-5.5179,-5.5179,-5.5179,-4.5773,-4.5773,-4.5824,-4.6024,-4.605,-4.61,-4.6276,-4.6301,-4.6301,-4.6301,-4.6301,-4.6301,-4.6301,-4.6301,-4.6481,0.0,-4.6968,-4.7802,0.0,-4.993,-5.1071,-5.3571,-5.2669,-5.3121,-5.5128,-5.42,-5.42,-5.5179,0.0,0.0,0.0,-5.3144,-5.3264,-5.3294,-5.4162,-5.467,-5.488,-5.488,-5.4999,-5.5179,-5.5179,-5.5179,-5.5179,-5.5179,-5.5179,-5.5359,-5.6645,-5.7094,-5.7304,-5.865,-5.9099,-5.9099,-5.9099,-5.9099,-5.9099,-5.9099,-5.9099,-5.9099,-5.9099,-5.9099,-5.9099,-5.9099,-5.9099,-5.9099,-5.9099,-5.9099,-5.9099,-5.9099,-5.8949,-5.865,-5.8201,-5.7393,-5.6585,-5.5957,-5.5299,0.0,0.0,0.0,0.0,0.0,-4.9015,-4.7848,0.0,-4.683,0.0,0.0,0.0,0.0,0.0,0.0,0.0,0.0,-4.5334,0.0,-4.7638,-4.9164,-5.093,-5.2875,-5.3773,-5.4551,-5.5179,-5.5179,-5.5179,-5.5179,-5.5179,-5.5179,-5.5179,-5.5179,-5.5179,-5.5179,-5.5179,-5.5179,-5.5179,-5.5179,-5.5179,-5.5179,-4.6301,-4.6301,-4.6301,-4.6301,-4.6301,-4.6301,-4.6301,-4.6301,-4.6301,-4.6301,-4.6301,-4.6301,-4.6301,-4.6301,0.0,-4.6301,-4.6301,-4.6934,-4.8416,-4.8474,-4.9592,-5.1997,-5.1208,-5.1889,-5.4304,0.0,0.0,-5.5179,-5.4521,-5.3982,-5.3563,-5.4012,-5.4221,-5.4251,-5.491,-5.5179,-5.5179,-5.5179,-5.5179,-5.5179,-5.5179,-5.5179,-5.5179,-5.5179,-5.5179,-5.5359,-5.6645,-5.7094,-5.7304,-5.865,-5.9099,-5.9099,-5.9099,-5.9099,-5.9099,-5.9099,-5.9099,-5.9099,-5.9099,-5.9099,-5.9099,-5.9099,-5.9099,-5.9099,-5.9099,-5.9099,-5.9099,-5.9099,-5.9099,-5.8979,-5.856,-5.7723,-5.6974,-5.6585,-5.5777,-5.497,-5.4311,0.0,0.0,0.0,0.0,0.0,0.0,-4.7983,0.0,0.0,0.0,0.0,0.0,0.0,0.0,-4.6052,-4.6471,0.0,-4.8267,-4.9583,-5.1063,-5.2815,-5.4012,-5.479,-5.5179,-5.5179,-5.5179,-5.5179,-5.5179,-5.5179,-5.5179,-5.5179,-5.5179,-5.5179,-5.5179,-5.5179,-5.5179,-5.5179,-5.5179,-5.5179,-4.6301,-4.6301,0.0,0.0,-4.6301,0.0,-4.6301,-4.6301,-4.6301,-4.6301,-4.6301,-4.6301,-4.6301,-4.6301,-4.6301,-4.6301,0.0,0.0,0.0,-4.8358,-4.9022,-5.0491,-5.0435,-5.1208,-5.2963,-5.291,-5.3623,-5.5179,-5.4581,-5.4281,-5.4281,-5.4281,-5.4281,-5.4311,-5.491,-5.5179,-5.5179,-5.5179,-5.5179,-5.5179,-5.5179,-5.5179,-5.5179,-5.5179,-5.5179,-5.5359,-5.6585,-5.7064,-5.7304,-5.859,-5.9069,-5.9099,-5.9099,-5.9099,-5.9099,-5.9099,-5.9099,-5.9099,-5.9099,-5.9099,-5.9099,-5.9099,-5.9099,-5.9099,-5.9099,-5.9099,-5.9099,-5.9099,-5.9099,-5.9099,-5.9099,-5.7992,-5.7094,-5.7094,-5.6017,-5.497,-5.4311,0.0,0.0,0.0,0.0,0.0,0.0,-5.0315,-5.0614,0.0,0.0,0.0,0.0,0.0,-4.7668,-4.7578,-4.7578,-4.7878,-4.8536,-4.9763,-5.0973,-5.2366,-5.4281,-5.5179,-5.5179,-5.5179,-5.5179,-5.5179,-5.5179,-5.5179,-5.5179,-5.5179,-5.5179,-5.5179,-5.5179,-5.5179,-5.5179,-5.5179,-5.5179,-5.5179,0.0,0.0,-4.6301,-4.6301,-4.6301,-4.6301,-4.6301,-4.6301,-4.6301,-4.6301,-4.6301,-4.6301,-4.6301,-4.6301,-4.6301,-4.6301,-4.6301,-4.6481,-4.6815,-4.6815,-4.7475,-4.8965,-4.7977,-4.9137,-5.291,-5.1835,-5.2562,-5.5179,-5.5029,-5.497,-5.497,-5.497,-5.497,-5.497,-5.5119,-5.5179,-5.5179,-5.5179,-5.5179,-5.5179,-5.5179,-5.5179,-5.5179,-5.5179,-5.5179,-5.5299,-5.6107,-5.6705,-5.7214,-5.8082,-5.868,-5.9099,-5.9099,-5.9099,-5.9099,-5.9099,-5.9099,-5.9099,-5.9099,-5.9099,-5.9099,-5.9099,-5.9099,-5.9099,-5.9099,-5.9099,-5.9099,-5.9099,-5.9099,-5.9099,-5.9099,-5.7992,-5.7094,-5.7094,-5.6017,-5.497,-5.4311,-5.3174,0.0,0.0,-5.0584,-5.0375,-5.0883,-5.1439,-5.2007,0.0,0.0,0.0,0.0,-5.2127,-5.1319,-5.0331,-5.0301,-5.0601,-5.1259,-5.1588,-5.2396,-5.3743,-5.473,-5.5179,-5.5179,-5.5179,-5.5179,-5.5179,-5.5179,-5.5179,-5.5179,-5.5179,-5.5179,-5.5179,-5.5179,-5.5179,-5.5179,-5.5179,-5.5179,-5.5179,-4.6301,-4.6301,-4.6301,-4.6301,-4.6301,-4.6301,-4.6301,-4.6301,-4.6301,-4.6301,-4.6301,-4.6301,-4.6301,-4.6301,-4.6301,-4.6301,-4.6301,-4.6301,-4.6301,-4.6301,-4.6636,-4.7475,-4.6755,-4.7769,-5.0851,-5.0768,-5.2159,-5.5179,-5.5179,-5.5179,-5.5179,-5.5179,-5.5179,-5.5179,-5.5179,-5.5179,-5.5179,-5.5179,-5.5179,-5.5179,-5.5179,-5.5179,-5.5179,-5.5179,-5.5179,-5.5269,-5.5927,-5.6376,-5.6825,-5.7782,-5.8351,-5.871,-5.9009,-5.9099,-5.9099,-5.9099,-5.9099,-5.9099,-5.9099,-5.9099,-5.9099,-5.9099,-5.9099,-5.9099,-5.9099,-5.9099,-5.9099,-5.9099,-5.9099,-5.9099,-5.9099,-5.7992,-5.7094,-5.7094,-5.6017,-5.497,-5.4311,-5.3593,0.0,-5.2187,-5.1798,-5.1858,-5.2516,-5.2905,-5.3384,-5.4042,0.0,0.0,-5.4102,-5.4102,-5.3503,-5.2157,-5.2127,-5.2276,-5.2636,-5.2965,-5.3623,-5.467,-5.5029,-5.5179,-5.5179,-5.5179,-5.5179,-5.5179,-5.5179,-5.5179,-5.5179,-5.5179,-5.5179,-5.5179,-5.5179,-5.5179,-5.5179,-5.5179,-5.5179,-5.5179,-4.6301,-4.6301,-4.6301,-4.6301,-4.6301,-4.6301,-4.6301,-4.6301,-4.6301,-4.6301,-4.6301,-4.6301,-4.6301,-4.6301,-4.6301,-4.6301,-4.6301,-4.6301,-4.6301,-4.6301,-4.6301,-4.6301,-4.6301,-4.6968,-4.8474,-5.0157,-5.2427,-5.5179,-5.5179,-5.5179,-5.5179,-5.5179,-5.5179,-5.5179,-5.5179,-5.5179,-5.5179,-5.5179,-5.5179,-5.5179,-5.5179,-5.5179,-5.5179,-5.5179,-5.5179,-5.5269,-5.5837,-5.6077,-5.6346,-5.7453,-5.7902,-5.8082,-5.874,-5.8949,-5.8979,-5.9069,-5.9099,-5.9099,-5.9099,-5.9099,-5.9099,-5.9099,-5.9099,-5.9099,-5.9099,-5.9099,-5.9099,-5.9099,-5.9099,-5.9099,-5.9099,-5.7992,-5.7094,-5.7094,-5.6017,-5.4999,-5.4431,0.0,-5.3982,-5.3414,-5.3324,-5.3563,-5.4162,-5.4311,-5.4581,-5.5149,-5.5179,-5.5179,0.0,-5.5179,-5.467,-5.3533,-5.3473,-5.3473,-5.3473,-5.4072,-5.464,-5.5179,-5.5179,-5.5179,-5.5179,-5.5179,-5.5179,-5.5179,-5.5179,-5.5179,-5.5179,-5.5179,-5.5179,-5.5179,-5.5179,-5.5179,-5.5179,-5.5179,-5.5179,-5.5179,-4.6301,-4.6301,-4.6301,-4.6301,-4.6301,-4.6301,-4.6301,-4.6301,-4.6301,-4.6301,-4.6301,-4.6301,-4.6301,-4.6301,-4.6301,-4.6301,-4.6301,-4.6301,-4.6301,-4.6301,-4.6301,-4.6301,-4.6301,-4.6968,-4.8474,-5.1236,-5.3466,-5.5179,-5.5179,-5.5179,-5.5179,-5.5179,-5.5179,-5.5179,-5.5179,-5.5179,-5.5179,-5.5179,-5.5179,-5.5179,-5.5179,-5.5179,-5.5179,-5.5179,-5.5179,-5.5209,-5.5299,-5.5718,-5.6248,-5.6406,-5.6825,-5.7363,-5.8052,-5.8291,-5.8381,-5.8949,-5.9099,-5.9099,-5.9099,-5.9099,-5.9099,-5.9099,-5.9099,-5.9099,-5.9099,-5.9099,-5.9099,-5.9099,-5.9099,-5.9099,-5.9099,-5.7992,-5.7094,-5.7094,-5.6017,-5.5149,-5.5059,0.0,-5.4162,-5.4072,-5.4042,-5.4102,-5.4192,-5.47,-5.5089,-5.5179,-5.5179,-5.5179,-5.5179,-5.5179,-5.5089,-5.488,-5.488,-5.488,-5.488,-5.497,-5.5089,-5.5179,-5.5179,-5.5179,-5.5179,-5.5179,-5.5179,-5.5179,-5.5179,-5.5179,-5.5179,-5.5179,-5.5179,-5.5179,-5.5179,-5.5179,-5.5179,-5.5179,-5.5179,-5.5179,-4.6301,-4.6301,-4.6301,-4.6301,-4.6301,-4.6301,-4.6301,-4.6301,-4.6301,-4.6301,-4.6301,-4.6301,-4.6301,-4.6301,-4.6301,-4.6301,-4.6301,-4.6301,-4.6301,-4.6301,-4.6301,-4.6301,-4.6301,-4.6968,-4.8474,-4.9874,-5.1291,-5.2775,-5.3623,-5.4016,-5.4016,-5.4845,-5.5179,-5.5179,-5.5179,-5.5179,-5.5179,-5.5179,-5.5179,-5.5179,-5.5179,-5.5179,-5.5179,-5.5179,-5.5179,-5.5179,-5.5179,-5.5388,-5.5688,-5.6098,-5.6346,-5.6705,-5.7363,-5.7573,-5.7693,-5.8381,-5.883,-5.9099,-5.9099,-5.9099,-5.9099,-5.9099,-5.9099,-5.9099,-5.9099,-5.9099,-5.9099,-5.9099,-5.9099,-5.9009,-5.865,-5.7752,-5.6974,-5.6645,-5.5807,0.0,0.0,-5.494,-5.473,-5.473,-5.473,-5.473,-5.473,-5.4999,-5.5179,-5.5179,-5.5179,-5.5179,-5.5179,-5.5179,-5.5179,-5.5179,-5.5179,-5.5179,-5.5179,-5.5179,-5.5179,-5.5179,-5.5179,-5.5179,-5.5179,-5.5179,-5.5179,-5.5179,-5.5179,-5.5179,-5.5179,-5.5179,-5.5179,-5.5179,-5.5179,-5.5179,-5.5179,-5.5179,-5.5179,-5.5179,-4.6301,-4.6301,-4.6301,-4.6301,-4.6301,-4.6301,-4.6301,-4.6301,-4.6301,-4.6301,-4.6301,-4.6301,-4.6301,-4.6301,-4.6301,-4.6301,-4.6301,-4.6301,-4.6301,-4.6301,-4.6301,-4.6301,-4.6301,-4.6968,-4.8474,-4.8474,-4.9224,-5.0713,-5.2213,-5.2804,-5.2509,-5.4355,-5.5027,-5.4692,-5.5027,-5.5179,-5.5179,-5.5179,-5.5179,-5.5179,-5.5179,-5.5179,-5.5179,-5.5179,-5.5179,-5.5179,-5.5179,-5.5179,-5.5269,-5.5777,-5.6008,-5.6047,-5.6675,-5.6885,-5.7004,-5.7693,-5.8351,-5.8919,-5.9069,-5.9099,-5.9099,-5.9099,-5.9099,-5.9099,-5.9099,-5.9099,-5.9099,-5.9099,-5.8979,-5.871,-5.8201,-5.7453,-5.6735,-5.6308,0.0,0.0,0.0,-5.5179,-5.5179,-5.5179,-5.5179,-5.5179,-5.5179,-5.5179,-5.5179,-5.5179,-5.5179,-5.5179,-5.5179,-5.5179,-5.5179,-5.5179,-5.5179,-5.5179,-5.5179,-5.5179,-5.5179,-5.5179,-5.5179,-5.5179,-5.5179,-5.5179,-5.5179,-5.5179,-5.5179,-5.5179,-5.5179,-5.5179,-5.5179,-5.5179,-5.5179,-5.5179,-5.5179,-5.5179,-5.5179,-5.5179,-4.6301,-4.6301,-4.6301,-4.6301,-4.6301,-4.6301,-4.6301,-4.6301,-4.6301,-4.6301,-4.6301,-4.6301,-4.6301,-4.6301,-4.6301,-4.6301,-4.6301,-4.6301,-4.6301,-4.6301,-4.6301,-4.6301,-4.6301,-4.6968,-4.8474,-4.8474,-4.9224,-5.0713,-5.2213,-5.2295,-5.0933,-5.3831,-5.4458,-5.3256,-5.459,-5.5179,-5.5179,-5.5179,-5.5179,-5.5179,-5.5179,-5.5179,-5.5179,-5.5179,-5.5179,-5.5179,-5.5179,-5.5179,-5.5209,-5.5239,-5.5269,-5.5388,-5.6047,-5.6308,-5.6376,-5.7004,-5.7663,-5.8321,-5.8949,-5.9099,-5.9099,-5.9099,-5.9099,-5.9099,-5.9099,-5.9099,-5.9099,-5.9099,-5.862,-5.8171,-5.8141,-5.7094,-5.6226,-5.6248,0.0,0.0,-5.5179,-5.5179,-5.5179,-5.5179,-5.5179,-5.5179,-5.5179,-5.5179,-5.5179,-5.5179,-5.5179,-5.5179,-5.5179,-5.5179,-5.5179,-5.5179,-5.5179,-5.5179,-5.5179,-5.5179,-5.5179,-5.5179,-5.5179,-5.5179,-5.5179,-5.5179,-5.5179,-5.5179,-5.5179,-5.5179,-5.5179,-5.5179,-5.5179,-5.5179,-5.5179,-5.5179,-5.5179,-5.5179,-5.5179,-5.5179,-4.6301,-4.6301,-4.6301,-4.6301,-4.6301,-4.6301,-4.6301,-4.6301,-4.6301,-4.6301,-4.6301,-4.6301,-4.6301,-4.6301,-4.6301,-4.6301,-4.6301,-4.6301,-4.6301,-4.6301,-4.6301,-4.6301,-4.6301,-4.6541,-4.7146,-4.7146,-4.7416,-4.7951,-5.038,-5.1263,-5.0768,-5.3779,-5.4896,-5.4406,-5.4976,-5.5179,-5.5179,-5.5179,-5.5179,-5.5179,-5.5179,-5.5179,-5.5179,-5.5179,-5.5179,-5.5179,-5.5179,-5.5179,-5.5179,-5.5179,-5.5179,-5.5239,-5.5478,-5.5568,-5.5688,-5.6346,-5.6974,-5.7543,-5.7782,-5.8471,-5.9099,-5.9099,-5.9099,-5.9099,-5.9099,-5.9099,-5.8979,-5.859,-5.8291,-5.7872,-5.7064,-5.6496,-5.6047,-5.5628,0.0,-5.5179,-5.5179,-5.5179,-5.5179,-5.5179,-5.5179,-5.5179,-5.5179,-5.5179,-5.5179,-5.5179,-5.5179,-5.5179,-5.5179,-5.5179,-5.5179,-5.5179,-5.5179,-5.5179,-5.5179,-5.5179,-5.5179,-5.5179,-5.5179,-5.5179,-5.5179,-5.5179,-5.5179,-5.5179,-5.5179,-5.5179,-5.5179,-5.5179,-5.5179,-5.5179,-5.5179,-5.5179,-5.5179,-5.5179,-5.5179,-5.5179,-4.6301,-4.6301,-4.6301,-4.6301,-4.6301,-4.6301,-4.6301,-4.6301,-4.6301,-4.6301,-4.6301,-4.6301,-4.6301,-4.6301,-4.6301,-4.6301,-4.6301,-4.6301,-4.6301,-4.6301,-4.6301,-4.6301,-4.6301,-4.6301,-4.6301,-4.6301,-4.6301,-4.6301,-4.8793,-4.9764,-4.9395,-5.291,-5.4252,-5.3831,-5.4794,-5.5179,-5.5179,-5.5179,-5.5179,-5.5179,-5.5179,-5.5179,-5.5179,-5.5179,-5.5179,-5.5179,-5.5179,-5.5179,-5.5179,-5.5179,-5.5179,-5.5179,-5.5179,-5.5179,-5.5269,-5.5718,-5.6316,-5.6795,-5.6795,-5.7633,-5.8471,-5.8471,-5.8471,-5.8471,-5.8471,-5.8471,-5.8351,-5.7902,-5.7633,-5.7244,-5.6346,-5.6068,-5.5718,-5.5269,-5.5179,-5.5179,-5.5179,-5.5179,-5.5179,-5.5179,-5.5179,-5.5179,-5.5179,-5.5179,-5.5179,-5.5179,-5.5179,-5.5179,-5.5179,-5.5179,-5.5179,-5.5179,-5.5179,-5.5179,-5.5179,-5.5179,-5.5179,-5.5179,-5.5179,-5.5179,-5.5179,-5.5179,-5.5179,-5.5179,-5.5179,-5.5179,-5.5179,-5.5179,-5.5179,-5.5179,-5.5179,-5.5179,-5.5179,-5.5179,-5.5179,-5.5179,-4.6301,-4.6301,-4.6301,-4.6301,-4.6301,-4.6301,-4.6301,-4.6301,-4.6301,-4.6301,-4.6301,-4.6301,-4.6301,-4.6301,-4.6301,-4.6301,-4.6301,-4.6301,-4.6301,-4.6301,-4.6301,-4.6301,-4.6301,-4.6301,-4.6301,-4.6301,-4.6301,-4.6301,-4.7743,-4.7769,-4.6421,-5.0906,-5.2159,-5.0878,-5.3831,-5.5179,-5.5179,-5.5179,-5.5179,-5.5179,-5.5179,-5.5179,-5.5179,-5.5179,-5.5179,-5.5179,-5.5179,-5.5179,-5.5179,-5.5179,-5.5179,-5.5179,-5.5179,-5.5179,-5.5179,-5.5179,-5.5658,-5.6218,-5.6218,-5.6615,-5.7094,-5.7094,-5.7094,-5.7094,-5.7094,-5.7094,-5.7094,-5.7094,-5.6585,-5.6218,-5.6218,-5.5628,-5.5179,-5.5179,-5.5179,-5.5179,-5.5179,-5.5179,-5.5179,-5.5179,-5.5179,-5.5179,-5.5179,-5.5179,-5.5179,-5.5179,-5.5179,-5.5179,-5.5179,-5.5179,-5.5179,-5.5179,-5.5179,-5.5179,-5.5179,-5.5179,-5.5179,-5.5179,-5.5179,-5.5179,-5.5179,-5.5179,-5.5179,-5.5179,-5.5179,-5.5179,-5.5179,-5.5179,-5.5179,-5.5179,-5.5179,-5.5179,-5.5179,-5.5179,-5.5179,-5.5179,-4.6301,-4.6301,-4.6301,-4.6301,-4.6301,-4.6301,-4.6301,-4.6301,-4.6301,-4.6301,-4.6301,-4.6301,-4.6301,-4.6301,-4.6301,-4.6301,-4.6301,-4.6301,-4.6301,-4.6301,-4.6301,-4.6301,-4.6301,-4.6301,-4.6301,-4.6301,-4.6301,-4.6301,-4.7743,-4.8268,-4.7919,-5.0296,-5.1727,-5.2348,-5.3227,-5.4252,-5.5179,-5.5179,-5.5179,-5.5179,-5.5179,-5.5179,-5.5179,-5.5179,-5.5179,-5.5179,-5.5179,-5.5179,-5.5179,-5.5179,-5.5179,-5.5179,-5.5179,-5.5179,-5.5179,-5.5179,-5.5329,-5.5478,-5.5478,-5.5628,-5.5987,-5.6885,-5.7094,-5.7094,-5.7094,-5.7094,-5.6974,-5.6526,-5.6368,-5.6047,-5.5568,-5.5329,-5.5179,-5.5179,-5.5179,-5.5179,-5.5179,-5.5179,-5.5179,-5.5179,-5.5179,-5.5179,-5.5179,-5.5179,-5.5179,-5.5179,-5.5179,-5.5179,-5.5179,-5.5179,-5.5179,-5.5179,-5.5179,-5.5179,-5.5179,-5.5179,-5.5179,-5.5179,-5.5179,-5.5179,-5.5179,-5.5179,-5.5179,-5.5179,-5.5179,-5.5179,-5.5179,-5.5179,-5.5179,-5.5179,-5.5179,-5.5179,-5.5179,-5.5179,-5.5179,-5.5179,-4.6301,-4.6301,-4.6301,-4.6301,-4.6301,-4.6301,-4.6301,-4.6301,-4.6301,-4.6301,-4.6301,-4.6301,-4.6301,-4.6301,-4.6301,-4.6301,-4.6301,-4.6301,-4.6301,-4.6301,-4.6301,-4.6301,-4.6301,-4.6301,-4.6301,-4.6301,-4.6301,-4.6301,-4.7205,-4.7652,-4.7652,-4.9137,-5.0351,-5.1236,-5.2455,-5.3518,-5.4355,-5.4976,-5.5179,-5.5179,-5.5179,-5.5179,-5.5179,-5.5179,-5.5179,-5.5179,-5.5179,-5.5179,-5.5179,-5.5179,-5.5179,-5.5179,-5.5179,-5.5179,-5.5179,-5.5179,-5.5179,-5.5179,-5.5179,-5.5179,-5.5388,-5.6166,-5.6346,-5.6346,-5.6346,-5.6346,-5.6226,-5.5867,-5.5777,-5.5658,-5.5269,-5.5179,-5.5179,-5.5179,-5.5179,-5.5179,-5.5179,-5.5179,-5.5179,-5.5179,-5.5179,-5.5179,-5.5179,-5.5179,-5.5179,-5.5179,-5.5179,-5.5179,-5.5179,-5.5179,-5.5179,-5.5179,-5.5179,-5.5179,-5.5179,-5.5179,-5.5179,-5.5179,-5.5179,-5.5179,-5.5179,-5.5179,-5.5179,-5.5179,-5.5179,-5.5179,-5.5179,-5.5179,-5.5179,-5.5179,-5.5179,-5.5179,-5.5179,-5.5179,-5.5179,-5.5179,-4.6301,-4.6301,-4.6301,-4.6301,-4.6301,-4.6301,-4.6301,-4.6301,-4.6301,-4.6301,-4.6301,-4.6301,-4.6301,-4.6301,-4.6301,-4.6301,-4.6301,-4.6301,-4.6301,-4.6301,-4.6301,-4.6301,-4.6301,-4.6301,-4.6301,-4.6301,-4.6301,-4.6301,-4.6301,-4.6301,-4.6301,-4.7652,-4.8358,-4.8647,-5.1345,-5.2697,-5.291,-5.4355,-5.5027,-5.5027,-5.5128,-5.5179,-5.5179,-5.5179,-5.5179,-5.5179,-5.5179,-5.5179,-5.5179,-5.5179,-5.5179,-5.5179,-5.5179,-5.5179,-5.5179,-5.5179,-5.5179,-5.5179,-5.5179,-5.5179,-5.5179,-5.5179,-5.5179,-5.5179,-5.5179,-5.5179,-5.5179,-5.5179,-5.5179,-5.5179,-5.5179,-5.5179,-5.5179,-5.5179,-5.5179,-5.5179,-5.5179,-5.5179,-5.5179,-5.5179,-5.5179,-5.5179,-5.5179,-5.5179,-5.5179,-5.5179,-5.5179,-5.5179,-5.5179,-5.5179,-5.5179,-5.5179,-5.5179,-5.5179,-5.5179,-5.5179,-5.5179,-5.5179,-5.5179,-5.5179,-5.5179,-5.5179,-5.5179,-5.5179,-5.5179,-5.5179,-5.5179,-5.5179,-5.5179,-5.5179,-5.5179,-5.5179,-5.5179,-5.5179,-5.5179,-5.5179,-4.6301,-4.6301,-4.6301,-4.6301,-4.6301,-4.6301,-4.6301,-4.6301,-4.6301,-4.6301,-4.6301,-4.6301,-4.6301,-4.6301,-4.6301,-4.6301,-4.6301,-4.6301,-4.6301,-4.6301,-4.6301,-4.6301,-4.6301,-4.6301,-4.6301,-4.6301,-4.6301,-4.6301,-4.6301,-4.6301,-4.6301,-4.6636,-4.7357,-4.8532,-4.9194,-5.0128,-5.1318,-5.2857,-5.3466,-5.3571,-5.4743,-5.5179,-5.5179,-5.5179,-5.5179,-5.5179,-5.5179,-5.5179,-5.5179,-5.5179,-5.5179,-5.5179,-5.5179,-5.5179,-5.5179,-5.5179,-5.5179,-5.5179,-5.5179,-5.5179,-5.5179,-5.5179,-5.5179,-5.5179,-5.5179,-5.5179,-5.5179,-5.5179,-5.5179,-5.5179,-5.5179,-5.5179,-5.5179,-5.5179,-5.5179,-5.5179,-5.5179,-5.5179,-5.5179,-5.5179,-5.5179,-5.5179,-5.5179,-5.5179,-5.5179,-5.5179,-5.5179,-5.5179,-5.5179,-5.5179,-5.5179,-5.5179,-5.5179,-5.5179,-5.5179,-5.5179,-5.5179,-5.5179,-5.5179,-5.5179,-5.5179,-5.5179,-5.5179,-5.5179,-5.5179,-5.5179,-5.5179,-5.5179,-5.5179,-5.5179,-5.5179,-5.5179,-5.5179,-5.5179,-5.5179,-5.5179,-4.6301,-4.6301,-4.6301,-4.6301,-4.6301,-4.6301,-4.6301,-4.6301,-4.6301,-4.6301,-4.6301,-4.6301,-4.6301,-4.6301,-4.6301,-4.6301,-4.6301,-4.6301,-4.6301,-4.6301,-4.6301,-4.6301,-4.6301,-4.6301,-4.6301,-4.6301,-4.6301,-4.6301,-4.6301,-4.6301,-4.6301,-4.6301,-4.6695,-4.7475,-4.821,-4.8908,-4.9734,-5.1291,-5.2348,-5.3069,-5.386,-5.459,-5.5179,-5.5179,-5.5179,-5.5179,-5.5179,-5.5179,-5.5179,-5.5179,-5.5179,-5.5179,-5.5179,-5.5179,-5.5179,-5.5179,-5.5179,-5.5179,-5.5179,-5.5179,-5.5179,-5.5179,-5.5179,-5.5179,-5.5179,-5.5179,-5.5179,-5.5179,-5.5179,-5.5179,-5.5179,-5.5179,-5.5179,-5.5179,-5.5179,-5.5179,-5.5179,-5.5179,-5.5179,-5.5179,-5.5179,-5.5179,-5.5179,-5.5179,-5.5179,-5.5179,-5.5179,-5.5179,-5.5179,-5.5179,-5.5179,-5.5179,-5.5179,-5.5179,-5.5179,-5.5179,-5.5179,-5.5179,-5.5179,-5.5179,-5.5179,-5.5179,-5.5179,-5.5179,-5.5179,-5.5179,-5.5179,-5.5179,-5.5179,-5.5179,-5.5179,-5.5179,-5.5179,-5.5179,-5.5179,-5.5179,-4.624,-4.6301,-4.6301,-4.6301,-4.6301,-4.6301,-4.6301,-4.6301,-4.6301,-4.6301,-4.6301,-4.6301,-4.6301,-4.6301,-4.6301,-4.6301,-4.6301,-4.6301,-4.6301,-4.6301,-4.6301,-4.6301,-4.6301,-4.6301,-4.6301,-4.6301,-4.6301,-4.6301,-4.6301,-4.6301,-4.6301,-4.6301,-4.6301,-4.6361,-4.7593,-4.8152,-4.821,-4.9734,-5.1044,-5.2295,-5.2804,-5.3756,-5.4845,-5.5078,-5.5179,-5.5179,-5.5179,-5.5179,-5.5179,-5.5179,-5.5179,-5.5179,-5.5179,-5.5179,-5.5179,-5.5179,-5.5179,-5.5179,-5.5179,-5.5179,-5.5179,-5.5179,-5.5179,-5.5179,-5.5179,-5.5179,-5.5179,-5.5179,-5.5179,-5.5179,-5.5179,-5.5179,-5.5179,-5.5179,-5.5179,-5.5179,-5.5179,-5.5179,-5.5179,-5.5179,-5.5179,-5.5179,-5.5179,-5.5179,-5.5179,-5.5179,-5.5179,-5.5179,-5.5179,-5.5179,-5.5179,-5.5179,-5.5179,-5.5179,-5.5179,-5.5179,-5.5179,-5.5179,-5.5179,-5.5179,-5.5179,-5.5179,-5.5179,-5.5179,-5.5179,-5.5179,-5.5179,-5.5179,-5.5179,-5.5179,-5.5179,-5.5179,-5.5179,-5.5179,-5.5179,-5.5179,-4.5974,-4.6301,-4.6301,-4.6301,-4.6301,-4.6301,-4.6301,-4.6301,-4.6301,-4.6301,-4.6301,-4.6301,-4.6301,-4.6301,-4.6301,-4.6301,-4.6301,-4.6301,-4.6301,-4.6301,-4.6301,-4.6301,-4.6301,-4.6301,-4.6301,-4.6301,-4.6301,-4.6301,-4.6301,-4.6301,-4.6301,-4.6301,-4.6301,-4.6301,-4.6541,-4.6576,-4.6695,-4.821,-4.8908,-4.9365,-5.1972,-5.3121,-5.3466,-5.4692,-5.5179,-5.5179,-5.5179,-5.5179,-5.5179,-5.5179,-5.5179,-5.5179,-5.5179,-5.5179,-5.5179,-5.5179,-5.5179,-5.5179,-5.5179,-5.5179,-5.5179,-5.5179,-5.5179,-5.5179,-5.5179,-5.5179,-5.5179,-5.5179,-5.5179,-5.5179,-5.5179,-5.5179,-5.5179,-5.5179,-5.5179,-5.5179,-5.5179,-5.5179,-5.5179,-5.5179,-5.5179,-5.5179,-5.5179,-5.5179,-5.5179,-5.5179,-5.5179,-5.5179,-5.5179,-5.5179,-5.5179,-5.5179,-5.5179,-5.5179,-5.5179,-5.5179,-5.5179,-5.5179,-5.5179,-5.5179,-5.5179,-5.5179,-5.5179,-5.5179,-5.5179,-5.5179,-5.5179,-5.5179,-5.5179,-5.5179,-5.5179,-5.5179,-5.5179,-5.5179,-5.5179,-5.5179,-4.4706,-4.5671,-4.6301,-4.6301,-4.6301,-4.6301,-4.6301,-4.6301,-4.6301,-4.6301,-4.6301,-4.6301,-4.6301,-4.6301,-4.6301,-4.6301,-4.6301,-4.6301,-4.6301,-4.6301,-4.6301,-4.6301,-4.6301,-4.6301,-4.6301,-4.6301,-4.6301,-4.6301,-4.6301,-4.6301,-4.6301,-4.6301,-4.6301,-4.6301,-4.6301,-4.6301,-4.6361,-4.6968,-4.7769,-4.8647,-4.9987,-5.0961,-5.1889,-5.3413,-5.3964,-5.4068,-5.4896,-5.5179,-5.5179,-5.5179,-5.5179,-5.5179,-5.5179,-5.5179,-5.5179,-5.5179,-5.5179,-5.5179,-5.5179,-5.5179,-5.5179,-5.5179,-5.5179,-5.5179,-5.5179,-5.5179,-5.5179,-5.5179,-5.5179,-5.5179,-5.5179,-5.5179,-5.5179,-5.5179,-5.5179,-5.5179,-5.5179,-5.5179,-5.5179,-5.5179,-5.5179,-5.5179,-5.5179,-5.5179,-5.5179,-5.5179,-5.5179,-5.5179,-5.5179,-5.5179,-5.5179,-5.5179,-5.5179,-5.5179,-5.5179,-5.5179,-5.5179,-5.5179,-5.5179,-5.5179,-5.5179,-5.5179,-5.5179,-5.5179,-5.5179,-5.5179,-5.5179,-5.5179,-5.5179,-5.5179,-5.5179,-5.5179,-5.5179,-5.5179,-5.5179,-5.5179]}]]